GFSSE_sfc_dewp_000.txt.gz
Dewpoint
65 65 70 69 70 71 71 72 72 72 72 71 72 73 73 72 72 72 71 70 70 70 71 71 70 69 68 68 70 70 71 71 71 70 69 68 68 68 68 68 68 60 69
67 65 69 69 69 70 71 71 72 72 72 69 72 70 70 70 70 71 71 71 71 70 70 70 70 70 68 70 71 72 71 70 70 70 70 69 67 67 68 67 67 64 68
66 65 64 69 68 69 70 70 71 71 71 71 70 70 71 70 70 68 69 70 70 69 69 70 70 70 70 71 71 70 70 70 70 70 70 61 60 66 67 67 67 68 67
66 64 63 69 69 69 70 70 70 70 70 70 70 70 69 69 65 63 69 69 69 69 70 69 69 69 69 70 70 70 70 69 69 69 62 58 56 67 67 67 67 66 66
65 64 65 69 69 69 69 69 69 70 69 69 68 69 69 70 68 66 69 69 70 70 69 68 68 69 69 69 70 70 69 69 69 66 57 58 56 65 68 68 68 68 68
65 64 67 68 69 69 68 68 69 69 69 69 69 68 68 68 67 68 68 69 68 68 67 67 67 68 68 67 68 69 69 69 68 59 57 60 60 68 68 68 69 68 67
64 64 66 68 68 67 66 66 68 69 68 68 68 68 68 68 68 68 68 68 69 68 67 67 68 67 66 67 68 68 68 68 62 55 57 58 60 68 67 67 68 67 67
62 64 65 68 68 68 67 66 67 67 67 67 67 68 68 68 68 67 68 68 69 69 68 68 68 67 66 66 66 66 66 67 62 56 56 57 65 68 67 67 67 67 67
61 61 63 64 65 66 66 66 66 66 66 67 67 68 68 68 68 68 67 67 68 68 67 67 66 66 65 64 65 65 65 65 60 56 56 56 67 67 67 67 67 66 66
58 59 62 63 63 64 63 63 63 64 65 66 67 66 66 66 67 67 66 66 67 67 67 66 66 65 64 64 64 63 64 64 62 57 56 56 65 66 66 66 66 66 65
53 55 61 62 63 63 60 58 63 64 64 64 65 64 64 64 64 64 61 61 64 65 65 66 65 65 64 63 62 61 62 60 60 58 56 62 62 63 65 66 66 66 64
47 47 53 60 61 61 55 59 64 63 63 63 63 63 63 64 63 62 60 61 59 59 59 64 64 63 62 58 58 55 55 56 58 56 55 63 62 63 64 65 66 65 64
43 45 47 53 57 59 60 60 61 63 62 60 62 61 63 61 61 63 61 60 59 58 60 58 63 62 62 61 59 59 57 57 59 59 56 62 63 63 63 64 65 64 63
42 41 42 50 55 57 55 55 56 54 55 55 59 62 63 62 62 61 61 60 58 59 59 59 61 61 62 62 61 60 59 59 59 58 54 58 61 62 64 64 64 63 63
38 39 38 44 49 52 54 52 52 51 50 51 52 56 57 59 60 61 58 58 58 60 60 59 58 59 61 61 61 60 60 59 57 58 57 56 60 60 63 63 63 64 63
33 35 35 38 45 46 49 50 48 46 44 44 47 52 55 56 59 60 59 58 60 61 61 60 60 59 60 60 61 60 60 59 59 59 59 56 55 57 59 62 63 63 63
30 32 32 34 39 41 43 42 39 37 38 40 45 52 53 53 56 56 54 53 54 58 59 61 61 61 61 61 59 57 58 59 60 59 58 57 55 54 56 60 63 63 64
27 28 30 25 35 37 39 35 33 35 36 39 44 46 48 48 49 49 50 51 52 53 54 54 54 55 58 59 59 58 57 56 58 59 58 57 56 51 50 56 60 63 63
28 27 30 32 32 33 35 34 38 40 35 36 40 39 43 42 43 41 42 45 45 43 46 46 47 51 50 52 53 57 58 57 58 56 57 56 56 55 50 48 56 58 61
31 28 30 30 33 33 32 34 34 35 36 35 35 35 38 38 39 37 38 41 39 36 36 37 38 38 42 48 46 51 58 59 59 58 57 57 57 56 55 54 46 53 60
32 29 29 30 32 30 30 30 30 31 33 35 33 34 36 35 35 38 34 34 37 36 38 37 35 35 34 40 38 46 50 58 58 57 56 57 57 55 55 54 51 46 54
31 30 28 28 30 30 27 29 31 31 30 31 33 36 36 36 36 33 34 33 36 33 36 37 37 33 31 35 35 35 44 50 55 55 56 57 57 56 55 54 53 48 48
34 33 30 28 28 30 30 28 29 30 31 29 30 30 34 38 38 39 37 37 36 36 34 36 36 35 30 31 34 36 32 40 44 48 54 56 57 56 55 54 54 50 47
36 36 32 29 27 28 32 28 32 26 24 25 30 30 32 36 38 39 39 40 41 38 37 35 31 35 35 31 29 27 39 34 30 32 43 48 55 55 56 56 54 53 50
35 37 36 31 29 29 32 34 31 32 29 30 31 34 35 36 36 37 38 40 41 40 39 40 39 37 34 33 31 30 30 30 32 34 29 34 46 50 54 56 55 54 55
36 37 37 32 29 31 33 34 35 34 32 30 31 30 29 30 30 33 33 36 37 38 38 38 39 39 38 36 33 32 29 27 25 26 32 33 32 37 46 52 54 53 54

GFSSE_sfc_dewp_003.txt.gz
Dewpoint
63 65 69 68 69 71 71 72 72 72 71 72 71 71 71 71 71 71 70 70 71 70 69 69 70 69 68 68 68 69 70 71 71 70 69 68 68 68 68 68 69 63 71
65 65 69 68 68 70 71 71 71 73 70 70 71 71 70 70 70 69 69 69 68 68 68 68 69 69 68 69 70 70 70 70 70 70 70 68 67 67 67 68 68 64 70
65 62 62 68 67 68 70 70 71 71 71 71 70 71 70 69 66 68 68 67 68 69 67 69 69 69 69 70 70 70 70 70 70 70 70 61 62 67 66 67 66 69 70
65 63 61 68 67 67 68 69 70 70 70 71 71 70 70 69 66 64 64 63 67 68 69 67 68 68 69 70 70 70 70 69 70 69 62 58 60 68 66 66 66 67 68
63 62 64 69 68 68 67 68 68 69 69 69 70 70 69 69 65 63 63 65 67 69 69 68 67 69 69 69 68 70 70 69 69 66 58 57 55 66 67 66 66 68 68
64 64 66 68 68 66 64 65 67 67 67 68 69 70 69 68 66 64 63 67 68 68 68 68 68 68 68 67 68 67 69 69 68 61 55 59 58 68 68 68 69 68 68
64 65 66 68 68 67 65 64 66 67 67 67 68 69 68 68 68 67 67 67 68 67 67 66 67 67 66 67 67 67 68 68 64 57 54 55 58 68 67 68 68 68 68
60 63 65 67 68 67 66 66 66 66 66 67 66 67 67 67 67 66 67 68 67 66 67 68 67 66 65 65 65 66 66 67 62 57 53 54 66 68 67 67 68 67 67
58 60 61 62 65 66 65 64 64 65 65 66 67 67 67 67 67 66 64 64 65 65 65 65 66 65 63 64 64 65 65 65 62 60 53 54 67 68 67 67 68 67 67
59 58 59 60 60 62 62 62 63 64 64 65 66 65 65 66 65 63 62 61 61 61 60 63 64 64 64 64 64 64 63 64 61 57 58 57 67 65 66 66 67 67 67
54 56 61 61 62 61 57 56 63 65 63 64 64 63 62 63 63 62 61 61 60 60 59 60 57 62 63 63 63 63 63 57 57 60 60 64 64 62 63 66 66 66 66
48 48 52 60 62 61 55 56 61 62 61 61 61 62 60 62 62 61 62 61 61 60 59 58 57 57 62 61 60 60 53 53 56 57 56 64 63 62 62 65 65 65 65
45 46 50 56 60 62 59 59 62 61 61 60 61 60 62 60 61 61 62 61 62 59 60 57 57 57 57 58 60 61 55 55 54 55 56 62 64 62 62 63 65 64 65
42 44 46 54 59 58 56 56 57 56 56 55 59 60 60 58 60 61 60 59 61 61 59 58 58 58 57 57 58 60 60 59 59 60 59 58 62 61 61 63 63 64 65
39 43 43 49 54 57 55 53 53 51 50 51 51 54 54 54 57 58 57 56 56 57 59 59 58 57 59 59 60 59 59 60 60 59 58 57 58 58 58 60 63 63 64
36 40 41 45 48 50 51 52 49 48 45 45 48 51 55 54 57 56 55 55 54 58 60 61 61 60 60 60 59 60 61 60 60 59 57 58 58 58 57 56 61 63 63
35 37 39 41 44 46 46 43 40 38 41 43 47 51 51 50 52 50 48 48 50 54 56 56 55 58 60 60 60 60 59 60 60 60 58 58 58 56 57 57 57 62 64
34 34 35 25 37 39 40 38 35 36 39 42 45 46 47 47 46 47 46 46 46 47 48 49 51 53 55 57 56 58 58 58 57 57 59 59 58 56 55 56 57 57 62
34 33 33 33 34 36 37 34 39 41 36 38 41 40 43 41 41 40 41 42 42 39 39 37 37 43 44 47 50 50 52 58 58 57 57 59 59 58 55 54 56 57 58
35 34 33 33 34 35 33 36 35 36 36 37 36 36 39 37 37 37 37 40 39 36 37 38 38 36 36 39 39 38 46 56 59 58 58 57 57 58 57 56 52 53 56
36 34 32 33 34 32 31 31 32 34 35 35 34 35 37 34 36 38 34 35 37 36 38 40 38 38 35 35 37 39 37 44 52 57 59 58 58 57 57 57 58 54 50
35 35 32 32 33 33 30 31 32 33 31 33 34 37 38 38 37 36 36 35 36 35 39 39 39 36 36 37 33 33 33 36 41 48 53 57 58 57 56 56 57 56 53
38 37 34 31 32 33 34 29 31 33 33 30 31 33 37 40 39 39 38 37 38 38 36 39 38 37 33 37 40 32 29 31 37 34 44 48 55 58 58 56 56 56 55
38 39 37 35 32 32 34 32 35 29 27 29 31 29 29 34 37 38 38 37 38 38 39 40 35 40 40 35 37 33 40 35 30 31 33 35 47 48 54 57 55 55 55
37 39 40 37 35 33 33 37 36 36 35 31 32 34 35 36 36 35 36 37 38 37 39 42 43 43 39 39 37 36 38 36 37 34 30 31 34 43 53 52 53 57 55
37 40 41 38 35 34 34 34 39 39 37 34 36 35 37 36 36 35 31 35 36 36 36 39 42 41 41 40 39 38 37 35 32 33 32 33 31 35 37 45 50 54 56

GFSSE_sfc_dewp_006.txt.gz
Dewpoint
63 64 69 69 70 71 72 72 73 72 72 72 72 72 72 72 71 71 70 70 69 69 68 69 70 69 67 67 68 71 71 71 70 70 70 69 68 68 67 70 70 66 71
63 63 68 68 69 71 71 72 72 73 72 72 72 71 70 71 70 70 70 69 68 67 65 68 69 69 69 70 70 70 70 70 70 70 70 69 68 67 67 69 68 66 71
63 62 60 68 67 68 70 71 71 72 71 71 71 71 71 69 69 69 68 67 67 62 62 66 68 69 69 70 70 70 70 70 70 70 70 66 66 68 67 68 68 69 70
63 62 63 69 68 66 67 68 70 71 71 71 71 70 69 68 67 68 64 63 64 65 64 66 68 68 68 68 69 70 70 70 69 69 67 63 63 68 66 66 66 68 70
63 63 65 68 68 67 67 68 69 69 70 70 70 69 69 69 67 66 66 65 66 68 69 66 66 68 67 67 68 68 68 69 69 68 64 59 61 66 66 65 67 67 67
63 63 67 68 68 67 65 67 68 68 69 70 70 70 70 67 65 63 63 64 67 67 66 64 63 67 67 67 67 67 68 68 68 64 62 60 58 68 67 68 67 66 67
63 64 65 68 68 68 67 68 68 68 68 68 69 69 69 69 68 67 67 68 68 65 61 62 62 65 66 67 66 67 67 68 66 63 60 58 64 69 67 68 69 68 68
62 64 65 67 68 67 67 66 66 67 67 67 67 68 68 68 68 67 67 68 67 66 65 64 65 66 66 66 66 66 66 66 64 62 59 54 66 69 68 68 69 68 68
57 59 62 65 66 66 65 65 65 65 66 66 66 66 67 68 66 65 66 65 63 64 65 65 65 66 65 65 65 65 65 65 64 61 59 58 68 69 68 68 68 68 67
59 58 60 61 64 65 62 63 64 65 65 65 66 66 67 66 65 64 63 63 62 63 61 60 59 63 65 65 64 64 64 64 63 61 59 63 67 68 67 67 67 67 67
53 58 63 61 64 63 62 61 64 65 65 65 65 65 64 65 63 62 62 62 61 60 60 58 57 58 60 62 64 64 63 61 58 59 59 63 66 65 65 67 67 67 67
50 50 55 61 63 63 58 58 65 63 63 63 63 63 63 63 63 62 62 62 61 59 59 58 57 56 56 56 59 62 60 57 55 58 61 63 65 63 63 66 67 67 67
48 50 53 59 63 64 63 63 62 62 63 62 62 62 62 60 61 61 61 61 61 59 59 57 57 57 56 57 57 59 60 60 58 55 56 63 64 63 63 64 67 66 66
45 47 51 59 61 61 60 59 60 58 59 59 60 60 61 60 60 59 59 58 58 59 58 58 57 56 56 57 57 57 58 60 60 58 59 60 62 63 62 63 64 66 66
45 46 49 54 58 60 58 59 58 56 55 54 56 56 58 57 58 58 57 57 57 57 57 58 57 56 56 57 58 58 57 57 59 60 59 59 59 59 61 62 63 64 65
41 45 49 51 55 55 57 57 56 54 52 52 53 55 56 57 57 57 55 55 54 55 56 58 58 58 58 59 58 59 58 57 58 59 59 58 58 58 59 59 61 63 64
41 43 46 48 52 52 53 53 52 49 48 50 52 52 52 54 52 51 51 50 51 52 53 54 54 55 56 58 59 59 59 59 59 60 60 59 58 58 58 58 60 60 63
43 41 43 36 46 48 49 46 45 46 48 49 52 52 50 49 49 49 48 49 48 49 47 46 46 47 51 53 55 55 55 56 58 58 57 59 58 57 58 58 58 59 60
41 40 41 41 40 44 45 44 45 46 46 47 50 48 48 46 45 45 46 48 46 43 43 41 42 41 40 41 41 46 46 49 51 56 57 57 58 58 57 58 57 57 58
43 41 41 41 42 44 43 44 45 45 45 45 45 45 45 44 43 42 44 44 43 42 42 43 42 42 41 41 35 36 40 42 50 55 56 57 57 58 58 57 56 54 55
43 41 40 39 42 40 41 41 41 43 43 44 43 43 44 43 43 43 43 41 43 42 42 41 42 41 41 42 40 37 38 37 39 41 53 57 58 58 57 57 56 56 51
41 41 40 39 40 40 39 40 41 42 41 41 42 44 43 45 43 41 43 40 41 41 41 43 42 40 41 41 40 37 34 33 38 38 40 50 53 56 57 57 56 56 56
43 44 41 39 39 40 40 38 40 41 41 39 39 40 43 44 45 44 43 43 42 42 42 42 41 40 39 40 39 38 34 32 34 34 37 36 41 48 54 56 57 56 56
43 46 44 42 39 39 43 37 40 36 33 34 37 37 37 44 44 43 43 43 43 42 41 42 40 43 41 38 40 38 39 37 34 32 35 36 36 36 46 53 55 56 56
42 46 45 44 42 41 42 42 39 39 38 39 40 40 40 40 40 39 40 42 42 42 42 41 41 41 41 40 39 39 38 37 37 35 32 32 35 35 39 50 51 52 52
43 44 46 45 41 42 42 43 43 40 41 40 40 39 39 39 40 41 38 39 39 39 38 38 38 37 38 38 37 36 35 34 33 32 31 31 31 32 34 36 47 49 51

GFSSE_sfc_dewp_012.txt.gz
Dewpoint
63 66 70 71 71 71 71 71 72 71 71 71 71 71 71 71 71 71 71 71 71 71 70 70 70 70 69 68 68 69 68 70 70 70 70 70 69 69 69 70 70 69 71
63 65 68 70 70 71 72 71 71 72 72 71 71 70 71 70 70 70 70 71 70 67 65 67 68 68 68 69 68 68 68 67 68 69 70 70 69 68 69 68 68 68 71
61 64 65 68 69 70 71 71 71 71 72 72 71 70 70 71 70 70 69 69 66 65 65 67 67 68 67 67 68 67 67 67 66 68 69 66 66 68 68 67 68 70 71
62 64 65 68 69 70 70 70 70 70 70 71 71 71 70 70 70 68 66 65 63 63 67 68 67 66 67 67 66 66 66 67 68 68 67 67 65 67 67 67 69 70 69
63 65 65 66 68 69 69 69 69 69 69 70 70 70 69 69 68 67 66 65 65 65 66 66 67 67 67 65 64 65 64 65 67 67 65 65 64 64 67 67 69 70 68
63 63 65 65 66 69 69 69 69 69 69 69 70 70 68 67 66 64 64 64 66 66 68 66 67 67 66 64 64 64 63 64 66 66 65 64 64 65 67 68 68 68 68
63 64 65 66 66 67 68 68 68 68 68 68 69 69 69 68 67 67 67 66 67 66 65 65 66 66 66 63 62 63 63 64 64 66 65 63 61 68 68 68 68 68 68
63 65 65 66 66 66 66 66 66 67 67 67 68 68 68 68 67 68 67 68 67 64 62 61 62 63 63 64 65 65 64 65 65 65 64 62 63 66 68 68 67 67 67
63 64 64 65 66 65 65 64 64 65 66 66 67 67 66 66 66 66 66 66 66 66 66 66 63 63 65 64 65 65 64 64 63 63 62 61 63 66 68 68 68 68 68
63 64 63 64 64 62 62 64 64 64 64 65 66 66 65 65 65 65 65 65 64 64 63 64 65 65 64 63 63 63 63 63 61 61 61 60 64 66 68 68 67 68 68
60 61 63 63 63 61 59 61 64 64 64 64 65 65 63 62 62 61 63 63 62 61 60 59 59 60 59 59 60 61 62 61 59 57 56 60 63 66 67 67 67 67 68
54 54 56 59 61 61 59 60 61 63 63 63 63 63 63 62 60 61 61 62 60 60 59 58 58 57 55 54 56 58 59 58 57 58 58 61 63 63 65 67 67 67 68
48 53 56 58 59 58 59 61 62 61 62 61 61 61 61 60 60 59 59 59 57 58 56 56 55 54 53 54 54 55 55 56 57 57 58 60 61 62 63 64 66 67 67
46 50 55 57 57 56 58 61 60 59 60 59 59 59 58 58 57 57 57 57 56 56 54 54 54 54 52 52 53 54 55 55 56 56 58 59 60 61 62 62 63 64 65
45 49 54 56 56 55 54 53 52 53 54 54 54 54 56 57 56 56 56 53 54 55 55 54 57 57 55 54 55 55 55 55 56 57 57 58 59 60 61 62 62 63 64
42 47 52 53 54 54 52 52 50 49 48 50 52 53 54 55 55 56 54 54 53 54 53 52 51 51 51 53 54 56 56 56 57 57 57 57 58 59 60 60 61 62 62
40 44 49 50 51 50 52 50 49 47 47 49 50 50 50 52 49 52 50 51 51 52 52 49 48 46 46 47 45 48 53 54 52 54 57 58 59 59 60 61 61 62 61
38 43 45 47 49 49 50 49 48 47 46 47 49 49 47 49 48 47 47 46 45 47 47 39 39 37 38 39 39 40 45 43 42 44 47 52 57 59 60 60 61 61 61
38 41 40 42 46 45 46 46 43 43 41 45 49 48 47 47 46 44 47 45 42 43 41 39 38 38 37 37 37 38 37 36 39 39 40 45 53 55 57 59 59 60 61
37 38 38 33 40 40 39 39 40 41 40 43 48 47 47 46 44 41 44 43 41 41 41 40 37 39 39 37 38 37 37 37 37 38 38 43 47 51 47 57 58 59 59
35 35 36 34 34 38 36 36 36 38 39 40 42 46 46 44 43 40 41 43 42 40 40 39 39 38 37 38 37 37 36 36 36 35 38 41 43 43 48 44 51 57 58
34 33 33 33 35 36 35 35 35 35 37 38 40 41 45 44 42 40 40 41 41 41 39 40 40 39 39 39 37 36 33 34 35 36 37 38 39 41 42 42 45 49 54
34 34 35 34 34 36 36 35 36 37 37 37 37 39 41 43 43 41 40 41 39 40 39 37 38 37 36 39 37 36 33 31 35 35 36 37 37 39 40 42 43 44 51
35 36 37 37 36 36 37 35 34 33 33 34 35 36 39 41 41 42 41 41 40 41 39 40 39 39 38 36 38 39 38 37 34 30 35 36 37 36 39 40 39 41 46
35 37 39 39 39 39 39 38 37 34 35 36 37 35 36 39 41 42 42 42 42 41 38 34 33 31 35 34 34 35 34 35 35 32 26 25 29 33 36 39 40 41 40
36 37 39 39 39 40 41 40 39 38 37 37 37 38 38 39 39 40 38 37 36 36 35 34 33 32 32 33 32 32 33 31 28 30 28 27 26 27 29 32 33 35 36

GFSSE_sfc_dewp_015.txt.gz
Dewpoint
63 66 70 71 71 71 71 71 71 71 71 71 71 71 71 72 71 70 71 70 71 71 69 69 70 68 68 67 68 69 69 69 69 70 70 68 68 68 68 69 70 68 70
63 66 69 70 71 71 71 71 72 71 71 71 71 71 71 70 71 70 71 70 68 66 66 68 67 68 68 67 69 69 68 68 68 68 68 69 69 68 68 69 69 69 69
62 64 66 69 70 71 71 71 71 72 72 71 70 70 71 71 70 70 69 68 66 66 65 67 68 68 68 68 68 68 67 67 68 68 68 66 65 67 68 68 67 69 69
62 64 65 68 69 70 70 70 70 70 70 71 71 71 70 70 70 68 66 64 64 64 66 66 67 67 68 67 67 66 66 66 67 68 67 66 65 66 67 67 69 69 69
63 63 64 68 68 69 69 69 69 69 70 70 70 70 69 68 68 67 66 66 66 65 65 65 66 65 67 67 66 66 66 66 66 66 65 65 65 64 66 67 68 70 69
62 63 64 66 68 68 68 68 68 68 68 69 70 69 68 67 66 63 63 64 66 66 67 65 66 67 66 65 64 65 63 63 65 64 65 65 65 65 66 68 68 68 68
61 63 63 65 67 68 68 67 67 68 68 68 68 69 68 68 68 67 67 65 67 66 65 66 65 67 66 63 62 63 63 63 64 64 64 64 63 66 67 68 68 68 68
62 64 64 65 65 65 66 66 66 67 67 67 68 68 68 68 68 67 67 68 66 63 61 61 62 65 64 64 65 64 64 64 64 64 63 63 64 65 64 68 67 68 68
63 63 64 64 65 65 64 64 65 66 66 67 67 67 66 66 66 66 66 66 66 66 66 64 62 63 63 64 64 64 63 64 62 62 61 62 62 64 65 67 67 67 68
62 63 62 63 63 62 61 64 64 64 65 65 66 65 65 64 64 65 65 65 64 63 63 64 64 64 63 63 63 62 62 62 60 58 58 58 62 63 65 67 68 67 67
62 62 62 62 62 61 59 61 64 64 64 65 65 64 63 62 61 61 63 63 61 61 60 59 59 58 57 57 58 60 61 59 58 57 57 60 62 64 64 66 66 66 67
59 59 62 62 62 61 59 59 61 62 62 62 62 63 62 60 59 60 61 61 61 60 59 58 58 57 55 54 54 55 55 55 55 56 57 60 60 64 63 65 65 65 66
56 55 56 58 59 60 60 59 60 61 61 61 60 60 60 60 59 58 58 58 57 58 56 55 54 54 52 52 52 53 54 54 55 56 56 59 59 60 61 63 63 64 65
49 53 55 58 57 55 59 60 60 60 60 59 59 59 58 57 57 57 57 57 55 55 54 53 53 54 52 53 52 53 54 54 55 55 56 58 59 60 61 61 62 63 64
46 50 54 56 56 54 56 55 56 56 58 57 56 55 57 57 55 55 55 54 54 54 54 53 53 53 52 53 54 54 54 55 55 56 56 58 58 57 60 61 61 61 62
45 49 53 55 56 53 52 52 51 51 51 52 52 53 55 56 55 55 54 53 53 53 52 51 50 49 48 49 49 50 52 54 54 54 54 54 57 57 57 58 61 62 61
44 48 52 53 54 53 52 51 49 48 48 49 51 51 53 53 52 54 53 52 52 51 50 48 46 41 41 42 40 42 47 49 45 45 46 49 53 57 58 59 56 58 61
42 46 49 50 50 50 52 50 49 48 47 47 49 50 49 52 49 49 48 49 48 50 48 39 39 36 37 38 38 39 38 38 38 40 41 44 48 54 57 55 56 57 59
40 44 45 46 49 48 50 49 47 46 44 45 48 48 48 48 49 47 47 46 44 44 43 39 38 37 36 36 36 37 36 36 36 38 36 40 43 48 50 50 52 55 55
40 43 42 42 47 46 43 42 41 41 42 42 44 48 48 47 47 43 45 46 42 42 41 39 37 39 37 37 36 36 36 36 36 36 36 40 41 43 41 49 45 50 53
39 38 37 33 40 39 38 37 37 38 39 40 41 45 47 47 46 43 43 44 42 41 40 40 38 37 38 38 36 36 36 36 35 35 37 39 40 41 42 43 44 46 49
35 35 36 34 33 36 36 35 35 36 37 39 40 41 45 46 46 43 41 42 43 41 40 40 39 39 38 39 35 35 32 34 33 35 36 37 38 40 40 40 42 43 46
33 33 34 34 34 36 36 35 35 36 36 37 37 38 40 45 46 44 41 40 41 42 40 39 39 38 37 38 37 35 32 30 34 34 34 36 37 37 39 39 39 39 42
33 34 35 36 36 36 37 36 34 33 33 35 36 36 37 41 43 44 42 40 39 41 40 39 39 38 38 36 36 39 36 36 28 25 31 30 29 32 36 37 37 39 39
34 35 37 39 40 40 40 39 38 37 37 37 38 37 37 38 42 42 43 41 41 42 41 38 35 32 34 32 32 31 32 33 34 32 21 21 27 29 32 36 38 38 37
36 37 38 39 39 40 41 41 41 40 40 39 39 39 39 39 39 41 41 41 38 36 35 35 35 34 34 35 35 35 34 30 28 28 28 25 26 28 30 32 33 35 36

GFSSE_sfc_dewp_018.txt.gz
Dewpoint
62 66 70 71 71 71 71 71 71 71 71 71 71 70 71 70 70 69 70 70 71 71 69 69 69 68 66 66 68 69 69 69 69 69 69 69 69 68 69 71 70 68 70
63 65 69 70 71 71 71 72 71 71 71 71 71 70 70 70 70 69 70 69 69 67 68 68 68 68 66 67 69 68 68 68 68 69 70 70 70 68 68 69 69 68 69
63 65 67 69 70 70 71 71 72 72 72 71 71 70 70 70 70 69 68 66 65 66 66 67 66 67 67 67 68 68 68 67 66 68 68 66 66 67 68 69 68 70 69
62 63 66 69 69 70 70 70 70 70 71 71 71 70 70 70 70 68 65 64 63 65 65 65 66 67 67 67 67 67 67 67 67 67 66 65 64 65 66 68 68 69 69
62 63 66 68 68 69 69 69 69 69 70 70 70 70 69 69 68 67 66 65 66 65 65 65 66 66 67 67 66 66 65 65 66 65 65 65 65 64 66 66 68 69 69
61 61 65 67 67 68 68 68 68 68 69 69 70 69 68 67 66 64 63 64 66 66 66 65 66 67 67 65 63 64 63 63 64 63 65 65 65 65 66 67 67 67 68
60 60 62 66 67 68 67 66 67 67 68 68 69 69 68 68 68 67 66 65 67 66 66 67 66 67 67 65 65 65 64 64 64 64 64 64 64 65 66 67 68 67 68
61 62 62 65 65 66 66 66 66 66 67 67 67 68 68 67 67 67 67 67 66 64 63 62 62 65 64 63 63 64 64 64 63 63 63 62 63 64 65 65 67 66 67
62 62 62 62 63 64 64 64 65 65 66 66 66 66 66 66 66 66 66 66 66 66 66 65 63 64 64 64 63 63 63 63 60 60 60 61 63 64 64 65 67 67 67
61 61 61 61 61 61 60 63 63 64 65 65 66 65 64 64 64 65 64 64 63 62 62 62 61 60 59 59 59 62 61 60 58 57 57 58 62 65 64 66 67 68 67
61 61 61 61 61 59 58 60 63 64 64 65 65 64 62 61 60 60 63 62 61 61 60 59 59 58 57 56 57 57 58 56 56 56 57 59 60 62 65 65 66 67 67
60 61 61 61 61 60 59 58 60 61 61 61 62 61 61 59 58 59 61 61 61 60 59 58 58 56 54 52 53 54 54 54 55 55 56 59 59 61 61 62 64 65 65
59 59 60 61 60 60 60 58 59 60 60 60 59 61 60 60 59 58 57 57 56 58 55 55 53 53 51 51 52 53 54 54 54 55 56 59 59 61 62 61 61 63 64
56 57 57 57 58 57 59 59 59 59 59 59 59 59 59 58 57 57 56 56 55 54 53 53 53 53 52 52 53 53 53 54 55 55 56 57 54 54 58 61 61 61 62
53 52 54 56 57 55 58 58 58 58 59 58 58 57 57 57 56 56 55 54 54 53 53 53 53 52 52 51 52 52 53 54 53 53 52 52 52 52 54 57 59 61 61
48 50 52 55 56 54 55 54 56 55 56 55 55 54 54 56 55 54 54 53 53 53 52 51 49 47 47 47 44 45 46 52 46 45 46 46 51 54 56 54 55 56 58
46 48 51 54 55 53 52 52 51 50 50 51 52 52 53 55 54 54 53 52 53 52 50 49 47 42 40 41 39 41 44 45 42 42 43 45 48 53 52 52 48 50 52
44 47 51 52 53 53 52 51 50 48 48 47 49 50 50 52 51 52 52 52 52 51 50 43 39 37 37 38 38 38 38 38 38 40 40 43 45 48 48 48 48 48 49
42 45 49 49 50 50 50 50 50 48 47 46 46 48 49 49 51 48 49 49 49 47 48 41 38 37 36 36 36 37 37 37 37 37 37 40 41 43 44 47 46 47 48
39 44 46 46 48 48 47 45 43 42 42 43 44 46 48 48 48 48 47 47 46 44 44 40 38 39 37 37 35 36 37 37 37 37 36 39 40 41 41 43 44 45 45
39 42 43 41 43 44 41 39 38 39 39 40 41 42 45 47 47 47 45 45 45 42 42 41 39 37 38 39 37 35 36 37 37 37 37 38 39 40 42 42 43 43 42
38 40 40 37 35 41 38 36 36 36 37 39 40 40 42 46 47 46 45 43 44 43 41 40 39 38 38 39 36 35 32 34 34 36 36 37 37 40 39 39 41 40 40
35 36 36 36 35 35 36 36 35 35 36 36 36 37 38 41 43 46 45 44 42 43 42 40 39 38 37 38 38 35 33 31 33 34 35 34 37 35 37 37 36 38 40
33 34 34 36 37 37 37 36 36 34 34 36 37 37 36 39 41 43 45 44 42 42 42 41 40 39 37 37 38 39 35 35 25 22 28 33 28 30 33 35 36 36 38
35 36 38 39 40 41 40 40 40 39 40 41 40 40 40 40 39 40 42 44 43 41 42 41 39 38 36 36 31 32 32 33 33 27 25 25 28 30 31 34 36 38 38
38 39 40 40 40 41 41 41 41 40 41 40 39 41 41 41 40 39 40 41 40 37 36 35 36 36 36 37 37 36 35 33 30 30 29 28 27 28 31 32 34 35 36

GFSSE_sfc_dewp_021.txt.gz
Dewpoint
63 67 70 71 71 71 71 71 71 71 71 71 72 71 71 71 70 70 70 70 70 70 69 69 69 68 67 67 68 69 69 69 69 70 69 68 68 68 69 70 70 65 71
64 67 69 70 71 71 71 71 71 71 71 71 71 71 70 70 69 69 70 70 69 68 68 68 68 68 67 67 67 68 68 68 68 69 70 69 69 67 68 69 70 67 70
64 66 67 70 70 70 71 72 72 72 71 71 71 71 71 71 70 69 67 64 65 66 66 66 66 67 67 67 68 68 67 67 67 68 68 62 63 68 67 67 70 69 69
62 64 67 69 69 70 70 70 71 71 71 71 71 71 70 70 69 68 65 64 65 65 64 65 66 67 67 67 67 67 67 67 67 67 63 62 62 66 66 68 67 68 68
60 63 66 68 68 68 68 69 70 70 70 71 71 70 70 69 68 67 66 65 65 66 65 66 67 67 67 67 65 63 63 63 65 64 64 63 61 64 66 66 67 68 68
60 62 66 67 67 67 68 68 67 68 69 70 70 69 68 67 66 64 64 64 65 66 66 66 67 67 66 65 64 63 64 64 64 61 64 64 64 64 66 67 68 67 67
59 61 64 66 67 68 67 66 67 68 67 68 68 69 68 68 68 67 64 65 67 65 64 65 65 67 65 64 63 64 64 65 63 64 64 64 64 66 67 66 68 67 67
57 60 62 65 66 66 66 66 66 67 67 67 68 67 67 67 66 66 67 66 66 66 65 63 64 64 64 64 64 64 64 64 63 62 61 61 63 64 64 66 66 67 66
59 60 61 62 63 64 64 65 65 65 66 66 66 65 65 66 66 66 66 65 65 65 65 65 64 63 63 62 62 62 62 61 60 59 57 59 62 64 64 64 67 67 66
61 61 62 63 62 62 62 63 64 65 65 65 65 64 64 64 64 64 64 63 63 63 63 62 61 60 59 59 59 61 59 59 58 57 56 57 60 62 64 66 66 67 66
61 62 63 62 63 62 60 61 63 64 65 65 65 64 63 63 62 61 63 62 61 60 60 59 59 58 56 56 57 56 56 54 55 55 55 59 60 61 62 63 65 65 66
61 62 62 64 64 63 59 61 62 62 63 64 64 64 63 64 62 61 61 61 61 60 59 58 57 55 52 53 54 55 55 57 56 56 56 59 60 61 61 61 62 64 64
61 62 63 64 64 64 63 61 61 61 63 63 64 64 64 63 63 62 61 61 62 59 58 57 57 57 56 57 57 58 57 57 57 57 57 56 54 57 59 61 61 61 62
61 62 63 64 63 63 62 62 61 61 62 62 63 63 64 63 64 63 61 61 61 60 59 58 59 59 58 56 56 56 56 58 56 54 50 52 50 51 54 57 59 61 61
59 61 61 60 59 60 60 61 62 62 62 62 62 62 62 62 62 61 61 60 60 59 57 58 58 56 55 53 54 53 52 56 50 44 42 49 52 52 53 55 56 57 58
58 59 57 57 59 59 59 61 61 62 61 61 61 61 61 61 61 59 59 58 58 57 57 58 55 50 48 48 44 45 46 52 43 44 42 44 54 51 51 50 50 51 52
54 56 54 56 58 59 57 58 58 58 57 58 59 60 59 58 59 59 58 58 57 57 58 55 52 49 43 43 42 43 45 46 43 43 43 43 45 50 49 51 47 48 49
53 51 52 52 56 58 56 55 54 53 53 53 53 54 56 57 57 57 56 57 57 57 56 54 51 46 41 40 40 39 40 41 42 42 40 41 42 39 45 46 46 47 47
49 50 51 54 54 55 55 53 54 54 52 52 52 50 53 54 55 55 53 54 57 56 55 54 49 45 41 39 38 40 41 39 40 35 39 41 41 41 39 44 45 45 44
48 49 50 52 53 53 52 52 50 50 49 49 48 48 50 50 52 53 52 53 53 52 52 52 50 45 42 40 34 35 41 40 40 40 39 37 37 42 41 41 40 37 42
44 46 48 48 50 49 48 47 46 44 43 43 43 45 46 46 49 51 50 51 51 50 50 51 49 47 43 43 40 39 40 42 42 39 40 39 37 37 42 40 36 34 30
40 44 45 45 42 41 43 42 42 41 40 40 42 44 44 45 47 47 49 48 49 48 50 49 48 44 43 43 38 38 35 36 38 39 38 37 41 37 38 34 36 31 31
40 41 38 39 40 41 42 40 41 42 42 41 41 41 42 44 45 45 46 47 48 48 47 49 48 46 43 42 43 38 36 33 35 37 40 37 38 38 33 33 29 31 29
41 43 43 43 43 43 44 43 44 41 40 41 42 41 42 45 45 45 45 46 47 46 46 46 46 46 45 42 41 40 41 38 34 33 33 35 35 30 32 30 31 31 31
43 44 44 43 43 43 44 44 43 41 41 41 42 42 42 43 44 44 44 44 45 45 46 46 46 45 43 41 40 40 40 36 35 31 30 30 28 29 30 32 32 32 33
44 44 44 43 42 43 44 45 44 42 41 40 41 39 40 40 42 43 41 43 44 43 43 42 41 41 40 39 38 37 36 34 32 31 30 31 32 34 31 30 31 31 31

GFSSE_sfc_dewp_024.txt.gz
Dewpoint
61 66 71 71 71 71 71 70 70 70 71 72 72 72 71 71 71 71 70 70 70 69 69 68 68 66 66 66 67 68 68 69 69 69 69 68 68 68 69 69 69 63 70
63 65 70 70 71 71 71 70 71 71 71 71 71 70 70 70 71 70 70 70 70 68 68 67 68 67 66 66 67 67 67 67 68 68 68 68 68 67 69 69 69 67 69
60 63 66 70 71 72 72 71 72 71 70 70 70 70 70 71 70 69 67 66 67 66 66 65 66 66 67 67 67 67 67 67 68 68 66 58 58 67 68 67 68 68 68
59 61 64 69 70 70 71 71 72 71 71 70 69 69 69 69 68 66 65 66 66 65 65 66 66 68 68 67 66 66 65 65 66 66 61 58 57 66 66 67 67 67 68
57 60 65 68 68 69 69 69 70 70 70 70 70 70 70 69 68 67 66 66 66 67 66 66 68 67 66 65 64 63 62 63 62 62 58 60 59 63 65 66 67 67 68
54 57 65 67 67 68 67 67 67 69 69 70 70 69 68 67 66 64 63 63 66 67 67 66 67 67 65 64 64 63 63 62 64 57 58 61 62 67 65 66 67 68 67
52 55 59 66 67 67 66 66 67 67 68 68 69 69 68 68 68 67 64 66 66 64 64 63 64 65 63 62 64 64 64 64 60 59 59 60 62 64 65 66 67 67 67
52 56 57 65 67 66 66 66 66 67 66 67 67 67 67 67 66 67 66 66 66 66 64 64 64 64 64 64 64 64 63 63 60 60 59 59 62 64 64 64 66 67 67
53 55 57 59 62 65 65 65 65 66 66 66 66 66 65 66 66 66 66 65 65 65 65 64 63 63 62 62 62 62 61 60 59 58 56 56 62 63 64 64 65 67 67
57 57 59 60 59 61 61 64 65 65 66 66 65 64 64 65 64 65 64 64 63 63 63 62 61 60 59 59 59 59 58 59 58 57 56 57 60 61 63 64 65 66 66
57 61 61 59 62 62 60 61 63 64 65 65 64 64 62 61 61 61 63 62 61 61 60 59 58 57 56 57 56 56 56 53 55 55 55 59 60 61 61 62 64 65 65
57 59 61 63 63 63 58 61 62 61 61 62 62 63 61 63 62 59 61 61 61 60 59 58 57 55 54 51 51 55 50 54 52 53 53 59 58 59 60 61 61 63 64
56 58 61 64 65 64 60 59 57 58 60 62 64 63 63 63 63 62 61 60 61 59 56 55 54 51 52 53 52 54 52 53 50 50 53 52 52 54 56 59 61 61 61
54 57 61 63 64 63 57 56 58 57 59 59 62 64 63 60 61 61 59 58 59 57 58 56 54 56 56 54 53 53 53 51 48 49 49 48 50 50 53 56 58 59 60
51 55 61 63 62 58 60 59 61 61 59 60 61 62 63 59 59 59 58 57 56 55 54 55 54 54 53 51 49 48 46 49 50 43 43 49 52 52 52 52 54 55 57
54 56 61 61 59 57 57 60 60 61 59 60 58 59 63 62 59 57 54 53 52 52 52 53 53 52 48 47 45 44 41 44 43 42 37 45 53 49 50 48 49 50 51
52 56 60 59 57 57 56 57 56 55 58 55 54 58 59 60 57 57 53 51 49 51 56 56 54 53 49 45 42 41 41 45 41 41 40 40 43 48 50 46 46 47 48
55 55 57 55 55 56 55 55 53 52 53 51 52 52 55 56 57 55 51 50 51 52 52 51 51 49 48 45 41 38 39 40 42 42 40 39 38 36 47 45 46 45 45
53 54 55 57 56 54 54 53 54 54 52 49 51 49 51 53 54 54 51 51 53 51 51 51 50 50 47 44 40 39 40 39 40 37 39 41 42 38 37 46 45 44 41
49 52 53 54 54 53 53 53 50 50 48 48 46 45 48 47 50 51 49 51 51 50 49 49 51 49 48 45 38 36 39 40 40 39 39 37 40 41 39 39 39 37 38
45 48 50 50 51 50 50 47 45 44 43 42 41 44 47 46 48 49 47 48 49 50 50 51 49 50 49 47 45 42 40 42 44 41 40 39 38 39 40 40 38 34 35
45 46 45 44 43 42 42 43 44 44 42 44 45 47 46 47 47 45 47 47 48 47 49 50 51 49 48 47 45 42 38 38 40 41 41 39 42 38 36 40 37 36 34
44 44 42 43 44 45 45 43 44 44 43 41 42 41 43 44 44 45 45 46 47 47 46 48 49 49 47 47 47 44 38 36 37 39 43 41 41 40 38 37 36 33 34
46 46 45 44 43 44 46 44 45 42 40 42 43 42 41 42 42 42 44 45 47 46 46 46 45 47 47 45 46 45 46 44 39 38 40 40 40 39 41 37 33 34 34
46 47 46 44 44 44 45 46 44 43 42 42 42 43 42 41 40 39 42 45 45 45 45 47 48 48 46 45 44 44 45 43 43 41 37 37 38 37 36 35 35 35 36
45 46 45 43 42 44 44 45 45 43 43 41 40 38 36 36 36 39 40 44 45 45 44 44 45 44 44 44 42 42 40 38 38 39 37 38 37 35 32 34 36 36 36

GFSSE_sfc_dewp_027.txt.gz
Dewpoint
64 66 71 71 71 71 70 71 71 71 72 72 72 72 72 72 71 71 70 70 70 69 69 68 68 67 67 67 67 68 68 68 69 68 68 67 67 68 69 69 69 64 69
62 65 70 71 71 71 71 71 71 71 71 71 71 71 71 70 70 70 69 69 69 67 67 67 67 67 67 67 66 67 66 67 67 67 66 67 68 68 68 68 70 66 69
61 64 66 71 72 72 72 71 71 71 70 70 71 70 70 70 69 67 66 67 67 66 66 66 66 68 67 67 67 67 67 66 66 66 66 60 64 68 67 67 68 68 68
59 61 66 70 70 71 71 71 72 71 70 70 70 69 69 69 68 67 66 66 66 67 67 67 68 68 68 66 65 64 63 63 64 66 61 60 57 67 66 66 67 67 67
57 62 66 68 69 69 70 70 70 70 70 70 71 70 69 68 67 67 66 66 66 67 66 66 68 66 65 64 63 62 61 62 63 61 57 60 61 65 66 66 66 67 68
56 60 66 67 68 68 67 68 69 69 69 70 70 69 68 67 66 64 64 66 67 66 68 67 67 66 64 64 63 63 62 63 64 57 60 62 59 66 66 64 67 67 67
50 55 60 66 67 67 66 66 66 67 68 69 69 69 68 68 68 67 66 66 65 65 64 64 66 64 63 62 64 64 64 64 59 57 59 60 64 65 65 65 66 67 68
49 52 55 65 67 67 66 66 67 67 67 67 67 67 67 67 67 66 66 66 66 65 64 64 65 65 64 64 64 63 63 62 59 55 54 57 63 64 65 65 66 66 67
49 51 54 57 62 65 66 66 66 66 66 66 65 65 65 66 66 66 65 65 65 64 64 64 63 63 62 62 62 61 61 62 59 53 53 58 62 62 64 65 65 66 66
50 51 54 55 57 60 62 65 65 66 66 65 64 64 64 65 65 64 65 64 64 63 63 62 61 60 59 58 58 59 59 61 58 52 52 57 61 61 62 63 65 65 66
51 54 56 55 58 57 55 61 64 65 66 65 64 64 63 60 60 61 63 62 61 60 59 59 58 58 58 59 58 57 58 51 50 49 53 61 60 60 61 62 62 64 65
52 54 56 59 59 59 52 57 58 56 58 59 59 59 57 60 60 57 61 61 61 61 61 60 59 58 57 51 53 57 52 50 49 48 52 58 57 57 59 61 61 62 63
51 51 53 60 60 59 55 53 53 53 55 57 60 60 59 59 59 58 58 61 62 61 57 58 56 53 51 52 48 50 50 50 46 45 53 53 50 53 56 58 60 61 61
49 50 54 59 60 59 53 50 52 52 55 55 57 60 59 56 58 58 55 55 55 53 55 55 53 53 56 54 52 51 50 49 44 44 49 50 47 50 53 56 58 59 59
46 48 53 59 62 55 55 53 55 56 55 57 57 57 58 56 57 56 55 54 53 52 51 52 51 50 52 52 50 48 47 46 48 46 42 51 49 51 52 53 54 56 56
45 49 52 58 61 54 52 56 55 57 55 56 55 55 57 57 57 55 53 51 50 49 49 50 49 50 50 48 47 47 45 41 41 45 39 45 53 50 51 50 50 51 51
46 48 53 58 59 56 53 53 52 51 52 52 51 53 54 55 55 55 52 51 49 50 54 51 51 50 50 48 46 45 42 44 43 44 40 39 46 50 52 47 48 48 49
45 47 51 54 56 58 52 52 50 49 50 49 49 50 52 53 54 54 51 51 51 53 51 50 49 48 48 47 46 44 42 41 42 44 42 41 39 39 49 49 47 47 46
47 48 51 54 57 56 53 51 52 52 50 47 49 48 49 50 51 52 50 50 53 50 51 51 50 51 49 48 46 45 45 41 43 38 41 44 45 40 39 50 50 47 45
49 51 53 53 55 55 53 52 48 48 47 47 45 44 47 47 49 50 49 50 51 49 50 51 53 50 50 50 44 43 47 44 44 44 41 40 41 45 43 43 43 39 46
47 46 51 52 54 51 50 47 45 44 44 43 42 46 48 48 48 50 47 47 50 48 51 53 53 53 52 52 51 49 48 48 48 44 45 43 42 42 45 43 41 38 37
45 46 46 46 46 44 42 44 46 46 44 45 46 46 46 47 47 45 46 45 45 45 49 51 52 50 51 52 49 49 45 45 45 45 44 45 47 42 41 43 43 43 38
46 45 44 44 45 46 46 43 44 43 44 42 43 44 45 46 45 45 44 44 46 47 45 49 49 49 46 48 51 48 45 42 43 44 47 45 47 46 44 43 43 42 40
46 46 45 44 44 44 47 45 47 44 43 44 45 44 44 45 42 40 40 42 44 45 47 47 43 48 48 45 46 44 47 48 45 44 44 46 45 44 47 44 42 43 39
47 47 46 44 43 44 46 47 46 45 44 42 42 42 41 39 39 37 39 42 44 44 46 47 47 46 44 44 43 45 45 44 45 43 43 44 45 44 43 44 43 41 38
46 47 46 44 42 43 44 44 44 44 42 39 39 38 37 38 37 39 37 41 43 43 44 44 46 45 44 44 43 43 41 40 39 38 38 40 41 47 46 47 44 41 41

GFSSE_sfc_dewp_030.txt.gz
Dewpoint
64 68 72 72 72 71 71 71 71 72 72 72 72 72 72 72 71 71 71 71 71 70 69 68 70 69 67 66 67 69 69 69 69 69 68 68 68 68 69 70 69 64 71
65 68 71 72 72 72 72 71 71 72 72 72 72 71 71 71 71 70 70 70 70 68 66 67 68 68 68 67 68 68 68 68 68 68 68 68 69 68 68 70 70 68 69
64 66 69 71 72 72 72 72 72 71 72 71 71 71 71 70 69 68 68 69 68 67 67 68 68 68 68 67 67 66 66 66 67 67 68 64 64 67 68 69 69 70 70
63 65 67 70 71 71 71 72 72 71 71 71 71 70 70 69 68 67 67 67 67 67 67 68 68 68 67 66 65 64 64 64 64 65 60 62 63 67 67 68 68 68 68
64 64 66 69 69 70 70 71 71 71 71 71 71 70 69 68 68 67 66 67 68 67 66 67 67 66 65 64 64 64 64 64 64 62 56 62 64 66 66 66 67 68 68
61 64 66 67 68 68 69 70 70 70 70 70 70 69 68 68 67 66 68 67 66 66 67 67 66 65 64 64 64 64 64 65 65 57 59 64 64 66 66 67 67 67 67
58 61 62 66 67 67 67 67 68 69 69 69 69 69 68 68 68 67 67 66 66 65 64 64 64 64 64 64 64 64 64 64 62 60 57 62 65 66 66 65 66 67 67
53 57 59 66 67 67 67 67 67 67 68 68 68 67 67 67 67 66 66 66 66 65 65 65 65 64 64 63 63 63 63 63 59 58 59 61 64 64 64 66 66 66 66
51 53 57 61 64 66 66 66 66 66 66 66 66 66 66 66 66 66 66 65 64 64 64 64 63 62 61 61 62 62 62 63 61 58 57 59 64 63 63 64 65 66 66
51 52 56 59 60 62 64 65 65 65 65 65 65 64 65 65 66 66 65 64 63 63 62 61 61 60 60 60 60 60 59 60 57 57 58 60 63 62 62 63 63 65 66
50 57 58 57 61 63 62 63 65 65 65 64 64 64 63 63 63 63 63 63 62 61 60 59 59 59 60 60 61 60 60 55 52 52 58 62 61 61 61 61 62 63 64
54 55 59 61 62 60 51 62 63 62 63 64 63 63 63 61 61 58 62 63 63 62 62 61 61 61 60 55 57 60 56 53 51 49 57 60 58 57 57 59 62 62 63
53 55 57 63 63 61 60 58 59 60 62 63 61 61 62 61 63 63 62 61 62 63 61 61 59 58 56 56 54 55 53 52 51 49 55 57 56 54 54 58 59 61 62
50 53 58 61 62 60 58 58 58 57 61 60 62 62 63 61 61 60 59 58 59 59 58 56 56 56 54 56 55 54 53 52 50 49 53 54 54 50 52 56 58 60 61
50 51 56 61 62 61 57 60 60 60 61 61 60 61 61 60 61 59 58 57 56 55 54 54 53 53 54 54 54 52 50 49 49 49 50 52 52 50 50 55 57 58 59
48 52 58 61 64 58 57 58 59 61 60 61 59 60 58 59 60 58 57 55 54 54 53 53 53 54 53 53 51 51 48 47 45 45 48 49 53 54 53 52 54 55 55
48 52 56 60 63 59 57 57 56 56 54 56 56 57 56 56 57 57 56 55 54 55 55 55 54 53 53 52 51 50 50 48 46 45 47 45 50 53 54 54 52 52 52
48 50 54 54 61 61 59 57 55 54 55 54 54 54 55 54 55 56 56 56 56 56 55 54 54 52 52 51 50 50 48 46 46 46 46 45 44 43 52 55 53 51 51
51 52 53 56 59 60 59 55 56 55 54 54 55 53 55 53 55 54 54 55 56 54 54 54 51 52 51 51 50 49 49 48 46 43 44 45 45 44 44 54 53 53 52
55 55 55 56 59 59 59 56 54 53 53 54 52 52 53 51 53 53 52 53 54 52 52 52 53 53 52 52 49 48 48 49 48 46 45 44 44 44 44 46 48 49 52
53 53 54 54 57 55 55 53 51 51 50 50 49 51 51 51 50 51 50 50 51 50 50 50 50 49 49 52 50 49 48 49 50 47 46 45 43 43 44 44 45 42 44
49 49 49 48 49 48 48 49 50 50 50 49 50 48 50 51 50 48 50 48 48 48 48 48 49 48 48 49 48 47 45 45 46 46 47 44 43 43 42 43 43 41 37
49 49 46 47 48 50 51 48 49 50 50 48 48 48 49 50 49 49 47 46 47 47 47 46 46 46 45 45 47 46 43 41 43 45 45 49 49 48 46 43 43 41 42
50 51 48 48 47 47 50 49 51 49 46 47 47 47 46 46 46 44 44 45 46 47 46 46 44 46 45 43 45 45 45 45 43 42 44 46 50 49 50 51 51 47 41
51 51 50 48 46 48 48 49 48 47 47 46 45 45 45 45 45 43 42 43 45 45 45 46 46 45 45 43 42 41 41 41 41 41 39 40 45 47 48 49 48 49 48
51 51 50 47 45 47 46 47 47 47 46 44 44 44 44 43 43 42 41 42 44 45 44 44 44 43 42 41 40 40 39 38 37 37 36 37 37 41 42 44 46 48 49

GFSSE_sfc_dewp_033.txt.gz
Dewpoint
68 70 71 71 71 71 71 71 72 72 72 72 72 72 72 71 71 71 71 71 71 70 69 69 70 69 68 67 67 68 68 68 68 68 68 68 67 68 68 70 69 67 71
68 70 70 71 71 71 71 71 72 72 72 72 72 71 71 71 70 70 70 70 70 68 68 69 69 69 68 68 68 68 68 67 66 67 68 67 69 68 68 70 69 68 70
68 69 70 71 72 72 72 71 72 72 72 72 72 71 71 70 69 69 68 69 69 68 68 69 69 68 68 67 66 65 65 65 65 65 66 63 64 68 66 69 69 70 70
67 69 70 70 71 71 71 71 71 71 71 71 71 71 70 69 68 68 67 68 69 67 67 68 68 67 66 66 65 64 65 65 64 65 58 62 63 65 65 68 68 69 69
66 67 68 69 69 70 71 71 71 71 71 71 71 70 70 68 67 67 68 68 67 68 68 68 67 65 64 65 65 65 65 65 65 63 57 62 64 66 65 66 66 68 67
64 65 66 67 68 69 70 70 70 70 70 70 70 70 69 68 67 68 67 67 66 66 67 67 66 65 64 64 65 65 65 65 64 60 58 64 64 65 66 66 66 66 66
62 63 64 66 67 68 68 68 69 69 69 69 69 69 68 67 67 67 67 66 65 65 64 64 64 64 64 65 64 64 64 63 62 59 59 63 66 67 66 66 66 67 66
59 62 63 66 67 67 67 67 67 67 67 68 68 68 67 67 67 66 66 66 66 65 65 64 64 64 63 63 63 63 63 63 61 59 60 62 66 66 66 65 66 66 66
57 60 61 63 65 65 65 65 65 65 66 66 66 66 66 66 66 66 66 65 65 64 64 63 62 62 61 61 61 61 61 61 59 57 57 60 65 64 64 64 65 65 66
55 58 59 61 62 63 63 64 64 64 64 64 64 64 64 65 65 65 65 65 64 64 63 62 61 61 61 61 61 61 61 60 54 55 58 61 64 62 62 63 62 63 64
52 56 58 58 60 61 62 63 64 64 64 63 63 63 63 63 64 64 64 64 63 63 62 61 60 60 59 59 60 60 61 57 52 52 58 62 62 60 61 61 61 62 63
52 56 57 58 60 61 59 62 62 63 63 63 62 62 62 62 63 62 62 62 62 62 62 62 61 61 60 56 55 59 57 55 53 50 57 61 60 57 57 58 60 62 63
51 55 59 58 57 57 57 61 62 62 63 63 62 60 61 59 60 60 61 60 60 61 60 61 60 59 57 55 54 55 54 52 50 50 55 59 59 55 55 56 58 60 62
52 55 58 58 56 55 55 56 57 58 59 60 61 59 58 58 58 57 60 60 60 60 60 60 58 57 56 54 54 54 53 51 50 49 53 56 56 54 54 55 57 59 61
52 55 57 57 57 54 53 56 55 56 58 57 59 59 57 56 56 56 55 55 54 53 52 52 51 51 51 51 52 53 52 49 48 47 49 54 54 54 52 52 55 58 60
50 55 57 57 57 54 55 53 55 55 57 56 58 57 57 57 55 55 54 53 53 52 52 51 50 50 50 51 51 50 50 48 46 45 46 48 53 54 54 53 53 56 58
48 54 57 59 55 52 53 53 53 57 51 53 55 54 55 54 54 54 53 53 53 54 52 52 51 52 52 52 51 51 50 49 47 45 43 47 49 54 55 56 55 55 56
47 52 57 59 59 57 54 53 51 52 52 50 51 54 53 53 52 52 53 52 53 53 52 52 52 51 51 51 50 50 50 48 47 45 43 44 46 48 52 55 57 57 55
51 52 57 59 60 63 60 57 52 51 49 50 52 52 52 52 52 51 50 51 51 52 52 52 52 51 51 51 50 49 49 49 48 46 45 44 45 46 44 52 55 55 55
53 53 55 55 57 58 58 55 54 51 50 50 49 49 48 50 50 50 49 49 50 49 49 49 48 48 49 50 48 49 50 50 50 49 47 44 45 44 44 44 51 50 54
50 49 47 46 52 51 50 47 47 46 46 47 48 47 47 48 49 48 48 47 47 47 46 46 47 47 46 48 46 46 47 48 48 49 49 48 46 47 44 44 46 47 48
49 47 47 45 46 46 46 46 46 47 46 46 49 49 49 48 48 46 46 45 45 46 46 46 45 44 45 45 45 44 41 42 44 45 47 47 48 49 48 47 46 45 43
46 44 44 45 45 47 47 48 48 48 47 45 45 46 44 45 44 43 43 44 43 45 45 44 44 45 44 44 45 44 41 40 41 43 43 46 47 49 49 51 51 45 42
46 45 45 44 44 46 46 46 45 45 44 45 44 43 43 44 43 42 41 42 43 44 43 45 45 44 43 41 43 40 41 42 38 36 41 40 41 43 43 46 49 51 51
46 45 45 45 45 45 45 45 45 44 44 43 43 43 43 43 42 41 40 42 44 45 44 43 43 43 43 41 40 39 38 36 37 35 33 35 37 39 41 43 45 48 49
46 46 45 44 43 44 44 45 44 43 43 43 43 43 43 42 41 41 43 44 43 43 43 42 42 42 40 40 39 38 38 36 35 35 35 34 34 37 37 40 42 46 46

GFSSE_sfc_dewp_036.txt.gz
Dewpoint
69 70 70 71 71 71 71 71 71 72 72 72 72 72 71 71 71 71 71 70 70 69 69 69 69 69 68 67 67 67 67 67 67 67 66 67 67 67 69 69 70 68 70
69 69 70 70 71 71 72 72 72 72 72 72 72 71 71 70 70 70 70 70 70 69 69 69 69 68 68 67 67 66 66 66 66 66 66 65 67 66 67 69 69 69 70
69 69 70 70 71 71 72 72 72 72 72 71 71 70 70 69 68 67 67 69 69 68 68 68 68 68 67 66 65 65 65 65 65 65 64 62 63 66 64 67 68 69 70
69 69 70 70 71 71 71 71 71 71 71 71 70 69 68 68 68 68 68 69 68 67 68 68 67 66 65 65 64 64 64 65 65 65 58 63 64 66 64 67 67 66 68
68 68 69 69 70 71 71 71 71 71 71 71 70 69 68 68 68 68 67 68 67 68 68 67 67 65 64 64 64 64 64 65 65 61 58 60 64 66 64 65 67 67 67
65 66 67 68 69 70 70 70 70 70 70 70 70 69 68 68 67 67 67 66 65 65 66 65 64 64 64 65 65 64 64 64 63 59 59 63 64 65 64 66 67 66 66
63 64 65 66 68 69 69 69 69 69 69 69 69 69 68 67 67 66 66 65 65 64 64 65 64 64 64 64 63 63 63 63 61 58 61 63 64 65 65 65 66 65 66
61 63 64 66 66 67 67 67 67 67 67 67 68 68 67 67 66 66 66 65 65 65 64 64 63 62 62 62 62 62 61 62 59 56 58 62 64 65 64 65 66 66 65
61 62 63 64 65 65 65 65 65 65 65 66 66 66 66 66 66 66 66 65 64 64 63 62 61 62 61 61 61 61 60 61 56 53 57 60 65 65 63 64 63 64 65
58 60 61 62 62 62 63 64 64 64 64 64 64 64 64 64 65 65 65 65 64 64 63 62 62 61 60 60 60 60 60 60 54 51 57 59 64 63 63 62 62 62 63
56 57 59 61 61 61 62 63 64 64 64 63 63 64 63 63 63 63 63 64 64 63 63 62 61 60 59 59 60 59 61 56 53 52 56 60 63 62 62 62 62 61 63
55 57 58 59 59 60 59 62 62 62 62 61 61 62 62 61 62 63 63 63 63 62 62 61 62 61 60 57 55 57 55 54 53 50 53 60 62 61 59 59 61 61 62
54 56 57 59 60 59 58 61 60 61 62 61 61 61 61 62 61 62 60 60 59 61 60 60 60 59 58 56 55 54 54 53 51 50 51 59 60 59 58 57 58 59 61
54 56 58 58 59 58 58 60 61 61 61 62 61 60 59 59 58 59 59 59 59 59 58 58 58 58 57 56 54 54 54 52 51 49 50 58 59 58 56 55 56 57 59
54 57 57 56 55 53 55 56 57 58 60 61 60 59 57 57 55 55 54 54 54 52 53 52 52 51 50 50 50 51 52 52 51 49 48 54 58 57 56 54 54 54 56
54 56 56 55 55 52 54 55 54 58 57 56 59 58 56 57 54 54 52 53 52 52 52 51 51 50 51 51 51 52 51 50 49 48 46 47 55 57 56 54 53 53 54
54 55 56 56 54 55 53 53 53 56 54 57 56 56 56 55 54 53 52 52 52 53 52 52 51 52 51 51 50 51 51 51 50 49 46 45 47 55 55 56 57 55 54
53 55 56 57 57 58 57 54 51 52 51 52 54 54 54 54 53 52 51 50 51 52 51 51 51 50 50 50 50 50 50 50 49 48 47 45 45 45 51 55 56 57 58
55 58 60 59 59 60 59 57 53 52 50 51 52 52 52 52 52 50 50 50 50 49 49 48 47 49 48 47 45 46 49 49 49 49 48 46 45 46 46 50 55 55 57
50 52 55 56 59 59 58 56 52 50 47 49 49 48 49 51 50 49 48 47 47 47 46 45 45 45 46 45 44 43 48 49 49 49 49 49 47 46 45 45 45 50 55
52 50 51 52 53 53 52 51 49 48 46 47 48 49 49 48 47 46 45 45 45 45 45 45 45 44 43 45 44 43 44 45 45 45 46 47 47 49 49 49 45 46 48
51 51 47 45 46 46 47 47 48 48 47 45 46 45 44 44 43 41 42 43 43 43 43 43 43 43 44 45 43 43 40 41 42 39 42 43 45 46 44 44 47 49 47
46 45 45 44 45 46 46 46 46 47 45 43 43 42 43 43 42 41 41 42 43 44 43 43 43 42 42 43 42 41 38 37 36 38 35 41 41 41 41 43 43 43 48
44 44 44 44 45 45 46 45 44 44 42 43 42 43 43 42 41 41 42 44 44 44 43 43 43 42 42 41 42 40 40 40 34 31 35 34 37 37 39 41 41 45 48
44 44 44 44 44 44 44 44 45 43 44 44 43 43 42 41 41 43 44 43 43 43 42 41 41 40 41 39 38 37 37 36 36 33 31 32 35 37 38 38 40 43 45
45 44 44 42 42 43 44 44 43 43 42 41 42 42 41 40 42 43 42 42 42 41 41 41 40 39 38 38 38 36 35 34 34 34 32 31 31 34 35 37 38 41 43

GFSSE_sfc_dewp_039.txt.gz
Dewpoint
68 69 70 71 71 71 71 71 71 71 72 72 71 71 71 71 71 71 71 70 69 69 69 70 69 68 68 67 67 66 65 65 66 65 65 66 66 66 69 70 70 68 69
69 69 70 71 71 71 71 71 71 72 72 71 71 71 71 70 70 69 70 70 70 69 69 68 68 68 67 66 66 65 65 65 66 66 65 64 66 65 66 69 69 69 69
68 69 69 70 71 71 72 72 72 72 71 70 69 69 69 68 67 67 68 68 69 68 68 68 67 67 66 66 65 65 65 65 65 65 63 61 62 64 63 67 69 68 68
69 69 69 70 71 71 71 71 71 71 70 70 69 69 68 68 68 68 68 69 68 68 67 67 66 65 65 64 64 64 64 64 64 63 58 62 63 66 64 66 67 67 67
68 69 69 70 70 71 71 71 71 71 71 70 70 68 68 68 68 67 67 67 68 66 66 66 65 64 63 64 64 64 63 63 63 60 58 60 63 64 62 65 66 66 67
66 67 68 68 69 70 70 71 70 70 70 70 70 69 68 68 67 66 66 65 65 65 64 64 64 63 64 64 64 63 63 63 61 57 60 60 63 64 64 66 66 66 66
64 66 67 68 69 70 70 70 70 70 69 70 69 69 67 66 66 66 65 65 64 64 64 64 63 63 63 63 62 62 62 62 58 54 58 62 63 65 64 66 66 66 66
63 63 64 67 68 68 69 69 68 68 68 68 68 68 66 66 66 65 65 65 64 64 63 62 62 62 62 62 62 61 61 61 56 52 55 61 63 65 62 65 65 65 65
62 61 62 63 65 65 65 65 66 66 66 66 66 66 66 66 65 66 65 64 64 63 62 61 61 61 61 61 60 60 60 61 53 51 55 60 63 64 62 62 64 64 65
60 61 60 61 62 61 62 64 64 64 64 64 64 64 64 64 64 65 64 65 64 63 62 61 61 61 60 60 60 60 60 58 53 51 53 57 62 63 63 63 62 62 63
57 59 59 60 60 60 60 62 64 64 64 63 63 64 62 62 62 62 63 64 64 63 62 62 61 61 60 60 59 59 59 54 53 51 51 58 61 62 62 62 62 62 62
55 56 59 59 59 60 60 61 61 61 61 61 61 61 61 60 61 62 63 63 63 62 62 62 62 62 61 57 56 57 54 53 53 50 49 57 60 61 61 60 60 60 61
53 55 57 58 59 59 59 61 60 61 61 60 60 60 60 61 61 61 60 59 59 60 59 59 59 59 58 57 56 55 54 53 52 51 50 56 60 60 59 59 59 59 60
54 55 57 58 59 58 59 59 59 60 61 60 61 61 60 59 59 59 59 58 57 58 57 57 57 57 55 55 54 53 53 53 53 52 51 55 59 59 57 57 57 57 59
53 55 57 58 59 59 58 59 59 59 60 61 61 61 58 57 56 57 57 55 53 52 51 51 51 50 50 50 51 50 50 51 51 51 50 54 56 59 57 56 56 56 56
53 55 57 57 58 55 56 56 57 58 60 60 60 59 57 56 55 54 53 53 52 52 52 51 51 51 51 51 50 51 51 51 51 50 49 48 53 56 57 56 55 56 55
54 56 56 55 53 55 54 53 54 57 56 56 58 58 56 56 54 53 52 52 52 52 51 50 49 48 48 48 48 49 50 50 50 50 49 48 48 51 55 56 55 58 57
55 55 56 56 56 59 58 55 52 52 51 52 55 54 54 54 53 52 50 50 50 49 48 47 47 46 46 46 45 46 46 47 49 48 49 48 46 46 48 52 54 56 58
57 58 59 60 61 61 59 57 55 49 51 50 51 52 51 52 51 50 48 48 47 47 46 46 45 45 44 43 44 43 43 46 47 48 48 48 48 47 47 49 51 53 54
54 55 57 59 60 59 57 55 52 48 48 48 48 48 48 48 48 47 45 45 46 46 45 44 44 43 43 44 44 43 44 45 46 46 44 45 47 48 47 47 48 48 50
53 54 55 55 55 53 52 51 49 48 49 48 43 45 44 44 43 43 43 43 43 42 42 43 43 42 42 44 43 41 43 42 43 39 41 43 46 43 41 41 41 43 46
52 52 50 49 47 49 47 47 48 46 44 44 43 43 43 42 41 40 41 42 43 43 43 43 43 43 43 43 41 40 38 37 39 35 38 39 40 42 39 38 40 39 42
47 44 44 44 45 45 46 46 46 46 44 42 42 41 42 41 41 41 42 43 43 43 43 42 41 40 40 41 40 39 34 33 34 35 33 37 37 37 38 38 37 40 44
44 44 44 45 45 45 45 44 43 42 41 42 42 42 41 41 41 43 43 43 43 42 41 41 42 40 40 39 39 39 38 37 32 32 33 34 35 35 37 38 38 41 44
44 43 44 44 44 44 44 44 43 43 43 43 44 43 41 41 43 43 43 42 41 41 41 40 39 39 39 38 37 36 35 35 34 33 30 30 32 35 36 36 37 39 42
45 43 41 41 42 44 44 43 43 42 42 41 42 41 41 40 42 41 41 40 40 40 39 39 38 37 37 37 37 35 35 32 32 33 32 31 32 32 34 35 35 38 39

GFSSE_sfc_dewp_042.txt.gz
Dewpoint
67 68 70 72 72 71 71 71 71 71 71 71 71 71 71 71 71 70 70 70 70 69 69 69 68 68 67 67 66 66 65 65 65 65 65 66 66 67 69 70 69 67 69
68 68 70 71 71 71 71 71 71 71 71 71 71 71 70 70 70 70 70 70 70 68 68 68 68 67 67 66 66 66 66 65 65 65 64 63 65 65 64 68 68 68 69
67 68 70 71 71 71 71 72 72 71 70 70 69 69 69 68 68 68 68 69 69 67 67 67 67 66 65 65 65 65 65 64 64 64 63 62 62 64 64 67 68 68 67
68 68 69 70 71 71 71 71 71 71 70 70 69 68 68 68 68 68 68 69 69 66 65 66 66 65 64 64 64 64 64 64 63 62 59 61 63 66 64 67 67 67 67
68 68 69 70 70 71 71 71 71 71 70 70 69 68 68 68 68 67 67 69 67 66 66 64 64 63 64 64 64 63 62 62 61 58 59 60 63 65 64 64 65 66 65
67 67 68 68 70 70 71 71 71 70 70 70 69 69 68 67 66 66 66 66 65 64 64 64 64 63 63 63 62 61 61 61 58 54 59 60 63 65 65 66 66 66 65
66 66 67 68 69 70 70 70 70 70 69 69 69 69 67 66 65 65 65 65 64 64 63 63 62 62 62 62 61 61 61 61 55 52 55 62 63 66 65 66 66 66 66
64 65 66 68 69 69 69 69 69 69 69 68 68 68 66 66 66 65 65 65 64 63 62 62 61 61 61 61 61 61 60 60 52 52 57 60 63 65 64 65 66 66 66
63 62 63 64 66 67 67 67 67 67 67 67 66 66 66 65 65 65 65 64 63 62 62 61 61 61 61 61 61 61 60 59 52 52 52 57 62 63 63 63 64 64 65
59 60 60 61 61 61 62 65 65 65 65 65 65 64 64 64 64 64 64 64 63 62 62 62 61 61 61 61 61 60 60 57 52 51 51 54 62 62 62 63 63 63 63
57 58 59 59 59 59 60 62 64 64 64 63 63 64 62 62 62 62 63 63 63 62 62 62 62 62 61 60 60 59 57 54 53 52 50 55 59 59 61 62 63 62 61
55 57 58 59 59 59 60 61 60 61 61 61 61 61 61 60 60 62 62 63 63 62 62 62 62 62 60 58 56 57 54 54 53 52 51 56 57 58 59 60 63 61 62
53 55 57 58 58 58 59 60 59 60 60 60 60 60 60 60 60 60 60 59 58 59 58 58 58 57 57 56 56 55 54 54 53 53 52 56 57 58 58 57 61 60 61
52 53 56 58 58 58 58 59 59 59 60 59 59 59 59 59 59 58 59 58 57 57 54 54 53 52 51 51 51 51 52 52 52 52 52 56 56 57 58 58 58 60 61
52 53 55 57 58 58 58 58 58 59 60 59 60 60 60 58 57 57 57 55 53 52 51 51 51 51 51 50 50 50 50 51 51 51 51 54 55 55 57 58 58 57 59
51 54 56 57 59 57 56 57 57 58 59 59 60 60 59 57 55 54 53 52 52 52 51 50 50 48 47 48 46 47 49 48 49 50 50 50 53 53 53 55 57 57 57
52 55 57 55 54 55 53 53 54 56 56 57 58 58 56 56 54 52 52 50 50 50 48 47 46 46 45 45 44 45 46 45 47 48 49 49 49 50 52 53 54 55 56
54 56 57 58 58 58 57 55 53 52 53 54 54 54 53 55 53 50 49 48 48 47 46 46 46 44 44 43 43 43 43 44 46 48 47 48 48 48 49 51 51 52 53
56 58 59 60 59 58 58 55 54 52 53 53 52 50 50 50 49 46 45 46 46 46 46 45 44 43 42 42 44 43 43 44 45 46 44 46 47 46 44 43 44 46 47
57 58 59 60 59 57 57 56 55 53 47 46 47 47 45 46 46 45 45 45 44 43 42 43 42 42 41 44 43 43 43 43 45 41 42 44 44 43 41 40 40 41 43
55 57 59 58 58 57 55 52 48 47 47 44 43 43 43 42 43 42 42 41 42 42 43 44 43 42 42 43 42 40 41 42 40 37 40 42 40 40 39 38 40 38 41
53 54 54 52 51 49 47 48 45 44 43 42 42 42 41 40 40 40 41 42 42 42 42 42 41 41 41 42 39 38 35 35 37 36 36 38 37 38 37 37 38 39 42
47 44 44 45 45 46 46 46 45 44 43 41 41 41 41 41 41 41 42 42 42 42 41 40 40 39 38 39 40 38 34 32 35 35 35 36 36 37 37 38 37 38 42
43 44 44 44 44 44 44 42 41 41 40 42 42 41 40 41 42 43 43 42 41 41 39 39 40 39 38 37 38 39 37 37 33 32 33 34 34 34 36 37 37 39 42
44 43 44 44 44 44 44 44 43 42 43 43 43 42 41 41 43 42 41 40 39 40 40 39 39 38 38 37 37 37 35 34 34 34 30 28 33 35 35 36 37 38 40
43 42 42 42 43 44 43 43 42 42 41 40 41 41 40 40 41 41 40 39 39 39 38 38 37 37 36 36 37 36 35 32 31 33 31 32 32 33 35 36 36 36 37

GFSSE_sfc_dewp_048.txt.gz
Dewpoint
62 67 71 71 72 71 71 71 71 72 72 72 72 72 71 71 71 71 71 71 70 68 68 68 68 67 67 66 66 66 65 65 65 65 66 66 65 65 66 67 68 59 68
63 67 71 71 71 71 71 71 72 72 72 71 71 71 71 71 71 70 70 70 69 68 68 67 66 66 65 65 64 64 64 64 64 64 64 65 66 65 65 67 68 64 68
64 66 68 71 71 71 71 71 72 71 71 70 70 70 70 69 69 69 69 69 67 67 66 65 64 64 64 64 63 62 62 62 62 63 64 58 61 66 65 67 68 67 67
64 65 67 70 71 71 71 71 71 71 70 70 69 68 68 68 68 68 69 68 67 66 64 63 64 64 63 61 60 60 60 60 60 62 57 57 58 66 65 65 66 66 66
65 66 68 70 71 71 71 71 71 71 70 70 69 68 68 68 68 69 68 68 65 64 63 63 62 61 61 61 61 61 61 60 60 58 55 60 59 64 66 65 64 65 66
65 66 69 69 70 71 71 71 71 70 70 70 70 69 68 66 66 66 67 66 64 62 62 61 61 60 61 61 61 61 61 60 61 51 54 60 61 65 65 65 65 65 66
63 66 69 68 70 71 71 71 70 70 69 70 70 68 66 65 65 65 65 64 63 62 61 60 59 60 60 61 61 61 61 61 49 49 51 55 61 64 64 64 64 64 64
64 65 67 69 70 70 70 70 69 69 69 69 68 68 66 65 65 65 64 63 62 62 61 61 60 61 61 61 61 61 60 60 49 47 47 50 61 61 61 63 64 64 62
64 64 65 67 68 69 68 68 68 68 68 67 67 67 66 66 66 65 64 63 62 62 61 61 61 61 61 61 60 60 59 59 49 46 43 45 60 60 58 60 62 64 62
64 63 63 63 63 64 66 67 67 67 66 66 65 64 64 64 64 64 64 63 62 62 62 62 62 62 61 60 60 59 58 59 49 47 45 51 60 60 59 59 59 61 62
62 63 61 59 61 61 60 63 65 65 65 64 63 64 62 59 60 60 62 62 62 62 62 62 61 60 61 60 59 59 59 49 49 48 47 59 59 60 60 60 62 62 63
59 56 57 59 59 58 53 59 60 58 56 59 59 61 60 62 62 60 62 61 61 60 60 59 59 59 59 51 51 55 49 52 49 49 48 58 58 59 59 60 60 62 63
51 51 55 59 60 58 57 56 54 55 57 61 62 63 63 62 63 62 63 61 61 59 55 55 55 53 55 53 52 53 51 50 48 47 50 56 55 57 58 59 59 60 61
47 51 55 57 59 60 56 55 57 57 59 60 61 64 64 66 65 63 61 62 61 57 56 56 55 57 56 53 51 50 50 48 45 44 48 54 54 56 57 58 59 59 59
46 52 55 58 58 59 60 59 61 62 61 62 62 63 63 64 64 62 61 59 58 56 55 55 54 52 52 50 49 48 47 46 46 43 43 54 53 54 55 56 57 58 58
46 52 57 58 60 59 60 61 61 62 61 62 62 64 65 65 63 61 59 57 56 54 52 52 51 49 48 48 46 47 47 46 45 46 43 44 53 52 51 52 52 53 54
47 52 57 59 60 60 59 58 57 56 57 57 60 62 63 63 62 61 59 55 52 52 52 51 49 48 45 44 44 44 44 45 43 44 44 43 45 49 46 47 48 48 49
47 54 57 59 60 60 60 58 57 57 58 59 59 60 60 60 58 55 53 52 51 48 47 46 45 44 43 43 43 42 41 41 41 40 41 43 41 39 44 43 44 44 46
51 55 59 61 61 61 58 59 59 59 59 56 54 53 53 52 52 50 49 48 48 47 46 45 44 44 42 40 38 34 34 35 33 29 39 42 43 41 40 43 40 41 41
57 59 60 61 60 59 60 59 59 56 50 50 48 48 49 48 48 47 47 48 46 45 45 44 43 41 39 37 33 30 35 34 33 37 39 38 39 40 38 39 37 35 38
59 60 61 61 60 61 59 56 52 49 47 47 45 47 47 46 46 48 46 46 46 45 44 43 40 38 35 37 36 31 31 34 42 39 38 36 37 36 37 35 34 34 35
59 59 60 59 59 59 57 52 49 48 45 44 45 47 47 47 47 46 47 46 44 40 41 41 40 36 34 35 36 35 27 27 29 37 37 36 38 36 34 34 36 35 35
59 59 57 58 58 55 51 49 48 48 46 44 45 44 46 46 46 47 46 44 42 39 36 39 38 38 34 34 36 35 31 27 31 30 32 32 35 33 34 34 35 35 35
53 53 52 53 52 51 51 47 46 43 42 45 47 46 45 47 46 44 42 41 41 40 39 37 34 39 36 33 32 31 35 34 32 28 29 28 29 28 32 32 33 34 34
49 49 49 47 47 48 48 47 47 46 46 46 46 45 45 44 43 40 40 41 40 38 39 40 39 38 36 34 32 32 33 32 32 30 29 27 27 28 28 29 31 32 33
50 50 49 47 46 47 48 48 48 46 42 40 39 37 36 36 36 38 38 40 41 40 40 39 39 39 38 37 34 35 34 33 32 32 34 33 30 28 28 28 33 33 33

GFSSE_sfc_dewp_054.txt.gz
Dewpoint
63 67 71 72 72 72 72 72 72 72 72 72 72 72 72 71 71 71 71 70 69 68 68 66 65 64 64 64 63 63 63 63 64 65 66 67 66 66 66 68 66 64 70
64 66 71 71 72 72 72 72 72 72 71 71 71 71 71 71 71 70 70 69 68 66 65 65 64 64 61 60 61 61 61 63 64 65 67 68 67 66 66 68 68 67 69
64 66 68 71 71 71 72 72 71 71 71 71 71 71 71 70 70 69 69 68 66 65 64 64 62 60 60 61 61 61 62 64 64 65 67 64 63 67 67 68 67 67 66
64 63 67 71 71 71 71 71 71 71 71 70 70 70 69 69 69 68 67 67 66 64 62 60 60 61 61 62 62 62 63 64 64 65 60 62 60 66 65 67 66 63 64
63 65 69 70 71 71 71 71 71 71 70 70 70 69 69 69 68 66 67 66 65 62 60 60 61 61 62 63 63 63 63 63 63 60 61 61 61 64 65 64 63 64 65
67 68 69 69 70 71 71 71 70 70 70 70 69 68 67 67 66 66 66 65 62 61 60 61 61 62 63 63 63 63 62 62 61 59 59 61 61 65 65 65 66 65 65
68 68 69 68 69 71 71 70 70 70 70 69 68 67 66 66 65 65 65 64 63 61 61 61 61 62 63 63 63 62 62 61 55 47 52 56 59 62 61 62 66 66 65
67 68 68 69 69 70 70 69 69 69 69 68 67 67 66 66 65 65 65 64 63 62 62 62 62 62 62 62 62 61 61 62 54 46 50 56 63 61 60 60 64 64 64
68 67 67 68 69 68 68 68 68 68 68 67 67 66 66 66 65 65 64 64 63 63 62 62 62 62 62 61 60 59 60 61 57 49 48 55 63 61 60 61 62 63 63
67 66 66 67 67 67 67 67 67 66 66 65 65 64 64 64 64 64 64 64 63 63 62 61 63 62 62 61 60 59 60 61 54 49 53 59 62 60 60 61 61 61 64
65 65 65 65 66 65 66 66 66 65 65 64 63 63 62 59 61 62 62 63 63 62 62 62 62 62 61 61 61 61 61 52 50 51 54 61 60 58 58 59 60 61 62
61 60 61 62 63 63 58 64 63 61 60 60 60 61 61 63 62 60 61 63 63 63 63 63 62 61 61 56 58 59 54 53 51 50 55 59 57 55 55 55 57 59 60
60 58 59 62 61 59 58 60 58 58 61 62 63 63 63 63 64 63 64 64 63 63 61 61 59 58 57 57 55 55 53 52 51 49 55 57 55 53 53 54 56 58 59
52 54 57 60 61 60 58 59 58 58 62 63 64 63 65 65 65 64 63 63 62 60 58 58 58 57 56 54 54 53 52 52 50 50 52 55 55 52 52 53 54 54 55
51 54 57 59 61 60 61 63 63 64 64 65 66 66 66 65 63 63 64 62 61 59 57 55 55 54 53 52 53 52 50 49 50 49 50 55 55 52 51 52 52 52 52
50 55 56 58 62 62 63 64 62 61 59 60 62 63 64 64 64 63 62 62 59 57 56 54 55 52 51 51 50 51 50 50 48 48 46 49 55 53 51 50 50 49 49
53 56 57 59 61 61 60 60 58 58 58 58 60 62 62 62 62 59 57 55 54 54 52 51 50 51 49 47 45 43 43 43 40 41 41 42 46 53 50 47 44 44 44
54 56 56 57 61 61 60 58 58 59 59 60 58 59 59 59 57 57 55 54 53 51 50 50 49 46 45 44 42 40 41 40 37 38 40 39 41 45 48 45 42 43 43
55 57 60 61 61 60 60 60 59 60 60 59 57 56 56 55 54 53 53 52 52 50 51 48 47 46 42 40 36 35 40 38 39 35 37 40 42 42 41 48 48 46 41
56 59 62 61 60 59 60 60 59 60 58 57 55 53 53 52 52 52 52 50 50 48 48 47 45 43 42 40 34 34 38 40 37 37 36 39 40 41 39 38 39 38 45
57 61 62 60 59 60 59 58 55 55 54 52 51 51 51 50 50 51 51 50 49 47 46 43 42 41 40 40 37 34 35 34 34 34 36 34 35 37 39 38 38 36 35
60 61 61 60 59 59 59 58 56 54 52 50 51 51 51 50 49 48 49 47 47 45 43 43 42 41 39 40 35 35 31 31 33 32 35 34 36 34 32 31 34 34 34
61 61 59 59 59 59 57 54 54 53 51 49 50 50 50 49 48 47 47 46 44 43 42 42 41 40 38 38 38 34 30 28 31 33 33 35 35 34 35 33 31 32 33
58 60 59 59 58 56 53 52 51 47 47 49 50 50 49 50 46 45 43 43 43 43 42 42 39 40 39 37 37 36 36 35 32 31 33 34 35 32 33 34 34 33 33
59 59 57 54 52 52 51 51 51 50 51 50 49 48 47 47 46 44 42 43 42 43 43 43 43 42 40 38 36 36 35 36 35 34 32 32 33 33 31 32 32 30 29
56 56 56 51 49 51 51 52 50 51 48 47 46 44 44 42 41 40 39 42 43 42 42 42 40 41 41 40 39 38 37 36 35 35 33 31 31 30 30 29 29 30 31

GFSSE_sfc_dewp_057.txt.gz
Dewpoint
67 70 71 72 72 72 72 72 72 72 72 72 72 72 72 71 71 70 70 69 69 66 65 65 64 62 61 61 61 61 62 63 66 67 68 67 67 66 66 68 67 66 68
68 70 71 72 72 72 72 72 72 71 72 72 72 71 71 71 70 70 69 68 67 65 65 63 61 60 60 60 61 62 63 65 65 66 67 67 68 66 65 67 68 66 67
68 70 70 71 71 71 72 72 72 71 72 71 71 71 70 70 69 68 68 67 66 63 61 60 61 61 61 62 62 62 63 65 65 64 66 64 63 67 65 66 65 66 65
67 69 70 70 71 71 71 71 71 71 71 70 70 70 70 69 67 66 66 66 65 61 61 61 62 61 61 62 62 63 64 63 64 64 62 62 61 65 64 64 63 62 62
66 68 70 70 70 71 71 71 70 70 70 70 70 70 69 67 66 65 66 65 63 61 61 62 62 61 62 63 63 63 63 63 65 63 63 61 62 64 65 65 64 63 64
67 69 69 69 70 71 71 70 70 70 70 69 69 69 67 66 65 65 65 64 61 61 62 62 61 61 63 63 63 63 63 63 60 57 57 60 59 62 63 64 66 65 65
67 68 68 68 70 70 70 70 70 69 69 68 68 67 67 65 64 64 65 64 63 62 61 62 62 62 63 62 61 61 61 61 51 53 57 59 60 61 61 61 63 65 65
66 67 66 69 69 69 69 69 69 68 67 67 67 67 66 66 65 65 65 64 64 63 62 62 63 62 61 61 61 60 60 60 53 51 56 59 63 61 61 61 64 64 64
67 67 68 67 67 67 67 67 67 67 66 66 66 66 65 65 65 65 65 64 64 63 63 63 62 61 61 60 60 60 60 60 51 49 53 59 64 61 61 61 61 62 63
66 67 66 67 67 66 66 66 66 65 65 64 64 64 64 63 63 64 63 63 63 63 63 62 62 61 61 61 61 61 61 58 50 53 56 60 62 59 59 59 60 61 61
64 66 66 66 66 66 66 65 65 65 64 63 63 63 62 61 61 62 62 63 63 63 62 62 61 61 60 60 61 62 60 52 50 54 56 60 60 56 56 57 58 59 60
62 65 65 65 65 64 63 63 63 62 61 60 60 61 59 60 60 61 61 62 63 63 62 62 62 61 60 56 55 58 53 51 50 52 55 58 58 54 54 56 57 58 58
61 62 63 63 63 58 61 62 60 59 59 60 59 59 61 62 62 63 62 63 62 63 61 61 59 57 55 54 53 52 51 51 50 50 54 57 55 53 53 54 55 55 55
60 58 57 58 56 56 60 59 57 57 61 63 64 63 62 62 62 61 61 62 61 59 56 56 55 53 52 51 51 50 51 49 49 50 51 54 56 52 53 54 54 53 53
56 55 56 56 55 56 60 62 62 62 63 63 63 65 63 62 61 62 61 57 56 56 54 53 53 49 50 50 49 48 48 48 48 48 47 55 56 54 53 53 52 50 49
54 55 56 57 57 62 60 58 58 58 59 60 61 63 63 62 60 60 58 57 56 54 50 50 48 49 48 47 45 43 42 43 38 38 40 43 55 54 51 49 47 46 46
54 54 56 58 61 60 58 57 57 56 57 59 60 60 60 59 57 55 54 52 51 49 49 49 46 45 44 42 41 40 41 39 38 37 38 40 53 53 51 46 43 43 44
54 54 56 59 58 58 57 58 58 58 58 57 58 57 56 55 54 53 50 49 50 49 49 47 45 43 41 40 38 37 39 37 37 38 36 37 42 48 50 49 45 43 42
54 55 59 59 59 58 58 57 58 58 57 56 55 54 53 52 52 51 50 49 50 49 47 45 44 42 40 39 35 35 36 36 37 36 35 36 40 44 43 49 49 47 42
57 60 60 59 58 58 58 57 57 57 56 55 52 52 51 51 51 51 49 48 47 45 45 44 41 40 39 39 35 34 34 35 35 35 35 33 33 33 39 37 39 40 45
60 60 59 57 58 58 57 56 56 54 54 52 51 51 50 49 49 49 48 47 45 43 42 41 40 38 38 39 35 33 34 34 31 33 35 35 34 32 33 33 34 34 35
60 60 58 57 58 58 57 57 54 53 51 49 49 49 49 48 48 48 46 44 42 40 41 40 39 38 37 38 34 35 31 31 33 33 34 35 35 35 34 31 33 33 34
60 59 58 58 58 58 58 58 53 51 49 48 48 47 47 48 46 45 43 43 41 40 39 38 38 37 36 37 36 33 32 30 32 33 33 35 34 34 34 33 32 33 33
60 60 59 59 58 59 59 53 51 46 45 46 48 48 47 47 45 43 41 40 40 41 39 40 39 38 38 36 36 36 34 34 32 31 34 34 34 33 33 32 33 31 30
59 59 58 58 58 56 51 50 47 47 48 49 49 48 48 47 45 43 41 39 40 41 41 41 41 38 38 36 36 35 35 35 34 33 31 32 33 32 32 32 30 30 30
57 58 58 54 49 48 49 49 48 47 45 43 42 42 42 40 40 40 40 40 39 38 38 39 39 39 39 39 38 37 37 36 35 34 32 31 31 31 31 29 28 30 29

GFSSE_sfc_dewp_063.txt.gz
Dewpoint
69 71 71 72 71 71 71 71 71 71 71 71 71 71 70 69 68 68 67 67 65 61 61 61 61 61 62 62 63 65 67 68 68 67 67 65 64 65 64 65 66 64 66
70 71 71 71 71 71 71 71 71 71 71 70 70 70 69 68 68 67 66 65 64 61 62 62 61 60 60 62 64 63 66 67 67 67 67 65 64 63 63 64 65 62 64
69 70 71 71 71 71 71 71 71 71 69 69 69 68 67 66 66 65 65 64 63 62 61 60 60 60 62 64 65 65 64 67 67 67 65 63 62 64 63 63 64 62 62
69 69 70 70 70 70 70 71 71 70 69 69 68 67 66 65 64 63 63 65 64 61 60 60 59 61 62 64 67 66 65 66 66 65 63 62 61 63 62 62 62 62 62
69 69 70 69 69 70 70 70 70 70 70 69 68 66 65 64 63 62 64 65 64 61 60 60 60 60 62 64 66 66 66 66 65 63 61 60 59 59 61 62 61 62 61
69 69 68 68 69 70 70 70 70 70 69 69 67 67 65 63 62 62 65 65 63 61 60 60 60 61 63 62 63 64 64 62 60 58 58 60 58 61 61 62 62 62 63
69 69 68 68 69 70 70 70 70 69 69 68 67 66 65 64 63 64 65 65 64 62 61 61 61 63 63 62 62 62 61 61 56 58 58 59 60 62 61 62 62 63 63
66 66 66 67 67 67 68 69 68 68 68 67 67 66 65 65 64 65 65 65 64 63 63 62 63 63 63 62 62 61 59 58 56 58 59 60 63 61 60 61 61 62 62
65 65 66 66 66 66 67 67 66 67 67 67 66 65 65 65 64 65 65 64 64 63 63 62 62 62 63 63 61 60 58 57 53 56 58 59 63 59 58 58 60 60 60
64 65 65 65 65 66 65 65 65 65 65 65 65 64 64 64 64 64 64 64 63 63 63 63 62 62 61 62 60 58 58 57 54 55 57 58 60 56 57 58 58 58 58
64 64 64 64 65 65 65 64 64 65 64 64 63 63 61 60 60 60 62 63 63 63 63 63 62 61 58 59 59 57 55 52 52 53 54 58 58 55 56 58 57 57 56
62 60 60 63 65 65 63 63 62 62 61 61 60 59 59 59 60 61 61 62 63 63 63 61 59 57 54 50 49 52 50 49 49 50 52 56 56 52 55 56 56 56 55
61 61 62 63 64 63 62 61 60 59 59 59 59 58 59 60 62 61 61 61 60 58 53 52 50 49 47 46 45 44 43 42 43 43 47 56 54 51 53 55 55 54 53
60 60 62 63 63 62 61 59 58 57 58 59 59 60 61 60 60 59 57 56 55 53 51 50 49 46 44 42 42 40 39 38 38 39 42 54 54 51 52 53 53 51 50
58 60 62 63 60 60 59 57 58 60 61 62 62 62 61 59 58 57 55 53 51 50 48 46 44 42 41 39 40 38 37 37 37 38 39 46 54 52 49 50 49 48 48
57 60 59 60 57 59 59 60 61 62 62 62 61 61 61 59 56 55 53 52 51 48 46 44 42 40 39 38 37 37 36 36 35 35 37 40 49 55 51 48 46 46 45
58 57 57 56 60 59 59 59 59 60 61 60 60 59 58 56 54 52 51 49 48 46 45 42 40 39 38 37 35 34 35 36 35 35 34 40 48 52 52 46 43 44 42
57 55 55 59 58 58 57 57 58 58 58 58 58 56 55 54 51 49 49 49 48 46 44 42 40 38 38 37 34 33 33 34 34 34 34 33 40 44 43 46 44 41 39
55 54 58 58 57 56 56 56 56 56 56 56 55 54 52 50 49 49 49 48 46 45 44 41 40 38 36 35 34 32 33 33 34 34 34 33 34 34 34 40 43 44 40
54 55 59 58 57 56 56 55 55 54 54 53 52 51 51 51 50 48 47 47 44 43 41 39 37 38 37 35 33 32 34 33 34 34 34 34 33 33 33 33 34 39 43
53 57 58 57 56 56 55 54 53 52 52 50 50 50 50 50 49 47 45 43 42 41 39 38 38 36 36 36 33 34 33 33 33 33 35 34 33 33 33 33 34 33 33
56 57 57 57 56 56 55 55 55 53 52 50 50 49 49 48 47 45 43 42 40 41 39 38 37 37 37 37 34 33 31 32 33 33 33 34 33 33 33 32 32 31 30
56 57 57 57 56 56 56 54 52 51 49 49 48 47 47 48 46 45 43 42 40 40 38 37 37 36 35 36 36 34 31 30 32 33 33 34 33 33 33 32 32 28 28
56 57 57 57 57 57 56 55 53 49 47 48 47 47 47 47 46 44 42 41 40 40 39 39 39 37 37 36 36 36 35 33 31 31 33 33 34 33 33 33 32 28 29
57 57 57 57 57 57 57 56 52 48 47 47 47 46 47 45 44 42 40 40 40 40 38 37 37 37 38 36 35 35 34 34 33 32 29 31 33 34 33 33 31 29 28
58 57 57 57 57 57 57 55 52 48 47 47 47 46 43 42 42 40 39 39 39 39 37 36 35 35 36 37 37 37 36 34 33 32 30 31 31 33 33 32 30 28 28

GFSSE_sfc_dewp_066.txt.gz
Dewpoint
69 70 71 71 71 70 70 70 70 70 70 71 71 70 70 69 68 68 66 65 64 62 61 61 62 62 64 66 67 67 68 68 67 67 65 64 64 64 64 64 63 60 64
68 70 70 70 71 70 70 70 70 70 70 70 70 69 69 68 67 65 65 64 64 62 61 61 62 63 64 64 67 68 68 68 68 67 66 65 64 63 63 63 64 60 62
70 70 70 70 70 70 70 71 70 70 70 69 68 68 67 66 65 65 65 65 64 61 60 61 63 66 66 66 65 68 68 67 67 66 65 62 61 62 62 62 63 62 62
69 69 70 70 70 70 70 70 70 70 70 69 68 66 66 64 64 64 64 65 64 62 61 62 63 66 66 67 66 67 67 66 66 64 62 61 58 61 61 61 61 61 61
69 68 69 69 69 70 70 70 70 70 69 68 68 66 66 64 63 63 65 64 63 63 61 61 63 65 66 66 67 67 66 65 64 61 60 58 58 60 62 62 62 62 62
68 69 68 68 69 70 70 70 70 70 69 68 67 67 65 63 63 64 65 64 64 62 60 61 61 62 64 65 66 65 64 62 60 58 59 61 59 61 61 62 62 63 63
68 68 68 68 69 70 70 70 70 69 68 68 67 66 65 64 63 65 65 65 64 63 61 61 61 63 63 63 63 63 62 61 58 59 59 60 61 61 61 61 62 61 61
67 67 67 67 68 67 66 67 69 68 68 67 67 66 65 65 65 65 65 64 64 64 64 63 64 63 62 63 62 61 60 60 58 59 59 60 62 60 60 60 61 60 60
65 65 66 66 66 66 66 67 67 67 67 67 66 66 65 65 65 65 64 64 64 63 63 64 63 63 62 62 61 60 59 59 56 57 58 59 62 58 58 59 59 58 58
64 65 65 65 65 65 65 66 66 66 66 65 65 64 64 64 64 64 63 64 64 64 64 63 62 63 61 60 60 60 59 57 54 55 57 57 61 57 58 58 57 57 56
64 64 65 65 64 65 65 65 65 65 65 64 63 63 61 60 59 60 63 63 64 64 63 61 60 58 57 58 58 57 53 50 51 52 53 58 58 56 57 57 57 56 55
60 61 62 63 62 64 63 62 62 62 61 61 60 59 59 59 60 60 62 63 63 61 60 58 56 54 49 46 45 46 43 43 43 44 52 57 55 52 56 56 55 54 54
59 60 61 62 63 62 62 61 60 59 59 59 58 59 59 61 60 61 61 60 56 54 50 48 45 44 43 43 41 41 40 40 40 40 48 55 54 50 54 55 54 53 52
58 59 59 59 62 62 61 59 58 58 58 58 59 60 61 61 59 57 57 55 52 50 48 46 44 43 41 41 40 39 38 38 38 39 40 50 53 52 52 54 52 50 50
57 58 56 57 61 61 59 57 57 58 59 60 60 61 60 59 56 55 53 51 49 47 44 43 41 40 39 38 38 37 37 37 36 38 40 47 51 54 48 50 50 48 48
55 57 59 61 60 59 57 57 58 60 61 61 61 60 60 57 55 53 52 50 49 45 43 41 39 38 37 37 36 37 37 36 35 36 38 45 54 53 51 48 46 46 45
55 59 59 60 58 59 58 59 60 60 61 60 60 60 58 56 53 50 49 47 46 44 42 40 39 39 37 36 34 35 36 35 35 35 35 42 47 47 49 48 44 43 41
55 57 57 59 59 58 58 58 59 59 59 58 58 57 56 53 50 49 48 48 47 45 43 41 39 37 37 35 33 34 34 35 35 35 34 35 38 36 41 48 47 44 39
56 55 56 59 57 57 56 56 57 57 57 56 56 54 52 50 50 50 49 47 46 45 43 41 40 37 35 35 34 34 35 34 35 33 35 35 36 35 35 40 44 46 43
56 55 58 57 56 55 55 55 54 54 54 54 53 51 49 49 49 49 47 46 45 43 40 39 38 38 37 36 34 34 35 34 35 35 35 34 35 35 34 35 35 35 41
54 57 57 56 55 55 55 53 52 52 52 52 50 50 50 49 48 47 45 43 42 40 38 38 38 36 37 36 34 35 34 34 34 34 35 35 35 35 35 34 35 34 32
53 56 57 56 55 55 54 54 53 52 52 50 50 50 50 49 48 45 43 41 41 39 39 38 37 37 37 37 34 33 32 33 33 34 34 35 34 34 34 34 34 32 30
54 56 57 56 56 55 55 55 53 53 50 49 49 48 48 48 47 44 43 41 40 39 38 37 37 37 35 36 36 34 31 29 32 34 34 34 35 35 35 34 34 33 30
54 56 57 57 56 56 55 54 53 52 49 49 48 47 47 47 46 44 42 41 40 40 39 39 39 37 37 35 37 36 35 34 32 31 33 34 35 35 35 34 34 33 31
55 55 56 56 56 56 56 55 55 53 49 48 47 46 46 44 43 42 41 41 41 41 39 38 38 37 37 36 35 35 35 34 33 32 30 32 34 35 35 35 35 33 30
55 55 55 56 57 57 56 56 55 52 48 47 46 46 44 43 41 41 41 41 39 39 38 35 35 34 35 36 37 36 35 34 33 32 31 31 31 33 34 35 33 30 29

GFSSE_sfc_dewp_069.txt.gz
Dewpoint
67 67 70 71 71 70 70 70 70 70 71 71 70 70 70 69 68 67 66 65 65 63 63 64 66 68 68 67 67 68 69 68 67 66 65 63 63 63 63 63 62 56 62
68 66 70 71 70 70 70 70 70 71 71 71 70 70 69 68 67 66 65 65 64 63 63 63 64 66 68 67 67 68 68 68 67 66 66 64 62 62 62 63 64 60 62
68 67 68 70 70 70 70 70 71 71 70 69 68 69 68 67 66 66 66 65 64 63 64 66 66 65 67 67 68 68 67 67 67 66 64 53 56 61 61 62 63 61 61
68 66 67 70 70 70 70 70 70 70 69 69 68 68 67 66 66 66 65 64 64 64 65 67 67 67 66 68 68 67 66 65 65 63 55 53 54 62 62 62 62 62 61
68 66 67 69 69 70 70 70 70 70 69 68 68 66 66 66 66 65 65 64 65 63 65 66 66 67 67 68 67 67 65 64 63 58 55 56 55 60 62 62 61 62 62
68 67 68 68 69 70 70 70 70 69 68 67 67 66 66 66 65 65 65 64 64 63 63 65 65 66 67 66 66 65 63 62 61 55 56 59 57 61 61 62 61 61 62
68 68 68 68 69 70 70 70 69 68 68 67 66 65 65 66 66 66 64 64 64 64 62 63 64 65 65 64 64 63 63 62 55 55 55 56 58 61 61 61 60 60 60
68 69 68 68 68 69 69 69 68 68 67 66 66 66 66 66 66 65 65 64 64 64 64 64 64 64 63 63 63 62 62 60 55 55 55 54 61 60 60 60 59 58 57
68 67 66 67 66 66 67 67 67 67 66 66 66 66 66 65 65 64 64 64 64 64 64 64 63 63 63 62 61 61 61 60 55 55 54 54 61 59 59 58 57 57 56
66 66 65 66 65 65 65 66 66 66 65 65 65 64 64 64 64 64 64 64 64 64 64 63 62 62 61 61 59 59 57 57 53 53 52 53 61 58 58 58 57 56 55
64 64 64 63 62 62 63 64 66 65 64 64 63 63 61 60 59 60 63 64 64 63 62 59 57 57 57 56 54 53 52 49 51 51 49 59 57 57 58 57 55 55 54
62 62 63 62 62 62 64 64 64 62 61 61 60 60 59 61 61 60 62 63 61 60 58 56 53 53 49 43 42 46 41 42 42 43 45 58 55 54 57 56 55 54 53
60 61 60 60 62 63 63 62 61 60 60 61 60 59 61 61 62 63 63 59 55 53 47 47 46 43 45 42 41 42 41 40 39 37 43 53 54 53 55 55 53 52 51
59 58 59 61 62 63 62 60 59 59 59 58 60 62 63 62 63 61 58 56 53 49 48 46 45 46 44 43 42 41 41 37 37 37 39 50 53 55 54 54 52 51 50
57 58 59 60 61 62 60 59 59 59 59 60 61 63 64 62 60 57 56 53 51 47 45 44 43 41 41 40 40 39 38 39 40 39 42 55 55 53 49 52 50 49 48
55 55 56 59 60 61 59 59 58 59 59 60 61 62 62 60 58 56 54 51 48 45 43 42 41 38 37 38 38 39 38 36 37 43 45 49 52 52 51 49 47 46 46
54 52 53 56 61 61 59 58 59 60 62 62 62 62 61 59 57 55 51 48 45 45 46 43 41 40 37 35 38 37 36 38 36 37 39 45 45 49 50 48 46 43 42
55 53 54 58 61 61 59 58 59 61 63 63 63 62 60 58 55 52 49 48 48 46 43 42 40 39 38 36 38 36 36 36 36 36 35 36 36 36 42 47 47 46 43
56 57 59 61 61 61 60 61 62 63 62 62 62 59 57 55 54 51 49 49 48 45 45 42 41 40 38 37 35 38 38 36 37 33 35 36 37 35 34 36 41 43 44
56 57 59 60 60 59 60 61 61 61 61 60 59 58 55 52 53 51 49 49 47 44 43 42 42 41 40 40 33 36 39 37 38 38 37 34 36 38 36 36 35 34 39
57 57 59 59 59 58 58 59 59 59 58 58 57 53 52 51 52 52 48 48 46 44 43 44 42 42 41 42 38 38 37 37 38 37 38 37 36 36 37 36 34 33 31
56 57 59 58 58 58 57 57 57 57 56 56 53 52 51 51 51 50 48 46 46 43 44 44 43 41 41 41 39 37 32 32 35 36 37 37 39 37 35 36 37 35 34
57 57 58 58 58 58 58 56 55 55 53 52 52 50 50 50 49 48 47 46 45 44 42 44 43 42 39 41 41 36 29 25 31 36 38 37 39 37 37 36 37 35 35
56 58 58 58 58 57 57 57 55 54 52 52 50 50 50 51 49 47 46 46 45 44 44 44 43 42 41 38 40 38 40 37 26 25 35 36 37 37 38 37 35 36 37
57 57 59 58 57 57 57 57 56 55 55 53 50 50 50 49 48 46 46 46 45 44 45 44 44 43 41 36 34 35 37 36 38 34 28 30 34 35 36 35 35 35 35
57 58 59 58 57 57 57 57 56 55 54 51 49 49 48 47 46 46 43 45 44 43 42 42 41 40 38 38 37 37 34 32 31 34 33 30 30 33 35 35 34 33 33

GFSSE_sfc_dewp_072.txt.gz
Dewpoint
65 64 70 71 71 71 71 71 71 71 71 71 71 70 69 68 68 67 67 67 66 66 66 68 69 68 67 68 68 68 68 68 67 66 64 63 62 63 63 65 62 55 62
66 64 70 71 71 71 71 71 71 71 71 71 70 70 68 67 67 66 66 66 66 65 66 68 68 68 67 67 68 67 67 67 66 66 64 63 62 61 62 62 64 59 62
65 63 67 70 70 71 71 71 71 71 71 70 69 68 67 67 66 66 66 66 66 65 65 67 68 67 67 67 67 67 66 66 66 64 63 52 57 62 63 63 64 62 62
64 62 64 70 70 70 70 71 71 70 70 69 68 67 67 67 67 66 66 66 67 67 67 66 67 67 67 68 68 66 65 64 64 63 51 52 54 62 62 62 62 62 62
64 61 64 69 70 70 70 70 70 70 69 68 67 67 67 67 66 66 66 66 67 67 68 68 67 68 68 67 67 66 64 63 62 57 52 54 54 60 61 61 60 61 62
65 63 68 69 70 70 70 70 69 69 68 67 66 67 67 66 66 66 66 66 67 67 66 67 67 68 67 66 65 64 64 63 62 51 52 57 57 61 61 60 60 59 60
66 65 68 68 69 70 70 70 69 68 67 66 66 66 66 66 66 66 65 65 65 66 66 66 67 66 66 64 64 63 62 61 52 51 51 53 58 61 60 59 58 57 58
68 68 67 68 68 69 69 68 68 67 66 66 66 66 67 66 66 66 66 65 65 65 65 66 66 65 64 64 63 63 61 61 53 51 50 52 60 60 59 58 57 56 57
67 68 68 68 68 67 67 67 67 66 66 65 66 66 66 65 65 65 65 65 65 64 64 64 64 63 63 62 61 61 60 59 52 51 48 50 59 59 59 57 56 55 56
66 66 66 65 65 64 65 66 66 65 65 65 65 64 64 64 64 64 64 65 65 65 62 62 63 62 60 59 58 58 57 57 51 48 48 53 59 58 58 57 55 54 55
64 64 63 62 62 63 62 65 65 65 64 63 62 62 59 55 55 57 63 64 64 63 61 60 59 58 57 55 54 53 53 50 49 47 46 59 57 58 58 56 55 54 54
61 61 62 61 60 59 61 63 63 60 56 55 56 57 54 57 55 56 61 62 61 60 58 56 56 55 55 48 46 51 46 46 43 42 44 54 56 55 57 56 54 53 53
61 61 61 60 60 59 59 60 64 60 59 57 58 55 58 58 59 59 58 56 55 56 49 50 49 48 49 47 46 46 44 41 39 36 43 52 54 54 55 55 53 52 51
60 60 61 59 59 59 58 57 60 58 58 57 59 59 60 59 61 61 58 56 54 52 52 51 49 50 48 46 44 42 40 35 34 32 45 55 54 55 55 55 52 50 50
57 58 57 58 59 60 61 60 59 58 57 58 60 61 60 61 62 60 58 54 53 52 51 50 48 45 43 41 39 37 37 38 37 35 42 54 55 53 50 53 50 49 48
56 57 58 57 58 59 57 60 58 58 58 59 60 62 64 62 62 58 57 55 52 51 49 47 43 39 38 38 38 38 37 35 36 39 38 45 51 52 51 50 48 47 45
56 57 58 59 60 61 59 58 56 57 57 58 61 64 62 62 61 60 56 53 50 49 49 44 42 40 36 34 36 36 35 37 35 35 33 39 43 50 49 50 48 45 44
57 57 58 55 60 62 59 56 55 57 60 61 62 64 62 61 60 57 54 52 50 47 44 43 40 37 38 37 38 35 36 37 37 35 33 33 33 29 44 44 46 47 47
53 52 53 56 61 62 60 56 57 60 62 63 64 63 62 60 58 55 53 52 50 46 46 41 41 42 40 39 35 38 39 37 38 31 36 37 37 32 29 39 36 37 40
52 52 54 58 61 62 61 60 60 61 62 63 63 62 61 58 57 55 52 52 48 46 44 42 43 42 42 40 33 35 40 37 36 36 35 31 35 35 33 35 34 32 37
54 54 57 59 62 62 59 56 57 60 61 62 62 61 59 54 55 55 51 50 48 46 44 46 45 44 43 44 40 40 39 39 39 36 36 34 34 34 36 35 34 30 30
54 56 57 58 61 60 55 55 58 60 61 61 59 58 56 55 54 52 51 49 48 46 46 46 45 44 44 44 40 38 34 33 36 35 35 34 37 35 33 34 36 35 34
53 55 55 57 58 59 58 55 58 59 59 59 58 55 53 53 52 50 51 49 49 45 44 46 45 45 43 43 42 36 28 25 26 31 35 35 37 36 35 35 35 35 34
55 55 55 55 57 59 60 57 57 55 56 57 57 54 50 51 51 50 49 50 49 45 46 45 45 45 44 40 40 36 37 34 24 22 27 31 34 35 37 35 34 34 34
55 56 58 58 59 60 61 60 58 57 57 57 55 53 51 51 51 49 49 49 48 45 46 47 46 45 42 38 32 31 32 32 33 31 30 29 29 29 30 32 34 34 33
57 58 59 58 58 59 60 60 60 59 57 55 54 53 52 51 51 50 48 49 48 46 46 46 46 45 41 36 33 32 30 28 28 29 28 27 26 26 27 31 33 32 32

GFSSE_sfc_dewp_075.txt.gz
Dewpoint
61 64 71 72 72 72 71 71 71 71 71 71 71 70 70 69 69 68 68 68 68 69 69 69 69 68 68 67 67 67 67 67 66 65 64 62 62 62 63 65 61 56 62
62 64 70 71 72 71 71 71 71 71 71 71 70 69 68 68 68 68 68 68 68 69 69 68 68 68 68 67 66 66 66 67 66 65 64 64 63 63 63 64 64 61 63
63 64 68 71 71 71 71 71 71 71 71 70 69 68 68 67 67 67 67 67 68 69 69 68 67 68 67 66 66 65 65 64 64 66 63 54 58 63 63 63 64 63 63
62 63 67 70 71 71 71 71 71 71 70 69 68 68 67 67 67 67 68 67 68 68 68 68 68 67 67 66 66 65 64 64 63 62 51 51 54 62 62 61 61 61 61
62 62 67 70 70 70 70 70 70 70 69 68 67 68 68 67 67 68 68 68 69 68 68 68 68 67 67 67 66 65 64 62 62 56 51 53 54 59 60 59 59 60 60
61 61 68 69 69 70 70 70 69 69 68 67 67 68 67 67 67 67 68 69 69 69 68 68 68 67 67 66 65 63 62 62 63 49 52 57 57 60 59 58 58 58 59
62 65 68 68 69 70 70 70 69 68 67 67 67 66 66 67 67 67 67 68 68 68 69 68 67 65 65 65 64 62 62 63 49 48 50 53 58 60 59 57 57 57 57
67 68 67 69 69 69 69 68 68 67 66 66 66 66 67 66 66 66 66 66 67 68 68 67 66 65 64 64 62 62 61 62 51 48 50 54 60 60 58 57 56 56 56
67 66 67 68 68 68 67 67 66 66 66 66 66 66 66 65 65 65 65 65 66 66 66 65 64 64 63 62 61 59 58 61 49 47 46 51 59 59 58 56 55 55 55
66 67 66 66 67 66 66 66 66 65 66 66 65 64 64 64 64 64 64 65 65 64 64 63 63 62 60 59 58 57 57 59 48 45 51 55 59 59 58 56 54 55 54
63 64 65 63 62 63 63 65 65 65 65 64 63 62 59 57 56 59 64 64 63 63 63 62 61 59 57 55 53 53 55 46 43 43 47 57 58 59 58 56 54 54 53
61 61 62 61 60 61 62 62 62 60 58 57 56 56 51 57 57 57 62 62 61 61 60 60 59 59 57 49 47 52 45 44 40 39 43 52 54 55 58 56 54 53 52
61 61 60 61 61 61 62 62 62 57 56 57 59 56 57 58 60 59 59 56 55 57 51 52 51 50 52 50 50 47 41 38 36 34 48 53 52 53 57 55 53 52 50
60 59 59 60 59 59 58 55 57 61 58 58 58 62 63 59 61 60 56 56 56 53 53 52 52 53 51 47 44 42 40 37 35 33 50 56 55 54 57 55 52 51 49
59 59 59 59 58 58 56 53 53 59 58 59 60 61 61 60 63 61 60 56 54 54 53 53 52 49 45 42 40 38 36 38 38 36 47 54 55 54 51 53 51 50 48
56 56 57 58 59 59 59 59 60 60 59 59 62 62 64 66 64 63 58 55 54 54 53 52 49 43 40 40 40 38 37 36 37 38 37 47 54 53 52 51 48 47 46
55 56 56 56 57 56 56 55 54 56 57 58 62 65 63 64 62 61 58 57 54 53 53 49 44 42 38 37 38 37 36 37 35 35 34 37 46 52 51 50 50 49 47
55 55 56 56 56 56 56 54 54 54 58 61 61 65 63 63 62 61 57 55 53 52 48 44 42 40 40 40 41 38 37 36 36 35 34 34 33 29 47 46 42 40 41
57 55 57 58 57 59 58 57 56 59 63 63 65 64 62 61 61 58 56 54 54 49 47 44 43 44 42 41 38 39 41 37 37 30 35 35 37 36 32 42 39 39 38
55 55 57 59 60 60 61 59 57 59 62 64 64 63 62 60 59 57 55 55 52 47 46 44 46 44 44 43 38 39 43 41 38 37 36 33 34 37 36 36 36 36 41
53 52 53 55 59 61 61 56 54 54 61 63 62 62 61 59 59 58 54 54 51 48 46 48 47 47 45 46 43 42 41 42 41 38 37 36 35 35 36 36 36 33 32
51 51 52 54 59 60 56 53 52 54 60 62 62 61 60 58 57 57 55 52 50 47 48 49 48 45 46 46 43 41 37 37 38 38 37 36 38 36 36 35 35 36 35
51 52 52 55 58 60 55 51 52 59 58 60 60 59 58 57 57 55 54 52 50 49 47 49 48 47 45 45 45 42 35 32 32 32 34 35 38 37 38 36 36 35 35
53 55 55 55 58 59 61 54 55 58 56 57 59 58 56 56 55 53 52 51 51 48 48 48 47 48 47 43 46 39 40 38 33 31 32 32 33 35 37 36 35 35 35
53 54 55 55 55 57 59 60 55 55 55 59 59 57 56 55 54 52 51 51 51 48 49 49 49 48 45 44 41 36 36 33 34 32 30 32 32 29 28 28 32 33 34
56 57 57 55 54 56 61 61 59 57 56 57 57 55 55 54 52 53 50 51 51 50 49 48 49 47 44 43 38 36 32 30 30 30 30 31 28 27 27 27 30 32 33

GFSSE_sfc_dewp_078.txt.gz
Dewpoint
63 67 71 72 72 72 71 71 71 71 71 71 71 70 70 70 69 69 70 70 70 70 69 69 69 67 65 65 64 66 67 66 65 65 65 63 63 64 64 65 63 60 63
65 69 71 71 72 71 71 71 71 71 71 71 70 70 69 69 69 69 69 69 70 70 69 68 67 66 65 64 65 67 66 65 65 65 65 64 63 62 63 64 65 61 63
65 69 70 71 71 71 71 71 71 71 71 70 69 69 68 68 68 68 69 69 70 70 68 68 67 65 65 64 66 65 65 65 66 65 63 57 59 62 62 62 62 62 61
64 68 70 70 71 71 71 71 71 71 70 69 69 68 68 68 68 68 69 69 70 69 67 67 66 65 65 65 64 63 63 63 63 63 55 54 55 60 60 60 60 60 60
64 66 70 70 70 71 70 70 70 70 69 68 68 68 68 68 68 69 69 69 69 69 68 67 66 66 66 65 64 63 63 64 64 57 55 56 56 58 59 59 58 59 59
63 67 69 69 69 69 70 70 70 69 68 67 67 67 68 68 68 69 69 69 69 69 68 67 66 65 65 64 63 63 63 63 64 53 55 59 57 59 58 58 58 58 58
64 69 69 68 69 69 70 70 69 68 67 67 67 67 68 68 69 69 68 69 69 69 68 67 65 65 64 63 63 63 63 62 54 52 54 58 58 59 58 57 57 57 57
67 69 69 69 68 69 69 68 67 67 67 67 66 67 67 67 67 68 68 69 69 69 68 66 65 65 64 63 61 60 60 62 51 54 55 58 61 59 58 57 56 55 55
64 68 68 68 68 67 67 66 66 66 66 66 66 66 66 65 66 66 67 68 68 67 66 65 65 64 63 61 59 58 60 61 54 51 53 57 62 59 57 56 55 54 54
61 62 65 67 67 66 66 65 65 66 66 66 65 65 64 64 65 65 65 66 66 66 64 63 63 62 61 58 57 56 58 58 49 52 54 57 61 59 57 55 55 54 52
61 62 65 63 64 65 65 65 65 65 65 64 63 63 60 58 60 62 64 65 65 64 63 62 62 60 58 56 55 55 56 47 43 46 49 57 60 59 58 56 54 53 52
61 62 62 62 63 63 63 63 63 63 61 60 59 58 56 59 61 62 62 63 63 63 62 62 60 58 56 50 49 54 45 44 42 42 49 55 53 55 57 55 54 52 51
60 60 60 60 60 61 61 61 61 60 57 58 58 58 59 60 61 61 58 57 58 59 54 56 56 53 54 53 49 45 44 42 43 46 54 56 53 52 58 55 53 52 50
59 58 59 59 58 57 57 57 58 58 60 55 58 60 60 60 60 59 58 57 56 55 54 55 56 54 51 46 44 43 42 41 40 47 54 57 56 56 58 55 53 51 50
58 58 59 59 58 57 56 57 59 59 57 58 60 62 62 60 60 60 59 57 55 56 56 55 54 52 47 44 42 40 40 40 40 47 50 56 56 55 55 53 52 51 49
58 57 58 58 58 56 57 58 60 58 59 60 62 62 62 62 62 62 60 59 56 56 56 56 53 48 46 44 42 40 39 39 38 39 47 53 55 55 53 51 49 48 46
56 56 56 57 57 57 56 55 55 58 60 59 61 61 61 63 62 61 59 58 56 58 56 52 47 45 43 40 41 40 41 38 39 36 40 47 52 54 54 52 51 50 49
56 56 56 57 56 56 55 55 55 54 58 60 60 61 60 61 62 61 59 58 58 55 52 49 47 45 45 44 42 41 39 38 37 35 36 38 41 44 52 51 48 44 42
55 55 56 56 56 56 54 53 51 53 59 60 61 60 60 62 62 62 60 59 56 54 52 48 47 47 45 43 42 42 42 41 38 34 35 36 38 38 40 48 46 44 40
55 55 55 55 56 55 54 52 54 58 58 60 61 62 62 62 62 61 60 57 56 52 51 49 47 46 47 46 42 43 44 43 41 38 38 36 37 38 36 38 40 41 45
55 55 54 54 55 55 58 55 55 55 60 61 61 60 62 62 61 60 58 56 56 52 49 50 49 47 46 47 45 46 47 45 42 40 41 39 38 36 38 36 38 37 38
54 55 56 56 57 58 58 56 54 56 59 61 61 62 62 61 61 59 58 56 55 52 51 50 49 49 48 48 45 44 41 42 42 42 41 40 39 37 37 38 37 36 36
54 54 55 56 58 58 59 58 55 58 60 60 61 61 60 60 59 59 58 56 54 52 51 51 49 48 47 48 45 43 39 36 37 39 42 39 37 38 39 39 38 38 37
52 53 53 53 58 59 60 54 53 53 56 58 60 60 59 59 58 58 57 55 53 53 51 51 51 50 47 46 47 45 43 39 36 34 36 36 40 38 39 40 38 37 36
52 52 53 54 57 58 60 60 55 58 58 60 60 59 57 57 57 58 56 55 54 53 53 51 51 48 48 45 42 39 40 40 40 36 31 33 35 35 33 33 35 36 35
54 54 55 56 57 58 60 60 60 58 57 57 58 58 57 57 56 56 55 54 54 53 52 51 50 49 45 42 43 41 38 35 33 33 33 33 32 31 32 32 33 35 37

GFSSE_sfc_dewp_081.txt.gz
Dewpoint
65 70 71 72 72 71 71 71 71 71 71 71 71 71 70 70 70 71 70 70 70 70 67 66 67 65 65 63 65 66 66 66 66 66 65 63 64 64 64 63 63 59 63
65 70 71 71 72 71 71 71 71 71 71 71 70 70 70 70 70 70 70 70 70 69 66 65 65 65 64 64 66 66 66 66 65 65 65 63 63 62 62 63 63 59 62
62 63 70 71 71 71 71 71 71 71 71 70 70 69 69 69 70 70 70 70 69 69 66 65 63 63 65 65 66 66 66 66 65 63 62 57 57 61 61 60 61 61 61
64 63 68 70 71 71 71 71 71 71 70 69 69 69 69 69 70 70 70 69 69 68 65 64 62 63 64 65 65 65 65 64 64 61 56 55 55 59 60 59 60 60 61
61 64 63 69 69 70 70 70 70 70 69 68 68 68 68 69 70 70 70 69 68 68 65 64 62 63 64 64 64 64 64 64 62 58 56 56 55 57 59 58 59 59 60
60 61 63 68 68 70 70 70 70 69 68 67 67 68 69 69 69 70 70 69 69 68 65 64 63 63 64 63 63 63 62 63 60 57 57 57 55 59 58 58 57 58 58
63 64 68 68 68 70 70 70 68 68 67 67 67 68 68 69 69 69 69 69 69 68 65 63 63 64 63 63 62 62 61 60 56 57 57 57 55 58 58 57 56 57 57
61 67 69 68 68 69 69 68 67 67 67 67 67 68 69 69 69 69 69 69 68 67 66 65 64 64 62 61 61 61 61 60 57 57 58 57 60 58 57 56 55 56 56
62 61 62 68 68 68 67 66 66 66 66 67 67 67 67 67 68 69 69 68 68 66 65 64 64 63 61 60 59 59 59 59 54 56 58 58 61 58 57 56 54 55 55
62 61 61 64 67 66 66 66 66 66 66 66 66 65 65 66 66 67 67 67 66 65 65 64 63 61 59 57 57 57 57 58 52 54 56 60 60 58 57 56 54 54 55
60 61 62 63 65 65 66 66 66 66 65 64 64 63 62 62 63 64 66 66 65 64 64 63 62 59 57 55 54 57 53 46 46 49 52 60 60 58 57 55 53 52 54
59 60 63 64 64 65 65 64 63 62 60 60 58 57 60 61 61 63 64 64 64 63 63 62 60 59 55 49 47 51 42 43 41 47 52 57 57 58 56 55 53 52 52
61 61 62 63 64 64 64 63 61 60 58 57 57 57 61 61 60 60 60 60 59 60 57 58 56 52 50 48 43 41 40 44 46 49 54 56 54 58 56 55 52 52 51
59 59 60 60 59 58 57 58 58 57 57 56 56 59 59 60 57 56 56 56 55 54 53 53 54 50 45 43 41 39 38 42 46 51 55 57 58 58 57 54 53 52 50
57 57 57 57 56 55 54 52 51 52 51 56 59 61 59 59 58 58 56 56 55 54 54 53 52 48 43 41 40 39 38 38 47 48 52 57 57 59 56 54 53 51 50
57 57 57 57 57 56 56 56 58 57 59 60 61 61 61 61 60 60 56 56 56 55 54 53 52 45 43 40 38 38 38 37 43 47 50 53 56 57 55 51 51 49 47
57 57 57 56 56 56 56 57 58 60 60 59 60 60 60 61 60 60 58 56 55 55 54 53 49 45 43 41 38 39 38 37 36 40 47 50 52 55 55 52 52 51 49
55 55 56 56 56 55 55 55 57 57 57 58 59 60 59 61 60 59 58 56 56 54 50 46 44 42 40 40 40 39 39 37 35 34 42 46 46 49 53 54 50 47 45
55 54 55 55 54 55 55 55 55 55 56 57 58 60 57 58 61 60 59 58 55 52 49 46 46 43 43 43 41 41 39 39 36 35 35 37 38 45 45 51 49 48 42
55 54 54 53 54 55 53 51 50 51 56 58 58 59 57 59 60 61 60 57 56 52 49 47 44 46 43 44 42 41 41 41 39 37 36 35 37 38 40 40 40 41 46
54 54 54 54 54 53 51 49 48 49 57 57 58 59 59 59 60 60 57 57 53 50 48 47 46 44 44 45 43 44 45 44 40 39 39 38 37 37 37 38 38 38 43
53 53 54 54 54 52 52 48 51 53 56 57 59 59 59 60 60 60 56 55 54 50 48 47 46 46 47 45 44 42 40 41 42 41 40 39 38 37 36 37 37 36 36
53 53 52 53 53 52 54 53 55 56 57 58 59 59 60 61 60 60 56 55 54 51 48 47 47 47 45 46 44 42 38 36 36 38 41 40 38 38 37 37 38 37 37
52 53 51 52 52 54 56 56 56 53 55 57 58 59 60 59 58 58 58 55 53 51 48 49 49 48 46 45 45 44 41 39 35 33 35 35 36 38 38 39 38 38 38
51 52 52 54 56 56 57 57 56 54 56 58 59 58 58 58 57 57 57 55 52 50 49 50 49 48 47 44 41 39 39 40 38 34 33 32 35 35 35 36 37 36 36
51 52 53 53 55 57 58 58 57 53 56 57 58 58 57 56 56 56 57 55 52 51 50 50 49 46 44 43 41 41 38 35 33 32 33 32 32 32 32 31 31 31 34

GFSSE_sfc_dewp_084.txt.gz
Dewpoint
67 70 71 71 71 71 71 71 71 71 71 71 71 71 71 71 71 70 70 69 69 68 65 65 67 66 65 64 65 66 67 66 65 64 63 63 63 63 63 62 62 59 62
67 71 71 71 71 71 71 71 71 70 71 71 71 71 71 70 70 70 70 69 68 66 64 65 67 66 64 65 67 66 66 65 64 64 63 62 61 62 62 61 63 59 61
65 70 70 71 71 71 71 71 71 71 70 70 70 70 70 70 70 70 70 68 67 66 66 65 65 65 65 66 67 66 65 64 63 62 60 56 56 61 61 61 62 62 62
64 68 69 70 71 71 71 71 71 70 70 70 70 70 70 70 70 70 70 68 67 66 66 64 65 64 64 65 65 65 65 63 62 60 55 55 55 59 60 60 60 61 61
64 65 68 69 70 70 71 70 70 70 69 69 69 70 70 70 70 70 69 67 67 66 64 64 64 63 64 64 64 64 64 62 61 57 55 55 55 57 59 59 59 60 61
61 64 63 68 68 69 71 70 70 69 68 68 68 69 70 70 70 69 68 67 67 66 64 63 63 63 64 63 64 64 63 62 60 56 55 56 54 58 58 58 58 58 58
63 63 63 66 68 70 70 70 69 68 68 68 68 69 69 70 70 69 68 68 66 66 64 63 63 64 62 62 63 62 62 61 57 56 55 55 54 57 57 57 57 57 57
62 64 64 64 67 68 70 69 67 67 67 68 68 68 69 69 69 69 68 67 66 66 65 64 64 63 62 61 62 62 61 61 58 57 57 56 59 57 56 56 57 56 56
62 62 62 62 65 66 68 67 66 66 67 67 68 68 68 68 68 68 68 67 66 65 64 64 63 61 61 59 61 61 60 60 57 57 57 56 59 57 55 55 55 55 55
62 62 61 61 62 66 67 66 66 66 66 67 67 67 67 67 68 68 67 66 65 64 64 63 61 60 59 58 60 60 59 58 55 57 59 58 58 57 55 54 55 55 54
60 59 60 62 63 65 66 66 66 66 66 66 66 65 65 67 67 66 65 65 65 64 63 62 60 60 57 58 57 56 54 48 51 53 58 61 58 57 55 53 54 54 53
58 59 62 64 65 65 65 65 65 63 62 63 62 61 62 64 65 65 65 64 64 63 62 61 60 57 53 42 44 50 43 42 46 50 54 61 59 57 56 53 53 52 52
59 61 63 63 64 64 64 64 62 60 59 58 60 60 61 62 63 63 62 61 60 60 57 56 53 52 47 42 41 42 44 44 46 50 55 57 59 57 55 54 53 52 51
60 61 62 62 63 63 62 61 59 57 57 57 60 60 59 59 59 59 59 57 55 55 54 53 52 45 43 41 40 41 44 44 48 52 56 57 58 56 55 53 53 52 50
58 57 58 59 59 59 59 59 57 56 55 58 59 59 57 56 56 56 55 54 53 53 53 53 49 44 42 40 39 38 41 45 46 49 53 57 60 58 54 53 53 52 50
57 56 57 56 56 55 54 55 54 54 59 60 61 60 59 59 58 56 54 53 53 53 53 52 48 43 41 39 38 38 39 45 45 47 50 54 57 57 55 52 52 50 48
57 56 55 55 55 55 55 53 51 59 60 60 61 61 60 59 59 56 55 55 55 54 53 52 46 44 41 39 38 38 38 41 45 46 49 51 53 55 55 53 51 50 49
56 55 55 56 55 55 57 57 58 59 59 59 59 60 61 60 59 58 57 55 55 55 54 50 46 43 42 40 38 39 38 36 36 45 47 48 48 51 54 55 51 46 45
55 56 55 55 55 55 56 56 56 56 56 58 58 59 58 61 60 58 57 56 55 53 51 46 44 42 41 41 39 39 39 37 35 40 44 44 44 47 47 53 51 49 44
55 55 55 55 55 55 56 56 55 55 54 56 57 58 57 57 60 58 57 57 54 50 47 45 44 45 43 43 40 40 40 39 37 37 38 37 38 43 42 44 43 42 48
54 54 53 54 55 54 53 52 52 51 52 56 57 57 57 56 59 59 59 56 53 50 48 45 44 44 44 44 43 43 44 44 40 37 37 36 37 38 39 39 37 37 42
54 53 53 53 53 51 51 49 48 48 53 55 57 57 58 58 59 60 58 56 53 50 47 47 45 45 44 45 43 42 39 40 41 39 39 38 37 38 38 37 36 37 39
52 53 53 52 52 51 50 48 52 53 55 55 56 56 57 58 59 60 57 57 53 50 47 47 45 45 45 45 44 42 38 36 36 37 39 40 39 39 37 37 38 37 37
52 53 53 52 52 51 51 49 49 48 50 55 55 56 58 59 59 60 58 55 54 52 49 47 47 46 46 44 44 43 40 39 35 33 35 35 36 37 37 38 39 38 38
52 52 53 53 52 51 52 51 50 54 54 56 56 56 57 58 59 59 58 56 55 52 49 48 48 48 46 45 44 43 40 39 37 34 32 33 34 34 34 36 34 32 34
52 52 52 51 52 51 52 53 53 53 54 56 56 57 57 58 58 57 58 56 54 52 51 49 48 48 46 44 42 41 38 36 35 35 34 33 32 33 32 32 30 30 32

GFSSE_sfc_dewp_087.txt.gz
Dewpoint
68 70 71 70 71 71 71 71 71 71 70 70 70 71 71 71 71 70 70 69 68 67 66 66 67 65 64 65 65 65 65 65 65 64 63 62 62 62 62 62 62 59 62
69 70 70 71 71 71 71 71 70 71 71 70 70 70 70 70 70 70 69 68 67 67 65 65 66 64 64 65 65 65 64 65 64 63 61 61 61 62 62 62 64 61 63
68 70 70 70 71 71 71 71 71 71 71 71 70 70 70 70 70 69 68 66 67 67 65 66 66 65 65 64 64 63 62 62 63 61 60 56 57 61 62 62 62 61 63
65 70 70 70 70 71 71 70 71 71 71 71 70 70 70 70 69 68 67 66 67 67 66 66 66 66 66 65 66 64 61 60 60 59 55 55 55 60 61 61 61 62 62
64 65 70 69 69 70 70 70 70 70 70 70 70 70 70 70 69 68 67 66 67 67 66 65 64 63 64 65 64 63 61 60 59 57 55 54 55 58 59 59 60 61 61
63 64 68 68 67 67 68 69 70 69 69 69 69 70 70 70 69 68 66 66 67 67 64 63 61 62 64 64 64 63 62 60 58 55 55 56 54 59 59 58 58 58 58
61 63 65 66 67 67 68 69 68 69 68 69 69 69 70 70 69 68 66 66 66 66 65 62 62 65 65 64 63 62 61 60 55 55 54 54 53 58 58 57 57 57 57
62 62 63 66 67 66 66 68 68 67 68 68 68 69 69 68 68 68 67 66 65 65 64 63 62 64 64 63 63 62 61 60 57 56 55 54 57 57 58 57 56 56 55
62 62 62 61 66 66 66 66 66 66 67 67 68 68 68 68 67 67 66 66 65 64 63 62 61 62 63 63 62 62 61 60 57 56 55 55 57 56 57 56 56 55 55
62 62 61 62 63 65 66 66 65 66 66 67 68 67 67 67 67 67 66 65 64 63 62 61 61 62 63 62 61 61 61 59 57 57 57 56 57 56 56 56 55 55 54
61 61 61 60 60 64 65 65 65 66 66 67 67 67 66 66 66 64 64 64 64 63 62 61 59 61 61 61 60 59 56 54 56 57 58 60 57 56 55 55 54 54 53
58 58 61 63 62 60 64 64 64 64 65 66 66 66 66 66 65 63 64 64 63 62 62 60 57 55 50 50 52 51 47 49 52 55 59 59 57 56 55 54 53 53 52
57 59 62 61 63 61 60 62 63 64 64 64 64 64 64 65 64 63 62 60 59 59 55 53 51 43 42 43 42 41 42 44 47 51 56 59 57 55 55 53 53 52 52
59 60 61 60 62 62 63 63 62 62 61 62 62 63 64 63 62 61 59 57 56 55 52 51 48 43 41 41 43 43 43 46 49 52 55 59 58 55 54 53 52 52 50
59 59 60 61 61 61 61 60 60 59 59 60 61 62 62 61 60 59 56 54 54 53 52 48 44 42 41 39 41 43 44 45 47 50 53 59 59 57 54 54 53 52 50
57 57 58 58 61 61 60 59 58 56 59 60 60 60 60 60 59 57 54 52 53 52 52 47 43 41 39 39 39 43 44 44 45 49 53 57 58 58 56 53 53 52 50
57 57 56 56 57 57 58 56 56 58 60 59 60 59 58 58 58 55 53 52 52 53 52 47 43 41 39 38 38 40 44 44 44 47 51 53 54 55 54 54 51 49 47
56 55 56 56 55 55 54 56 58 59 60 60 59 59 59 58 56 56 55 53 54 53 52 48 45 42 41 39 38 38 38 42 43 45 48 50 50 51 55 55 52 47 46
55 55 55 55 56 55 56 57 57 57 58 59 59 59 59 59 57 56 56 55 55 53 52 48 44 43 40 39 38 38 38 36 39 44 46 47 46 49 49 55 52 50 47
56 55 55 55 55 56 55 55 56 56 56 57 58 58 59 60 59 57 56 55 54 52 50 46 43 43 41 40 38 38 38 38 36 41 44 44 43 45 45 47 47 46 49
55 54 55 55 55 55 55 53 53 54 55 56 56 57 57 58 59 57 56 55 53 51 49 45 44 43 43 43 42 42 43 42 39 38 38 38 38 41 41 42 42 38 42
54 53 54 54 55 54 53 49 50 52 54 55 57 56 57 56 58 58 57 56 52 50 47 45 44 44 44 44 42 41 39 41 42 40 38 37 36 38 39 39 38 36 37
53 53 53 53 53 52 52 50 49 52 54 53 55 56 56 57 57 59 58 57 55 52 48 46 45 44 44 45 44 42 38 37 37 37 39 40 39 38 38 37 37 37 37
53 53 52 53 52 51 50 49 48 47 47 48 52 55 55 57 57 58 58 57 54 52 49 47 46 45 45 43 44 43 40 39 35 34 35 35 38 39 38 38 38 38 37
52 52 52 52 52 51 50 50 48 48 48 53 54 55 55 57 58 58 58 56 55 52 50 49 47 46 46 45 44 44 41 39 36 34 32 33 34 35 35 38 38 37 35
52 52 52 52 51 51 50 50 49 49 51 53 54 54 55 56 57 57 58 56 55 54 51 50 50 50 48 47 44 43 41 39 38 36 34 34 32 33 33 32 30 30 31

GFSSE_sfc_dewp_090.txt.gz
Dewpoint
65 69 71 71 72 71 70 70 71 71 71 71 71 71 71 71 71 70 70 69 69 69 67 66 67 65 65 65 65 64 65 65 64 63 62 62 62 63 64 62 62 57 62
67 70 70 71 71 71 71 70 70 71 71 71 71 71 71 71 70 70 69 68 68 67 65 65 64 64 64 64 64 64 63 64 64 63 62 62 62 62 62 64 66 63 64
69 70 70 70 71 71 71 71 71 71 71 71 71 71 71 70 70 69 68 67 67 67 65 65 65 65 64 64 63 62 62 61 62 61 61 57 57 62 62 62 64 64 64
69 70 69 70 70 71 71 70 70 71 71 71 71 71 70 70 69 68 68 67 67 67 66 65 65 65 64 63 63 62 61 60 60 59 56 56 57 61 61 61 62 62 62
66 69 70 70 70 70 70 70 70 70 70 70 70 70 70 69 68 68 67 67 68 68 66 66 66 65 65 64 63 62 61 60 59 56 55 56 56 58 60 61 61 60 59
64 66 69 69 70 70 70 70 70 70 70 69 69 70 69 68 68 68 67 67 67 67 67 65 64 65 65 63 63 62 61 60 58 55 55 57 55 59 59 58 58 57 57
62 64 68 68 69 69 69 69 69 69 69 69 69 69 69 68 67 67 67 67 66 66 65 63 63 66 64 63 63 62 61 59 54 54 54 54 55 58 58 58 57 56 56
61 62 64 68 67 68 68 68 68 68 68 68 69 69 68 68 67 67 66 66 65 64 64 65 65 65 63 63 62 61 60 59 55 55 54 54 57 58 58 57 56 56 55
62 61 63 64 66 66 66 67 66 67 67 68 68 68 68 67 66 66 66 66 64 63 64 65 64 63 63 62 62 61 60 59 55 54 53 54 58 57 57 56 56 55 55
62 61 60 61 64 65 64 66 65 65 66 66 67 67 67 66 66 66 65 64 63 62 63 64 63 63 63 62 62 61 61 59 56 55 55 55 57 57 57 56 55 55 54
61 62 61 60 61 63 65 66 65 65 64 65 66 66 66 66 65 63 63 63 62 62 62 64 64 63 62 62 61 61 58 57 57 57 56 58 57 57 56 55 54 54 53
58 59 60 61 61 62 65 65 64 64 62 64 66 66 65 65 63 62 62 62 62 61 62 63 62 61 58 56 57 56 53 55 57 57 57 58 57 56 55 55 54 53 53
57 60 62 62 62 61 62 64 64 64 62 62 65 65 64 64 62 62 61 59 57 57 53 54 51 50 50 47 47 48 48 51 53 55 58 59 55 55 55 54 53 53 52
57 59 61 61 61 62 62 64 63 61 61 61 64 64 64 63 61 59 57 58 55 53 50 47 45 45 44 43 43 43 44 48 50 53 58 58 56 55 55 54 53 52 52
59 59 60 61 61 61 62 62 61 60 60 61 63 64 64 62 60 59 57 55 53 52 49 44 42 42 42 43 42 43 45 48 50 52 55 58 57 56 55 54 53 51 50
58 58 59 60 60 60 61 61 61 61 60 62 63 63 64 62 60 57 54 53 53 52 47 43 41 41 41 42 43 44 44 45 49 53 56 57 58 57 56 54 53 52 50
58 57 58 58 59 59 59 59 60 60 61 61 62 61 60 60 59 56 53 52 52 53 48 43 42 41 40 40 43 44 44 44 47 52 55 55 56 57 57 56 53 50 50
57 56 57 58 57 58 58 58 59 60 61 60 60 59 59 59 58 55 54 52 53 52 47 44 42 41 40 40 40 42 44 44 45 48 52 52 51 51 54 55 54 49 48
56 55 56 56 56 55 57 57 58 59 59 59 59 59 58 58 57 55 55 53 54 53 48 44 44 42 40 39 38 39 41 42 44 45 48 49 49 50 51 55 53 52 49
56 56 56 56 56 56 57 57 57 57 58 59 58 58 58 58 57 56 55 54 54 52 50 46 43 43 41 40 37 38 39 38 39 45 45 46 45 48 48 50 50 48 50
55 55 55 55 55 55 56 56 56 55 56 56 57 57 58 58 57 56 55 55 53 52 50 46 44 43 43 43 41 41 42 41 39 38 43 44 43 43 45 45 45 43 46
54 54 54 55 55 53 55 55 55 55 54 56 57 57 58 59 58 57 55 54 53 52 50 47 45 44 44 44 41 41 39 41 43 41 39 40 41 39 42 42 42 41 39
54 53 53 54 55 53 53 53 53 53 54 53 55 56 56 57 58 58 56 55 54 52 50 47 46 45 43 44 44 42 39 38 39 40 41 39 39 39 39 40 40 39 38
53 53 53 53 54 53 52 51 52 52 49 47 52 54 55 57 56 58 58 56 55 53 50 49 48 48 46 43 44 44 41 41 38 36 37 38 41 40 40 40 39 39 39
53 53 53 53 52 52 51 50 49 49 49 51 52 53 54 55 56 56 57 56 55 54 53 50 49 47 48 46 44 44 42 40 38 36 34 35 36 36 39 39 39 40 40
52 53 52 52 52 51 50 49 49 47 48 49 50 52 53 53 55 56 57 57 57 55 53 52 51 49 48 48 46 45 43 41 39 37 36 35 34 36 35 34 37 37 36

GFSSE_sfc_dewp_093.txt.gz
Dewpoint
66 67 71 72 72 72 72 71 70 71 71 71 71 71 71 71 71 71 71 70 70 69 68 67 68 67 65 65 65 65 66 65 65 65 64 63 63 63 62 63 62 57 63
65 67 70 71 71 71 72 71 71 71 71 71 71 71 71 71 71 70 70 70 69 68 66 66 66 65 65 65 64 64 64 65 64 64 64 63 63 65 64 65 65 62 64
67 67 69 71 71 71 71 72 71 72 72 71 71 71 71 71 70 70 69 68 68 68 65 65 65 64 64 64 63 63 63 63 64 63 63 57 58 63 64 65 65 65 63
68 68 67 70 70 71 71 71 71 72 71 71 71 71 71 70 69 69 68 67 67 67 65 65 64 64 63 63 63 62 61 61 61 62 55 54 57 63 63 63 63 63 62
69 69 68 70 70 70 70 71 71 71 71 71 70 70 70 69 68 68 67 67 67 67 65 65 64 63 63 63 63 62 61 60 61 56 54 55 58 61 62 61 60 58 59
67 69 68 69 69 70 70 71 71 70 70 70 70 70 69 68 69 68 67 67 68 67 67 65 64 63 64 63 62 62 61 60 58 53 54 56 55 59 59 59 58 58 57
65 66 69 68 68 70 70 70 70 70 70 69 69 69 68 68 68 68 67 67 67 67 67 66 66 64 64 63 62 61 61 59 54 54 54 54 56 58 58 58 57 57 57
65 64 65 68 68 67 70 69 69 69 69 68 68 68 67 68 67 67 67 67 67 66 65 67 65 64 63 63 61 61 60 58 54 54 53 54 57 58 58 57 56 56 56
63 64 64 65 65 66 67 67 68 68 68 68 67 67 66 67 66 67 67 66 65 65 65 66 64 63 63 62 61 61 59 58 53 53 53 54 57 57 57 57 56 56 55
62 64 64 65 65 66 66 65 67 67 67 67 67 66 66 66 66 66 65 65 65 67 66 65 64 63 62 62 61 61 60 59 52 53 53 55 58 57 57 56 56 55 54
62 62 63 63 65 66 65 66 66 67 67 67 67 66 65 65 65 64 63 64 65 66 65 64 63 63 62 61 61 61 59 53 53 52 53 59 58 57 56 56 55 54 54
60 61 62 63 63 63 65 66 66 67 68 68 68 66 65 66 65 61 61 63 64 65 64 63 63 62 59 57 57 58 54 56 54 53 53 59 57 57 56 55 54 54 53
58 60 61 62 63 63 63 65 65 64 65 66 68 66 65 65 63 61 60 58 61 63 61 60 60 56 57 56 55 56 56 56 55 53 55 59 57 56 56 54 54 53 52
58 60 62 62 62 64 63 64 63 63 63 66 65 66 64 63 62 61 57 56 56 59 60 58 56 56 55 55 55 56 56 55 54 54 55 58 58 56 55 54 54 53 52
58 60 61 61 62 62 62 62 63 61 62 64 64 65 64 61 61 59 58 54 52 54 55 54 54 51 51 50 50 52 55 56 56 54 53 58 58 56 55 54 53 53 51
59 59 60 61 61 61 61 62 63 61 61 63 64 63 64 62 60 58 57 54 52 51 52 51 50 48 45 44 44 45 47 52 55 56 54 54 57 58 56 54 53 52 51
59 58 59 60 60 60 61 62 61 60 61 62 63 64 64 62 60 58 56 54 51 50 50 48 47 45 44 42 44 45 45 49 52 57 55 54 54 57 57 57 54 52 51
58 58 58 58 59 59 60 60 60 61 61 62 63 63 63 62 59 58 56 54 54 50 48 46 44 44 44 43 45 44 44 46 52 56 56 55 54 52 56 57 56 52 52
57 57 57 58 57 58 58 60 60 61 61 62 62 61 61 61 59 56 56 55 55 50 48 45 45 44 43 43 43 45 45 44 47 52 56 55 55 52 49 55 54 53 52
57 56 57 57 57 57 59 59 60 60 60 60 61 60 60 60 59 57 57 56 54 50 48 46 46 45 43 42 36 41 43 43 45 47 50 52 51 50 50 48 47 45 52
56 56 56 56 57 57 57 57 57 57 58 59 59 59 59 59 58 58 56 57 55 52 50 49 47 47 44 44 41 41 42 42 43 43 46 46 46 47 47 47 46 42 43
55 56 56 56 56 56 56 57 57 57 57 58 59 59 59 59 58 57 56 56 55 54 52 50 48 48 47 47 41 41 39 41 42 42 41 45 47 44 44 45 46 45 42
54 55 55 55 56 56 56 56 56 56 56 57 57 58 58 58 57 57 57 56 57 55 54 52 50 48 47 46 47 44 42 39 42 44 45 41 44 45 43 43 44 44 43
55 55 54 55 55 55 54 54 55 54 54 54 56 56 57 58 59 58 57 56 56 56 55 54 53 52 50 45 45 45 46 45 41 41 42 44 43 42 44 42 41 43 43
55 54 54 54 54 54 54 54 53 52 54 53 55 56 56 56 57 58 59 58 58 56 57 56 54 52 53 51 48 47 45 43 43 41 40 40 40 41 42 43 42 42 43
54 54 54 54 54 53 53 53 54 53 53 50 52 53 55 55 57 57 57 58 58 58 57 57 57 55 54 54 51 50 47 45 44 44 42 40 40 40 39 40 42 43 43

GFSSE_sfc_dewp_096.txt.gz
Dewpoint
63 64 70 72 72 72 71 71 71 71 71 71 71 71 71 71 71 71 70 70 70 70 68 67 68 67 65 65 65 66 66 66 65 66 64 63 63 62 62 65 63 60 65
63 62 70 72 72 72 72 71 71 71 71 71 71 71 71 71 71 70 70 70 69 69 66 66 67 65 65 65 65 65 66 65 65 65 66 66 65 64 64 66 63 60 63
65 63 67 71 72 72 72 71 71 72 71 71 71 71 71 71 71 71 70 69 69 68 66 65 65 65 65 64 64 64 64 65 65 65 64 60 61 65 65 65 65 64 63
66 65 65 71 71 72 71 71 71 72 71 71 71 71 71 71 71 70 69 68 68 67 65 65 65 64 64 64 64 64 63 63 63 64 55 56 59 64 64 63 63 62 61
64 66 65 70 70 71 71 71 71 71 71 70 71 71 71 70 70 69 68 67 67 67 65 64 64 63 63 64 64 63 61 62 62 56 54 58 58 61 61 60 59 60 60
64 67 66 69 70 71 71 71 71 71 70 70 70 70 70 70 69 68 67 67 67 67 65 64 63 63 63 63 63 62 61 61 60 51 52 57 56 60 60 59 58 58 58
64 69 66 67 69 70 71 71 71 70 70 69 70 69 69 69 68 67 67 67 67 66 65 64 63 63 63 63 62 61 61 60 50 50 51 53 56 59 59 58 58 58 57
63 66 64 64 65 67 70 70 70 70 69 69 69 68 68 68 67 67 67 67 67 66 65 65 64 63 63 62 61 61 60 58 51 50 51 53 58 58 58 58 57 57 56
65 64 63 64 64 65 67 69 68 69 68 68 67 67 67 67 67 67 67 67 67 67 67 65 64 63 63 62 61 60 59 60 50 50 50 52 58 58 58 57 57 56 56
63 65 64 63 63 62 67 66 65 67 67 67 67 67 66 66 66 67 67 66 66 67 66 64 64 63 62 61 61 60 59 58 51 51 51 54 58 58 57 57 56 55 55
62 62 65 62 61 62 65 65 64 65 67 66 66 66 65 65 65 65 64 65 66 66 65 64 63 62 61 61 61 60 59 49 51 50 52 59 58 58 57 56 55 55 54
61 62 63 63 63 63 64 64 64 65 67 67 66 67 62 65 64 61 64 66 66 66 64 63 63 62 58 53 54 58 50 51 50 51 53 59 58 57 56 56 55 54 53
60 62 62 63 65 65 66 67 67 65 66 67 66 64 64 64 64 62 60 62 64 64 60 59 59 53 54 52 52 51 53 52 51 51 55 59 58 57 56 55 55 54 53
60 60 63 63 64 65 65 66 65 65 66 66 66 64 66 64 64 61 56 59 61 59 59 58 55 56 56 53 52 54 53 51 50 50 55 59 58 56 56 55 54 53 53
60 60 61 63 64 64 65 66 65 67 65 66 65 65 64 62 61 59 58 58 58 58 58 57 56 56 54 53 52 53 52 52 53 50 52 58 58 57 55 55 54 53 52
58 59 61 62 62 63 63 63 63 63 64 65 66 65 63 62 60 58 57 55 57 58 57 57 55 52 50 50 51 51 51 51 52 52 51 54 58 58 56 54 54 53 52
59 59 60 61 61 62 62 62 63 63 62 64 64 64 62 61 60 58 57 54 53 55 57 56 54 50 46 43 44 45 47 51 51 53 51 52 54 57 57 57 54 52 51
59 59 60 60 61 61 60 61 62 63 62 63 64 64 62 60 58 59 55 54 53 54 54 52 50 47 45 43 43 43 43 46 50 53 52 51 51 50 56 58 56 54 51
58 58 59 60 60 59 60 61 61 61 62 62 63 63 62 60 58 56 55 54 54 52 51 50 48 49 47 45 42 43 44 44 49 49 52 53 52 51 49 57 57 56 55
58 58 58 59 59 59 60 60 61 61 62 62 62 62 62 60 59 57 56 56 53 50 50 49 50 49 48 46 39 42 45 44 45 49 51 52 51 51 49 50 51 48 54
58 57 57 58 58 59 59 58 59 58 60 61 61 61 61 59 58 58 54 56 54 52 52 52 51 50 48 47 43 43 44 45 46 44 47 50 50 49 47 46 45 41 45
56 57 57 57 58 57 58 58 59 59 59 60 60 60 60 60 58 57 56 56 55 52 53 53 52 49 49 48 45 42 40 41 42 43 43 45 48 44 43 45 46 45 42
56 56 56 56 57 57 58 57 57 58 58 58 59 59 59 60 58 58 55 55 56 54 53 54 52 52 49 48 48 44 42 42 43 42 44 43 46 46 44 44 45 45 44
55 56 56 56 56 57 57 56 56 55 54 56 58 58 59 59 58 58 56 56 57 55 55 54 52 53 51 48 48 47 50 48 44 44 45 44 44 45 48 45 43 45 45
55 56 56 56 56 56 56 56 56 55 54 58 57 57 58 58 58 58 58 57 57 56 57 57 55 55 52 51 49 49 48 47 47 45 45 44 44 43 43 46 46 45 44
56 56 56 55 55 55 55 56 55 55 54 55 56 56 56 57 58 57 57 57 58 56 56 57 58 58 56 55 53 53 51 50 47 47 47 48 50 46 45 44 45 44 45

GFSSE_sfc_dewp_099.txt.gz
Dewpoint
59 68 72 72 73 72 71 71 71 71 71 72 71 72 72 72 71 71 70 70 69 69 67 67 68 67 66 66 66 67 67 66 66 66 65 65 64 64 65 67 65 62 66
59 66 71 72 72 72 72 71 71 71 72 72 71 71 71 71 71 71 70 70 69 69 67 66 66 66 66 65 66 66 67 66 66 66 66 66 66 64 65 66 65 62 64
62 63 67 71 72 72 72 72 72 72 72 72 71 72 71 71 71 70 70 69 69 68 66 66 66 65 65 65 66 66 66 65 66 66 65 60 61 65 65 65 65 63 63
64 63 65 71 71 72 72 71 71 72 72 71 71 72 71 71 71 70 70 68 68 68 66 66 65 65 65 65 65 65 65 65 65 65 57 59 60 64 64 63 62 61 61
61 63 64 70 71 72 72 71 71 71 71 70 71 71 72 71 71 70 69 68 68 67 65 65 64 64 65 65 64 64 63 62 63 60 54 57 58 60 61 61 60 60 61
59 61 68 69 70 71 71 71 71 71 70 70 70 71 71 71 70 69 68 67 67 67 65 64 63 63 64 64 63 63 62 62 62 52 54 57 57 61 61 60 59 59 61
59 63 70 66 69 70 70 70 71 70 70 70 70 70 70 69 69 68 67 66 66 66 65 63 63 63 64 63 63 62 61 60 49 51 52 54 57 59 59 59 58 58 58
61 65 68 65 67 66 65 66 69 69 69 69 69 69 69 68 68 67 67 66 66 65 65 64 63 63 63 62 61 60 60 61 51 50 51 53 59 59 59 58 58 57 57
64 65 66 65 64 63 63 63 66 68 68 68 68 68 68 67 66 67 67 66 66 65 65 64 64 63 62 61 61 60 58 59 49 49 50 53 59 58 58 57 57 57 57
64 64 65 62 63 64 64 63 63 68 67 67 67 67 66 66 66 66 67 66 66 65 65 64 63 63 62 61 60 60 58 59 49 48 50 54 59 58 58 57 57 56 56
63 63 65 64 63 63 64 64 65 67 66 66 67 66 65 65 65 65 65 66 66 64 64 64 63 62 61 61 59 59 60 49 49 49 52 60 58 58 57 56 56 55 55
63 62 64 64 62 62 65 63 65 65 66 67 67 67 64 66 64 61 65 66 65 64 64 63 63 62 57 50 52 57 52 50 50 50 53 60 58 57 57 56 55 55 54
58 63 62 64 63 62 63 65 66 64 63 66 67 66 64 65 66 65 65 65 64 62 57 58 58 52 52 50 51 53 52 51 50 51 56 60 58 57 57 56 55 54 54
57 59 63 63 64 65 65 67 67 63 62 66 68 66 65 65 65 65 63 61 62 59 57 56 54 56 54 52 52 53 52 50 49 52 56 59 59 57 56 56 55 54 53
57 59 63 63 64 65 65 67 67 64 66 66 65 66 64 63 65 63 61 61 59 59 57 57 54 54 55 53 52 52 52 51 51 51 53 59 59 57 56 55 54 54 53
58 59 61 63 63 63 65 65 66 65 65 65 65 65 66 65 64 59 61 60 59 58 57 56 55 55 54 51 52 52 51 51 51 52 52 54 58 58 57 55 54 53 53
58 59 59 60 62 62 63 64 66 66 66 65 64 64 65 64 62 60 60 59 57 58 61 58 57 54 51 49 50 50 50 51 51 52 52 53 54 58 57 57 56 54 52
59 59 60 60 61 62 62 63 65 64 65 64 64 63 63 63 61 61 59 58 59 58 58 56 55 50 48 46 45 45 47 49 51 52 51 52 51 51 56 57 57 55 53
58 59 59 60 60 61 61 62 63 64 63 64 64 63 63 61 60 57 58 57 60 57 57 56 53 52 48 45 43 44 45 45 50 49 51 52 52 51 51 56 57 56 56
58 59 60 60 60 60 61 62 61 61 63 63 64 63 62 61 60 58 56 58 56 55 55 54 54 51 49 48 41 43 46 45 47 49 51 50 51 52 51 54 54 53 56
58 58 58 59 59 60 59 60 60 60 61 62 63 62 61 60 59 58 54 57 56 53 54 55 54 55 51 51 45 45 46 47 47 46 50 51 51 51 52 50 52 50 51
56 58 57 58 59 59 59 59 59 60 61 61 62 61 60 60 59 58 57 57 56 54 55 56 56 52 51 51 47 45 44 43 45 46 46 50 54 50 49 50 50 50 47
56 57 57 57 58 58 58 59 59 59 59 59 60 60 60 59 58 57 57 57 57 56 55 56 56 54 50 50 54 47 43 43 44 45 48 47 50 51 49 48 49 49 49
56 57 57 57 57 58 58 57 58 57 56 58 59 59 59 59 57 57 57 57 58 56 56 57 55 56 54 50 50 48 51 50 47 47 46 47 47 48 51 49 47 48 49
56 56 57 57 56 57 58 58 57 57 57 58 59 59 59 59 58 57 56 58 59 57 58 58 57 57 55 54 50 49 51 50 52 48 47 47 47 46 47 50 49 49 49
56 56 55 56 55 57 57 57 57 56 56 58 57 57 57 59 59 59 57 58 59 58 58 59 59 57 56 56 55 54 51 50 49 50 49 51 51 52 48 47 48 50 49

GFSSE_sfc_dewp_102.txt.gz
Dewpoint
66 68 72 73 72 72 72 72 72 72 72 72 72 72 72 71 71 70 70 69 69 69 68 67 68 67 67 67 67 68 67 66 66 67 66 66 66 66 67 67 66 63 67
67 68 72 72 72 72 72 72 72 72 72 72 72 72 72 71 71 70 70 69 69 69 67 67 66 66 66 66 67 67 66 66 65 66 67 67 66 65 65 66 66 64 65
63 67 68 72 73 72 72 72 72 72 72 72 72 72 72 71 71 70 70 69 68 69 67 66 66 65 66 66 67 66 66 66 66 66 65 61 62 65 65 65 65 64 64
61 67 67 71 72 72 72 72 72 72 72 72 72 71 71 71 70 70 70 69 68 68 66 65 65 65 65 66 66 66 67 66 66 64 59 60 61 63 63 62 62 61 61
61 63 68 70 71 72 72 72 71 72 71 71 71 70 70 70 70 70 69 68 68 68 65 65 65 65 65 65 65 65 65 63 63 60 58 58 59 60 61 61 60 60 61
60 66 68 69 70 71 71 72 71 70 71 70 69 68 70 70 70 69 68 68 68 67 65 65 65 65 65 64 63 63 62 62 62 54 56 60 59 62 61 60 60 60 61
63 66 69 67 69 71 71 71 71 70 70 70 70 69 69 68 69 68 67 67 66 66 65 64 64 64 64 63 62 61 60 60 53 53 55 57 58 60 60 60 59 59 59
65 69 70 66 67 69 70 70 69 69 68 69 69 68 68 68 68 67 67 67 66 65 65 65 64 64 63 62 60 60 60 60 52 52 54 55 60 59 59 59 58 58 58
67 67 68 68 66 66 65 66 65 65 64 67 68 66 66 67 67 67 67 66 66 65 65 64 64 63 63 61 60 59 59 60 50 52 54 56 60 58 59 58 58 57 57
66 66 66 66 65 64 65 63 63 63 62 61 67 66 66 66 66 66 66 66 65 65 65 64 63 63 62 60 59 59 59 60 50 51 54 56 59 58 58 58 57 57 56
64 65 66 65 64 65 64 64 63 62 63 59 67 66 66 65 65 65 65 65 65 64 64 63 63 62 61 59 59 59 60 52 51 53 55 60 59 58 57 57 56 56 56
63 64 65 66 64 64 64 63 62 61 61 59 65 66 65 65 65 63 65 64 64 64 63 63 62 61 57 54 54 57 54 52 51 53 55 60 58 58 57 56 56 56 55
62 64 63 64 64 62 64 63 63 62 61 62 65 65 65 65 64 65 65 63 62 62 60 60 58 52 50 50 53 54 55 53 52 54 57 60 58 57 57 56 56 55 54
62 63 63 64 63 63 64 62 63 63 62 63 66 65 65 63 64 65 64 61 59 57 57 56 54 54 52 52 53 55 53 52 54 54 57 59 59 57 57 56 55 55 54
59 61 63 64 64 64 63 64 64 63 61 62 64 65 63 62 64 65 63 62 56 57 56 54 53 55 54 53 54 53 53 53 53 54 56 59 59 58 56 56 55 54 54
58 61 62 63 64 65 64 63 63 63 60 63 65 65 64 63 64 63 61 61 59 57 56 54 54 56 56 54 54 53 52 52 52 54 55 57 58 58 57 56 55 55 54
58 60 60 62 63 63 63 65 65 65 63 64 64 64 64 64 64 61 60 61 59 57 58 56 57 57 55 52 53 54 52 53 53 53 54 54 56 58 57 57 56 54 54
59 59 60 60 62 62 63 64 65 65 64 64 63 64 64 64 62 60 59 59 59 58 58 57 57 55 54 52 51 51 52 52 53 53 52 53 53 53 57 58 58 57 55
59 58 60 61 61 62 62 63 64 64 64 64 63 63 63 62 61 59 58 61 61 58 58 58 56 54 52 49 48 49 50 51 52 50 52 52 52 52 53 57 57 57 57
60 59 60 60 61 61 61 61 62 63 64 64 63 62 62 62 61 59 59 60 60 60 58 57 55 54 51 50 41 46 49 49 50 52 52 52 52 53 52 52 54 54 56
59 58 58 59 60 60 60 60 60 60 61 63 63 61 61 61 60 58 56 57 57 57 58 57 55 53 52 53 50 49 48 48 50 50 52 52 52 53 53 54 53 52 53
57 57 57 59 59 59 59 59 60 60 60 61 63 61 61 60 59 56 56 56 55 56 56 55 54 53 54 54 50 48 45 46 47 48 49 51 53 52 51 52 53 52 51
56 56 57 57 59 59 59 59 59 60 60 60 61 61 60 59 58 57 57 57 56 55 56 55 55 54 53 52 50 49 46 44 45 47 47 48 49 53 52 51 50 50 50
56 56 56 57 58 59 59 58 58 58 57 59 60 60 60 59 58 58 59 58 57 56 55 56 56 55 53 50 51 51 51 51 48 45 46 47 48 48 51 50 49 48 47
56 56 56 57 58 57 58 58 58 57 58 59 59 58 58 58 57 57 58 57 56 56 57 56 56 55 55 52 50 50 50 50 52 49 47 45 46 46 48 50 49 48 47
57 56 56 56 56 58 58 58 58 57 57 57 57 57 57 57 57 57 56 58 58 58 57 57 57 55 56 55 53 52 51 49 48 49 48 48 48 49 46 46 49 49 49

GFSSE_sfc_dewp_105.txt.gz
Dewpoint
68 71 71 72 72 72 72 72 72 71 72 73 72 72 72 71 71 70 70 70 70 70 69 69 69 68 68 68 68 69 69 68 68 68 68 68 68 67 67 67 67 65 67
68 71 71 72 72 72 72 72 72 72 72 73 72 72 71 71 70 70 70 70 70 70 68 68 68 68 67 67 68 67 67 67 67 67 68 68 67 66 66 66 67 65 66
68 71 71 71 71 72 72 72 72 72 72 72 72 72 71 70 70 70 70 69 69 69 68 68 67 67 66 67 67 66 67 67 66 66 65 62 62 65 65 65 66 65 65
68 69 71 71 71 72 72 72 72 72 72 72 72 72 71 70 70 70 69 69 68 68 66 66 66 66 66 66 66 66 66 67 65 65 61 60 60 64 64 64 63 64 63
66 67 69 71 71 71 72 72 72 71 72 71 71 71 71 70 70 70 69 68 68 68 66 66 66 66 67 66 67 67 67 65 65 61 59 59 58 60 61 61 60 61 61
63 68 69 69 70 71 72 72 71 71 71 71 70 70 70 70 69 69 68 68 68 67 66 65 65 66 66 65 65 64 63 62 61 58 59 60 56 61 61 61 61 62 61
63 68 68 68 70 71 72 71 71 71 70 70 68 68 67 68 68 67 67 68 67 67 66 66 66 65 64 64 63 61 60 60 56 57 57 57 57 60 61 60 59 59 58
63 68 67 68 69 70 71 71 70 70 70 68 68 67 67 66 67 67 67 67 66 66 66 66 65 64 64 63 61 60 60 59 56 56 56 57 60 59 60 59 58 58 58
65 66 66 65 65 67 68 67 69 68 68 67 67 67 67 66 66 67 67 67 66 65 65 65 65 63 63 62 60 58 60 59 55 55 56 56 61 59 59 59 58 57 57
63 63 64 64 63 62 63 64 65 66 66 66 67 66 66 66 66 66 66 66 65 65 65 65 64 63 62 60 58 60 59 58 54 55 56 57 60 59 59 58 58 57 57
63 63 63 63 61 62 62 63 63 65 65 65 64 63 64 65 66 65 65 65 65 65 64 64 63 61 60 59 59 59 57 53 54 55 56 60 59 58 58 57 57 57 56
61 62 63 63 62 62 63 62 62 62 63 63 63 60 65 65 65 63 65 65 64 64 63 63 62 61 58 54 53 56 52 53 54 55 56 60 58 58 57 57 56 56 56
62 63 63 63 62 61 62 61 62 62 62 61 60 60 64 65 65 65 64 63 63 62 60 59 57 54 52 52 52 51 53 54 54 55 58 60 59 58 57 57 57 56 55
62 62 62 62 61 60 61 61 61 61 60 61 60 63 63 65 65 63 62 61 60 59 58 55 52 52 50 51 52 53 52 54 54 55 58 60 59 58 57 57 56 56 55
61 62 61 62 61 61 62 61 63 62 62 62 61 64 64 64 64 62 60 59 57 57 56 52 52 50 50 50 52 53 53 54 54 55 57 59 59 58 57 57 56 56 55
59 61 61 61 62 62 62 61 63 61 61 63 61 64 64 63 63 61 59 56 56 55 54 51 53 53 52 51 53 52 53 54 54 55 56 57 58 59 58 56 56 56 55
58 60 61 61 63 62 63 62 63 61 61 63 64 65 64 64 63 62 59 55 56 55 53 53 54 55 53 53 52 52 53 54 54 54 55 56 56 57 58 58 57 56 55
58 58 60 61 61 61 63 63 63 61 61 63 64 64 64 64 63 62 60 56 58 55 54 55 55 55 52 52 52 52 51 53 54 54 54 54 55 54 57 58 58 57 56
57 58 59 60 60 60 60 63 63 63 62 63 63 64 63 63 62 61 61 59 59 56 57 56 56 54 51 51 50 50 50 52 53 53 53 53 54 54 54 57 58 57 58
58 59 59 59 59 60 59 60 61 63 63 62 62 63 63 62 61 61 61 59 61 57 59 59 54 53 50 50 47 48 49 50 52 52 52 52 53 53 53 53 55 55 57
58 58 58 59 60 58 57 57 57 59 62 62 61 62 62 61 61 61 60 60 61 58 59 57 54 50 49 48 47 47 47 47 49 50 52 52 52 52 52 52 53 53 54
57 57 57 58 59 58 58 58 58 58 59 63 62 62 61 61 60 59 58 58 59 59 58 56 53 52 50 52 47 47 44 44 46 47 49 51 52 52 52 52 52 52 52
56 56 56 58 58 57 59 59 58 58 59 59 61 61 61 60 60 57 57 56 58 59 56 55 52 52 51 52 47 47 45 43 44 46 46 47 50 52 52 52 52 52 52
55 56 56 57 58 59 59 58 58 57 57 59 58 61 60 60 59 57 57 56 56 58 56 55 54 53 51 49 50 50 50 49 45 42 45 46 47 48 52 51 51 52 52
55 56 56 57 58 58 58 58 57 57 58 59 60 60 60 60 59 57 58 57 57 56 56 54 56 56 53 52 50 49 48 49 49 47 43 43 46 47 48 50 51 50 49
55 55 56 57 57 57 57 58 57 57 57 57 59 58 59 59 58 57 58 57 57 57 57 57 56 56 56 54 51 51 49 48 47 48 46 46 45 46 46 48 50 50 49

GFSSE_sfc_dewp_108.txt.gz
Dewpoint
69 71 71 72 72 72 72 71 71 72 72 72 72 72 72 72 72 71 71 71 71 71 70 70 71 71 70 70 70 70 70 69 69 69 69 68 68 67 68 68 67 65 67
69 71 71 72 72 72 72 71 72 72 72 72 72 71 71 71 71 71 71 70 71 70 69 69 69 69 70 69 69 69 68 68 68 68 68 68 67 67 67 67 67 65 66
69 70 70 71 72 72 72 72 72 72 72 72 72 71 71 71 70 70 70 70 70 70 67 67 67 68 68 68 68 68 67 67 67 66 65 63 64 66 66 66 67 66 65
69 70 70 71 71 72 72 72 72 72 72 72 71 71 70 70 70 70 70 69 69 69 68 68 67 67 67 68 67 67 67 66 65 64 61 61 62 65 65 64 64 64 64
68 70 70 70 71 71 72 71 71 72 72 71 71 71 70 70 70 70 69 68 69 68 67 67 67 66 67 66 66 67 66 65 64 61 59 59 60 62 63 63 62 61 61
67 69 69 69 70 71 71 71 71 71 71 71 70 70 70 70 70 69 69 68 68 68 67 66 66 67 66 66 67 65 65 63 61 58 58 60 59 63 62 62 61 60 61
66 67 69 69 69 71 71 72 71 71 70 70 70 68 67 69 69 69 68 68 67 67 67 67 67 67 66 65 64 63 63 62 57 57 57 58 59 61 60 60 58 58 58
66 67 68 69 70 70 71 71 70 69 70 69 68 67 67 67 68 68 68 67 67 67 66 66 66 65 64 63 62 62 62 60 57 56 56 55 60 60 59 59 58 58 57
67 66 66 67 68 69 69 69 69 69 68 67 66 66 67 66 67 67 67 67 67 66 66 66 65 64 63 62 61 61 60 60 56 56 56 56 61 60 59 59 58 58 57
65 65 64 64 64 63 65 67 67 68 66 66 66 65 65 64 65 66 66 67 67 66 66 65 64 63 62 61 61 60 60 59 55 56 56 57 60 59 59 59 58 58 57
62 62 63 62 61 61 62 63 65 65 65 65 65 64 63 62 64 66 65 66 66 65 65 65 63 62 61 61 60 60 58 55 55 56 56 60 59 59 59 58 57 57 57
61 61 62 61 60 61 63 61 61 62 65 65 64 64 65 63 65 65 65 65 65 65 65 64 63 61 58 55 56 57 54 55 55 56 57 60 59 59 58 58 57 57 56
61 62 62 62 61 61 61 60 60 62 62 64 63 64 65 64 65 65 64 64 63 64 62 61 59 55 53 52 52 53 54 54 55 56 58 60 59 58 58 57 57 56 56
61 61 62 62 61 60 60 59 60 61 62 62 62 63 63 63 64 64 63 62 61 61 58 56 54 52 51 51 53 53 54 54 55 56 58 60 59 58 58 57 56 56 56
61 61 61 61 60 60 59 59 60 60 61 61 61 61 62 63 63 63 62 61 60 58 56 53 51 51 50 51 53 53 54 54 55 56 57 59 59 58 57 57 57 56 56
61 61 61 61 60 60 61 60 61 62 61 61 61 61 60 63 63 62 60 59 57 56 53 51 52 49 49 50 53 53 54 54 55 56 56 57 59 59 58 57 56 56 56
61 61 60 61 61 60 61 60 62 61 61 61 61 61 61 63 63 61 59 56 56 54 51 51 53 51 51 51 52 53 54 54 55 55 55 56 56 58 59 58 57 56 56
60 60 60 62 61 61 62 62 62 61 62 62 61 63 62 62 63 60 57 54 55 54 50 52 53 53 52 52 52 53 53 54 54 54 55 55 55 55 57 58 58 58 56
59 59 59 60 60 60 62 62 62 60 61 63 62 63 63 63 62 59 56 54 55 53 50 53 54 54 51 51 51 51 53 53 53 54 54 54 54 54 54 58 58 58 58
58 59 59 59 59 60 60 62 62 61 62 63 63 63 63 63 62 60 56 55 55 54 51 55 54 54 52 51 49 49 52 53 54 53 53 54 54 54 54 54 56 55 57
58 58 58 57 58 58 56 59 61 60 61 61 62 62 63 63 62 61 57 57 56 54 52 55 55 52 50 49 48 47 48 50 52 53 53 53 53 53 53 53 54 54 54
57 57 57 58 58 57 57 57 58 60 61 61 62 62 63 62 62 61 59 57 56 55 56 56 53 51 50 48 47 46 44 44 47 49 52 52 52 52 52 52 53 53 53
56 56 57 58 59 58 57 57 56 58 59 60 61 61 62 61 61 61 60 58 58 57 58 56 53 51 49 50 47 46 43 42 44 46 47 51 52 52 52 52 52 52 52
56 56 57 58 58 58 58 57 56 55 56 58 61 60 62 61 60 60 60 59 59 58 57 56 53 52 50 47 49 49 48 47 45 43 45 46 48 51 52 52 52 52 52
55 55 56 58 58 58 58 58 57 57 57 56 58 60 60 61 60 58 58 59 60 59 58 55 54 55 53 51 48 49 49 49 49 44 42 43 45 47 48 51 51 52 52
55 55 56 57 57 58 58 58 57 57 57 57 58 58 59 60 60 58 58 58 59 59 57 57 57 56 55 54 53 50 49 48 48 48 46 45 44 46 46 47 49 51 51

GFSSE_sfc_dewp_111.txt.gz
Dewpoint
68 69 71 72 72 72 71 72 72 72 72 73 73 72 72 72 72 71 71 71 71 72 71 71 72 72 70 70 70 70 69 69 69 69 68 67 67 67 68 68 67 65 68
68 70 71 72 72 72 71 72 72 72 72 72 72 72 72 71 71 71 71 71 71 71 70 71 71 70 69 69 70 70 69 69 68 68 68 68 67 66 67 67 67 65 67
69 70 70 71 71 71 71 72 72 72 72 72 72 72 72 72 71 71 71 71 71 69 69 69 69 70 69 69 69 69 69 68 67 67 67 64 64 66 67 67 67 66 66
69 69 70 71 71 71 71 72 72 72 72 71 71 71 71 71 71 71 71 70 70 70 68 69 69 69 68 69 68 68 67 67 66 65 62 63 63 65 66 65 65 64 64
69 70 69 70 71 71 71 72 72 71 71 71 71 71 71 71 71 71 70 69 69 68 67 67 68 68 68 67 67 67 66 65 64 60 59 60 61 63 64 64 63 63 63
69 70 69 69 70 71 71 71 71 71 71 70 70 70 70 71 70 70 69 69 69 67 67 68 67 68 67 67 66 65 65 63 61 58 59 61 60 63 62 62 62 62 62
67 69 69 68 70 71 71 71 71 71 70 70 70 70 69 69 69 69 68 68 68 68 68 67 67 67 67 66 66 64 63 62 57 57 58 58 59 62 62 60 59 59 59
66 67 69 69 69 70 71 71 70 70 70 69 68 69 68 67 67 67 68 68 67 67 67 67 67 67 65 64 64 63 62 61 57 56 58 58 61 60 59 60 58 58 58
66 66 67 68 69 69 69 69 69 69 69 68 67 66 67 66 66 67 67 67 67 66 66 67 66 65 63 63 63 62 61 60 56 56 56 57 62 60 59 59 58 58 57
64 65 65 66 67 68 69 68 68 68 68 67 65 65 65 65 65 66 65 66 67 66 66 66 64 63 62 63 62 61 61 60 56 56 56 58 61 59 59 58 58 58 58
63 63 63 63 64 64 65 67 67 68 66 66 65 65 64 64 64 64 65 66 66 66 66 65 64 62 62 62 62 61 59 56 56 56 57 61 60 59 59 58 58 57 57
61 61 63 62 61 61 63 62 63 65 66 65 64 65 64 62 62 63 65 66 65 65 65 64 63 61 60 58 59 58 55 56 56 56 57 61 60 59 59 58 58 57 57
61 61 62 62 60 60 61 60 60 60 64 65 64 64 63 62 63 65 65 65 64 64 63 62 60 55 55 56 54 54 55 55 55 56 58 61 60 59 58 58 57 57 56
59 61 61 61 60 60 60 60 61 61 62 64 64 63 63 62 64 62 63 63 62 62 60 59 56 53 52 53 53 54 54 55 55 56 58 60 60 58 58 58 57 57 57
59 60 61 61 60 60 59 58 59 60 61 63 63 64 64 63 63 63 64 62 61 58 58 55 53 52 51 53 53 54 54 55 55 56 57 59 59 59 58 58 57 57 56
59 60 61 61 61 59 59 58 59 59 60 62 62 63 64 63 63 63 63 61 59 58 55 54 52 51 51 53 53 54 54 55 55 56 56 57 59 59 59 57 57 56 56
59 61 61 61 60 59 59 58 60 60 60 60 61 62 62 63 63 63 62 59 58 55 52 51 51 50 51 53 53 53 54 55 55 55 56 56 57 58 58 59 58 56 56
60 60 61 61 60 59 60 59 60 61 61 61 61 61 62 62 63 61 60 58 56 53 51 51 51 50 51 52 53 53 53 54 55 55 55 55 55 56 58 59 59 58 56
60 60 60 60 60 59 59 60 61 59 61 62 62 61 61 63 61 60 59 56 55 52 50 50 52 50 50 52 53 53 53 53 54 55 54 54 55 55 55 58 58 58 58
60 60 59 60 59 59 61 62 61 59 61 62 62 61 61 63 61 60 57 55 53 50 49 51 52 52 51 52 52 52 53 53 54 54 54 54 54 54 54 54 56 56 57
58 58 58 58 58 59 59 60 59 59 61 61 62 61 61 62 61 58 56 55 53 48 49 52 52 51 51 51 49 49 49 53 53 53 53 53 53 53 53 53 54 54 55
58 58 58 58 58 57 58 59 60 60 61 61 62 62 62 62 61 59 55 55 52 49 50 53 52 51 51 50 48 47 45 46 50 51 53 53 53 53 53 53 53 54 53
57 57 57 58 58 57 56 56 58 60 60 60 61 61 62 62 62 60 56 55 52 51 49 53 53 52 50 49 48 47 44 43 45 47 50 52 52 52 52 52 52 53 53
56 57 57 57 57 56 56 56 57 58 58 59 60 61 62 62 62 61 58 55 53 53 50 53 54 53 51 48 48 47 47 46 44 42 46 48 52 52 52 52 52 52 52
56 56 57 57 57 57 57 56 55 54 56 59 60 60 61 61 61 61 60 57 56 54 56 54 55 54 51 49 48 49 49 49 48 44 42 43 46 47 51 52 52 52 52
55 55 56 56 57 58 58 56 55 54 55 55 58 59 60 61 61 61 61 60 59 58 57 56 55 54 53 51 51 49 49 48 48 47 46 45 45 46 46 48 51 52 52

GFSSE_sfc_dewp_114.txt.gz
Dewpoint
67 68 71 71 70 70 72 72 72 72 73 72 73 73 72 72 72 72 72 72 71 71 72 72 72 72 71 70 71 70 69 69 69 69 69 68 67 67 68 68 68 66 69
66 68 70 69 70 70 72 72 70 71 73 73 73 72 72 72 72 72 72 72 72 71 70 72 72 71 71 70 70 70 70 69 69 69 69 69 68 67 67 67 68 66 68
67 69 70 70 71 71 72 72 71 71 71 73 73 72 72 72 72 72 72 72 71 70 69 70 71 70 70 70 70 70 69 68 68 68 68 65 65 67 67 67 67 67 67
68 69 69 71 71 71 71 72 72 71 71 70 71 72 72 72 72 72 71 71 71 71 69 70 70 70 70 70 69 68 68 68 67 66 64 64 64 66 66 66 66 66 66
68 69 69 70 70 71 71 71 72 71 70 70 70 72 72 71 71 71 70 70 70 71 70 69 70 69 69 68 68 67 66 66 65 62 61 62 63 65 65 65 64 64 65
68 69 69 69 70 71 71 71 71 71 71 71 71 71 71 71 71 71 70 70 69 69 69 70 69 69 68 67 66 66 65 64 61 60 61 62 61 64 64 62 64 63 64
68 68 68 68 70 71 71 71 71 71 70 70 70 68 70 69 70 70 69 68 68 67 68 68 69 68 67 66 65 64 63 62 59 59 59 60 61 62 62 61 61 61 61
67 67 68 69 70 70 70 71 70 70 70 69 69 69 69 68 67 67 68 68 68 67 67 68 67 67 66 65 64 63 62 61 58 58 59 59 63 61 60 60 59 58 60
65 66 67 68 69 69 69 69 69 69 69 69 68 67 67 66 66 66 66 67 67 66 67 67 67 65 66 64 63 62 61 60 56 57 58 58 62 61 60 59 59 59 59
64 65 67 68 68 69 69 68 68 68 68 68 67 67 66 64 64 66 66 66 66 67 67 67 65 64 65 63 62 61 61 60 56 57 57 59 62 60 59 59 59 57 58
63 63 65 66 67 68 68 68 68 68 68 66 66 66 64 63 63 65 65 65 66 66 66 66 64 62 63 62 62 61 59 56 56 57 58 61 61 59 58 58 58 58 57
61 62 63 65 66 66 67 67 69 69 68 66 64 65 64 64 64 63 64 65 65 65 65 64 62 62 62 60 60 59 56 56 57 57 58 61 61 59 58 58 57 57 57
62 62 62 62 63 63 64 65 65 65 67 66 64 64 65 64 64 63 64 65 64 65 63 62 60 59 59 59 56 56 56 56 57 57 59 61 61 58 58 58 57 57 56
59 61 61 61 61 60 61 61 61 62 64 66 65 64 63 62 62 63 64 64 64 63 62 60 56 55 57 56 55 55 55 56 56 57 59 60 60 58 58 57 57 57 56
58 60 61 62 61 60 59 59 61 61 62 64 65 64 63 62 62 63 63 63 62 62 61 57 53 53 53 54 55 55 55 55 56 57 58 59 60 60 58 58 58 57 56
57 59 60 61 61 60 59 59 61 61 61 62 64 63 63 62 62 62 62 62 61 60 59 56 52 52 53 54 54 54 54 55 56 56 57 58 59 59 59 58 57 57 56
55 57 60 61 60 60 59 59 59 59 60 61 62 64 63 62 62 62 62 61 60 59 57 53 51 51 53 53 53 54 54 55 56 56 56 57 57 58 59 59 58 57 56
54 58 60 61 60 59 59 58 59 60 59 60 61 63 63 63 62 62 62 61 59 57 55 53 51 50 52 53 53 53 54 55 55 55 55 56 56 56 58 59 59 58 57
53 59 60 61 60 59 59 59 59 60 60 60 61 61 62 62 63 62 62 60 57 55 54 53 51 51 52 52 53 53 53 54 55 55 55 55 55 55 56 58 58 58 58
57 59 60 60 60 59 59 60 61 59 59 61 62 61 61 61 62 62 61 57 56 53 52 52 50 51 52 53 52 52 53 53 54 54 54 55 55 55 55 55 57 56 58
59 59 59 59 59 59 60 60 60 59 60 61 61 61 61 61 61 61 58 57 55 52 50 51 50 50 51 52 51 50 50 53 52 53 54 54 54 54 54 54 55 55 55
58 58 59 59 59 60 60 60 60 59 61 61 61 61 61 61 60 59 57 56 53 50 50 50 50 50 51 52 50 49 48 49 51 52 53 53 53 54 54 54 54 54 54
57 57 58 58 59 59 59 59 60 60 60 60 61 60 61 61 59 58 57 55 53 49 49 50 50 50 50 50 51 48 45 46 48 49 51 53 53 53 53 53 53 53 54
56 56 57 58 59 57 57 58 59 58 57 59 59 61 60 61 60 58 56 55 52 49 48 50 51 51 50 49 49 48 48 47 46 44 47 50 52 52 52 52 53 53 53
56 55 57 58 58 57 57 58 58 57 58 59 60 60 61 61 61 59 57 56 53 52 49 50 53 53 52 50 49 49 49 49 47 44 43 45 47 51 52 52 53 53 53
55 55 57 57 57 57 56 55 55 54 57 59 59 59 60 61 61 61 58 57 55 53 52 52 54 54 53 52 50 49 49 48 48 47 45 45 46 47 48 51 52 53 53

GFSSE_sfc_dewp_117.txt.gz
Dewpoint
65 68 71 70 69 72 72 72 72 73 72 72 73 73 73 73 73 73 73 73 72 72 72 71 72 72 71 71 71 70 70 70 69 70 70 69 69 69 69 69 68 64 69
65 68 70 70 69 71 72 72 71 72 73 73 73 73 72 72 72 72 72 72 72 72 71 72 72 72 71 70 70 70 70 70 69 69 69 69 68 67 68 69 68 67 69
67 69 69 69 70 70 72 72 71 72 73 73 73 73 72 72 72 72 72 71 71 72 71 71 72 71 70 70 70 70 69 69 69 69 68 63 65 67 67 68 68 68 67
67 68 69 69 70 70 72 71 70 71 72 73 73 72 72 72 72 72 72 71 71 71 71 70 70 70 70 70 69 69 69 68 67 67 62 62 63 67 67 66 67 67 67
67 68 69 70 70 71 72 72 70 71 71 72 72 72 72 72 72 72 71 71 70 70 70 70 70 70 70 69 68 68 67 67 66 64 62 63 63 65 66 66 66 66 66
67 68 69 69 70 70 71 72 70 70 70 70 71 72 72 71 70 69 67 69 69 69 70 69 69 69 68 67 67 66 66 65 65 62 62 64 63 65 64 64 65 66 66
68 69 70 69 69 70 72 72 71 70 69 70 71 71 71 69 68 68 68 68 68 68 68 69 69 68 67 66 66 65 64 64 62 61 61 61 62 63 62 62 62 64 64
68 69 70 69 70 70 71 71 70 70 69 70 70 70 69 69 69 68 68 68 67 68 68 68 68 67 67 66 65 64 63 63 61 60 60 60 63 63 62 61 61 62 62
69 69 69 70 70 69 69 69 69 69 69 69 69 68 68 67 67 67 67 67 67 67 67 67 67 67 66 65 64 63 62 62 59 58 58 58 63 61 60 60 59 60 60
68 69 69 69 69 70 70 68 68 68 68 68 68 67 67 66 66 67 67 67 67 67 67 67 67 66 65 64 63 61 61 61 58 57 57 58 62 61 60 60 59 59 59
67 68 69 67 68 68 69 70 69 68 68 67 67 66 65 65 66 65 63 65 66 66 67 66 65 65 64 63 62 61 60 57 58 57 57 62 61 60 60 59 59 58 58
65 66 67 67 67 68 68 69 70 69 70 69 69 67 67 65 64 63 64 65 66 66 66 65 64 64 62 60 59 59 57 58 57 57 56 62 61 59 60 59 58 58 57
61 65 66 66 67 67 67 68 70 70 69 69 69 68 67 65 65 65 65 66 67 66 64 63 62 62 61 60 58 58 58 58 57 56 57 61 61 59 60 58 58 58 58
60 63 65 67 66 66 67 67 68 69 68 67 67 67 66 65 65 65 65 66 66 64 64 62 61 61 62 60 59 58 58 57 57 56 57 60 61 59 59 59 58 58 56
59 61 64 66 67 66 65 66 66 66 67 67 66 65 65 65 65 63 64 65 64 63 63 61 60 59 60 59 58 58 58 58 57 56 57 60 60 60 59 59 58 57 56
58 59 62 65 66 66 66 65 64 64 65 66 66 64 65 65 65 64 63 64 64 63 61 60 58 58 58 58 58 57 57 56 56 58 56 56 59 59 60 58 58 57 56
53 57 61 63 65 65 65 64 63 63 63 65 66 65 64 63 63 63 63 63 63 63 60 58 57 57 56 57 57 56 56 57 56 57 57 56 56 58 58 59 59 57 56
48 52 58 60 64 64 64 63 62 62 63 63 64 64 64 64 63 63 63 62 62 61 59 56 56 55 55 56 55 55 54 55 57 57 56 56 55 54 57 59 59 59 58
42 45 57 61 63 64 63 63 62 61 61 61 62 63 64 63 63 63 62 62 60 59 58 57 55 55 55 55 54 54 54 54 56 55 56 57 57 55 54 58 58 58 59
43 47 57 61 62 63 63 62 61 61 60 60 61 61 62 63 63 62 62 61 59 58 57 56 55 54 55 54 52 53 55 55 55 56 56 55 56 56 56 56 56 55 58
54 56 59 61 62 62 61 60 60 59 59 60 61 61 62 62 62 63 62 60 59 57 57 58 55 55 54 55 54 53 54 55 56 55 56 55 55 56 56 56 55 54 54
55 59 60 60 61 61 61 61 61 60 61 60 61 62 62 62 61 62 61 59 58 57 56 55 55 54 54 55 52 52 51 52 54 54 55 55 56 54 54 56 55 56 55
55 59 59 60 60 61 61 61 61 61 61 61 61 61 61 61 61 60 60 59 57 55 54 56 55 54 52 54 55 51 50 49 51 53 54 54 55 55 54 55 55 55 56
53 58 59 60 60 60 61 60 60 59 58 60 61 61 61 60 59 59 59 58 56 54 53 55 54 54 54 53 54 51 53 52 49 49 51 54 54 54 55 54 54 55 55
55 58 60 60 59 59 60 60 59 59 59 61 61 60 61 61 59 58 58 57 54 53 54 54 55 55 54 54 53 51 51 50 52 49 48 50 52 53 54 54 55 54 55
57 58 59 59 58 58 59 59 59 59 58 60 60 60 61 61 60 59 57 56 55 53 53 53 54 55 56 55 54 52 50 48 48 47 47 50 50 51 53 54 55 54 55

GFSSE_sfc_dewp_120.txt.gz
Dewpoint
57 64 71 71 71 72 72 73 73 73 73 73 73 73 73 73 73 73 73 73 73 72 71 71 72 71 70 70 72 71 71 71 70 70 70 69 69 69 68 69 69 64 69
55 64 70 71 70 72 72 72 73 73 73 73 73 73 73 73 73 73 73 73 72 72 71 71 71 71 71 71 71 71 70 70 70 69 70 69 69 68 68 69 68 67 69
57 64 69 70 70 72 72 72 73 73 73 73 73 73 73 73 73 73 73 72 72 72 71 71 71 71 70 71 70 70 70 69 69 69 68 62 64 68 68 69 69 69 68
60 64 66 70 70 71 72 72 72 73 73 73 71 73 73 73 72 72 72 71 71 71 71 71 71 70 70 70 70 69 69 69 68 68 60 61 62 67 67 67 68 68 67
61 63 66 69 70 70 72 71 71 71 73 72 72 73 72 73 72 72 71 70 70 71 71 70 70 70 70 69 69 69 68 67 67 64 56 59 61 66 67 67 67 67 66
61 62 68 69 69 70 72 72 71 71 72 72 72 72 72 71 71 68 68 67 68 69 69 69 69 70 69 68 68 67 67 66 65 55 56 63 62 66 66 66 67 67 66
62 64 69 68 69 71 72 72 70 71 71 71 71 71 72 70 68 66 68 67 67 67 69 69 69 69 68 67 67 66 66 65 58 55 57 61 63 65 65 65 65 66 65
64 67 69 69 69 70 71 71 69 69 69 70 71 71 70 69 68 68 67 68 68 67 69 69 69 68 67 67 66 65 64 64 58 55 55 61 64 64 63 63 63 64 64
68 69 69 70 69 69 69 69 69 69 69 69 70 69 69 67 67 67 67 68 68 68 68 68 68 67 66 66 64 64 63 64 56 53 53 60 64 63 61 62 62 62 62
68 70 69 70 70 70 70 68 68 68 68 68 69 68 67 67 66 67 67 67 67 68 68 68 67 66 65 64 63 62 62 62 54 54 52 58 63 61 60 60 60 61 60
66 69 70 70 70 70 69 70 69 68 68 68 68 67 66 66 66 66 64 66 67 67 67 67 66 65 64 63 62 62 62 54 54 53 53 62 62 60 60 60 59 59 59
63 66 69 70 70 70 69 70 70 70 70 70 69 69 66 66 66 62 64 66 67 66 67 66 65 64 63 61 60 61 56 55 54 53 55 62 62 61 60 60 59 59 59
59 63 66 69 70 70 69 69 69 70 69 68 68 69 67 65 67 63 61 65 66 66 65 66 64 62 62 58 57 57 57 57 53 52 58 62 62 60 60 59 59 58 58
56 61 66 67 68 69 68 68 69 70 70 69 68 69 69 67 64 62 61 62 64 66 66 64 63 62 59 57 58 58 58 54 53 52 57 61 61 61 60 59 59 58 58
54 58 63 66 68 68 68 69 69 69 69 69 70 69 69 67 64 63 64 63 65 66 65 62 61 58 59 60 58 59 57 56 55 51 54 60 61 61 59 59 58 57 57
48 53 59 64 66 68 67 68 68 68 68 69 69 68 69 68 65 64 64 67 65 65 63 62 59 57 58 59 59 59 57 54 54 54 54 57 59 60 60 58 58 57 56
35 38 52 58 64 67 68 67 66 67 67 68 68 68 68 67 66 64 64 64 65 64 64 62 60 57 57 58 59 58 56 55 52 55 53 54 56 59 60 60 59 57 57
34 36 42 49 59 65 66 67 66 66 65 67 66 67 67 67 66 65 64 63 64 64 63 60 58 57 57 58 58 56 54 54 55 54 53 53 53 52 58 60 60 59 58
35 37 42 48 57 62 65 65 66 66 65 65 66 66 66 66 65 64 64 63 64 62 61 59 59 58 57 57 56 55 54 54 55 52 53 53 54 52 52 58 59 59 59
43 43 46 46 54 61 64 66 65 63 63 64 66 64 65 66 64 64 63 62 63 61 60 59 58 57 57 56 53 53 54 54 55 54 53 52 53 53 52 55 55 55 58
50 49 52 53 57 61 63 64 63 61 61 61 63 63 62 64 64 63 63 62 61 60 60 59 58 58 55 57 56 55 54 56 56 54 54 52 52 53 53 53 52 51 54
52 54 55 56 59 60 61 62 62 62 62 61 61 62 62 62 64 63 63 62 60 60 59 58 57 56 55 57 53 53 52 53 54 54 54 52 54 52 52 53 53 52 51
51 55 55 56 59 60 60 61 62 62 62 61 61 61 62 62 63 63 62 61 60 60 58 58 57 56 55 56 56 51 50 49 52 54 55 54 55 53 53 54 54 54 55
53 57 57 57 58 60 61 61 61 60 60 61 61 63 63 63 63 62 62 61 60 59 58 58 57 56 57 55 55 51 52 50 49 51 53 54 55 54 56 54 55 55 55
52 58 58 58 60 60 61 62 61 60 59 60 61 62 62 62 61 61 61 59 59 59 58 57 57 59 58 56 55 53 53 53 53 48 49 51 53 54 54 55 55 55 55
50 55 58 58 59 60 61 62 61 61 59 60 61 61 62 60 60 60 58 58 58 58 58 57 57 58 58 57 55 55 52 51 50 49 47 50 51 53 53 54 55 55 55

GFSSE_sfc_dewp_126.txt.gz
Dewpoint
58 68 72 72 73 73 73 73 73 73 73 73 73 74 74 74 74 73 73 73 73 73 72 71 72 72 72 71 72 72 71 71 71 71 71 71 70 69 70 69 68 66 70
61 67 71 72 73 73 73 73 73 73 73 73 73 73 73 74 73 73 73 73 73 72 72 71 71 71 71 71 71 71 70 70 70 70 70 70 70 69 69 69 69 68 70
59 67 69 71 72 72 73 73 74 73 73 73 73 73 73 73 73 73 73 72 72 72 71 71 71 71 70 71 71 70 70 70 69 69 68 65 66 68 68 69 69 69 69
63 66 68 71 71 72 73 73 73 73 73 73 73 73 73 73 73 73 72 71 70 68 70 71 71 70 70 70 70 70 70 69 69 68 62 63 65 68 68 69 69 68 69
60 63 68 70 71 72 72 73 73 73 73 73 73 73 73 73 72 73 71 70 67 65 65 68 69 70 69 70 69 69 68 68 67 66 61 62 64 67 68 68 68 68 68
55 65 68 69 70 72 72 72 73 73 72 72 72 72 73 73 72 71 70 69 66 65 65 69 66 69 69 68 68 68 68 67 65 62 61 65 64 67 67 68 68 68 67
59 69 69 68 70 71 72 72 72 72 71 71 71 72 72 72 72 68 69 68 64 63 63 66 68 67 68 68 67 67 67 66 63 66 62 64 65 67 67 67 67 67 66
69 70 69 69 70 71 71 71 70 71 71 71 70 71 71 71 70 66 66 67 65 65 66 68 68 68 68 68 67 66 65 66 61 63 62 64 66 66 66 66 65 66 65
68 71 70 69 69 70 70 70 69 70 69 70 70 71 70 69 67 66 67 66 66 67 68 68 68 67 67 67 66 65 64 65 61 62 62 63 66 66 65 65 64 63 63
70 71 70 70 70 70 70 69 68 68 68 69 70 70 68 67 66 66 67 68 68 68 68 68 67 67 66 65 65 64 63 64 59 61 61 63 65 64 64 64 63 62 62
69 71 71 70 70 70 70 70 68 68 68 68 70 69 67 68 66 67 66 67 68 68 68 67 66 66 65 64 63 63 63 59 57 61 61 64 65 64 64 63 62 61 61
65 69 71 71 70 70 68 70 70 69 69 69 70 70 70 69 67 64 65 66 68 68 67 67 66 64 64 64 63 62 60 58 58 60 61 64 64 63 63 62 61 60 61
63 66 68 71 71 70 68 70 69 69 69 69 69 70 70 69 68 66 67 66 68 67 67 66 64 64 65 63 62 61 60 58 58 58 61 63 62 62 62 61 60 60 60
57 64 67 69 71 70 69 68 69 68 68 68 68 69 69 69 68 67 65 66 66 65 66 65 64 64 64 62 61 61 59 57 57 58 61 62 62 61 60 60 60 60 60
49 60 66 68 70 70 70 69 68 68 68 68 68 68 69 68 67 66 66 66 65 65 65 64 64 63 63 62 61 57 57 57 57 57 59 61 62 62 61 60 59 60 60
47 54 66 67 69 69 69 69 67 68 68 68 68 68 69 68 67 66 66 65 65 65 65 64 64 63 63 63 58 57 57 54 55 56 58 59 61 61 61 60 59 59 59
44 52 62 66 69 69 69 69 68 67 68 67 67 69 69 69 68 66 65 65 65 65 65 64 63 63 62 63 59 58 57 55 54 56 57 58 59 60 61 61 61 59 58
45 49 56 58 64 69 68 68 67 66 67 68 68 68 69 69 68 67 65 65 66 64 64 63 62 61 61 60 59 58 57 53 54 55 57 57 57 57 60 60 61 60 59
41 44 49 53 62 64 67 67 67 67 67 67 69 68 68 69 68 66 65 65 65 64 63 62 62 62 60 60 60 58 56 53 54 53 55 55 55 56 57 59 59 59 59
49 50 51 52 54 58 65 67 68 67 66 67 67 68 68 68 68 67 66 65 65 63 62 62 61 62 61 61 58 58 55 53 53 53 53 53 54 55 56 57 57 56 58
49 50 52 54 56 56 59 61 63 66 66 66 65 66 68 66 67 67 66 65 64 63 62 62 61 60 60 60 58 56 57 54 54 53 54 53 53 53 55 56 55 54 57
49 53 53 55 57 57 53 54 60 63 67 66 65 65 66 67 67 66 65 64 64 63 62 61 60 59 59 60 56 54 52 54 55 54 53 53 52 52 55 54 53 53 54
51 56 55 56 57 58 57 55 62 65 64 63 63 64 65 66 66 65 65 64 63 62 61 61 60 58 56 58 59 52 50 50 52 55 53 53 53 51 53 53 53 52 53
53 55 57 58 59 58 60 59 63 62 61 61 62 62 63 64 64 64 64 63 62 62 61 61 60 59 57 56 59 54 53 52 50 51 53 53 55 52 53 52 53 53 53
53 55 57 58 59 60 61 62 63 62 62 62 61 61 62 62 62 63 63 63 62 62 61 60 60 59 58 56 56 55 53 53 52 50 50 51 54 51 54 53 54 53 55
55 56 58 56 56 59 60 61 63 62 61 60 61 61 61 61 62 62 62 63 62 62 61 60 60 60 59 57 57 56 53 52 51 51 50 50 51 50 52 54 55 56 56

GFSSE_sfc_dewp_129.txt.gz
Dewpoint
66 71 71 72 72 73 72 72 72 72 73 73 73 73 74 73 73 73 73 73 73 73 72 72 73 71 71 72 72 72 72 71 71 71 71 71 70 70 70 70 69 68 70
68 71 71 72 72 72 73 72 72 72 73 73 73 73 73 73 73 73 73 73 72 72 72 71 71 70 71 71 71 71 71 70 70 70 70 70 70 70 69 69 69 69 70
68 70 70 71 72 72 73 73 73 73 73 73 73 73 73 73 73 73 73 72 71 71 70 70 70 70 71 71 71 71 70 69 69 68 68 66 66 69 68 69 70 70 69
67 69 69 71 71 72 72 73 73 73 73 73 73 73 73 73 73 73 72 69 68 69 69 68 69 69 70 70 70 70 70 69 69 68 65 64 65 68 69 69 69 69 69
65 68 69 70 71 72 72 72 73 73 73 73 73 73 73 73 73 72 71 69 67 68 69 69 67 69 69 69 69 69 69 68 68 64 64 65 66 67 68 68 68 69 68
64 67 68 69 70 71 72 72 73 73 72 72 72 73 73 73 73 72 69 69 68 66 69 68 67 68 68 68 68 68 67 66 66 63 64 66 66 68 68 68 68 68 67
67 67 68 68 70 71 72 72 72 72 72 71 72 72 72 72 72 70 69 67 67 66 69 68 68 68 68 68 68 67 66 66 64 65 64 65 66 68 68 67 67 67 67
67 67 68 69 70 70 71 71 71 71 70 71 71 71 71 71 70 70 69 66 66 67 68 68 68 68 68 67 67 66 65 64 65 66 65 65 67 67 67 66 66 66 66
68 68 68 68 70 69 69 69 69 69 69 70 69 70 70 69 67 66 68 66 66 66 68 67 67 68 67 67 66 65 63 64 64 65 64 64 67 67 66 65 65 64 64
68 68 67 67 68 68 68 68 68 68 68 69 69 69 68 68 66 66 66 66 66 67 68 68 68 67 67 66 65 64 62 63 62 63 64 65 67 66 65 64 64 64 63
69 68 68 68 68 68 68 68 68 68 68 68 69 69 67 67 65 66 66 66 68 67 68 68 67 66 66 65 64 64 62 60 61 62 63 65 66 65 64 64 63 63 63
67 69 68 68 68 68 69 68 67 68 68 67 69 70 68 67 65 64 66 66 67 67 68 67 66 65 65 64 64 63 60 59 61 61 62 65 65 65 64 63 62 62 62
66 69 68 68 68 68 68 68 68 68 68 68 67 69 69 68 66 65 65 65 66 67 67 66 65 64 64 63 63 61 60 59 60 61 63 64 64 64 64 63 62 62 61
63 67 69 69 68 69 67 68 68 68 68 68 68 69 69 68 67 65 65 65 66 66 65 65 63 63 64 62 62 61 60 58 58 60 62 62 63 64 63 63 61 61 60
61 65 68 68 68 68 67 68 68 68 68 68 68 69 69 68 67 66 65 66 66 66 65 64 63 63 63 63 62 60 59 57 58 59 60 61 62 62 61 62 60 61 60
42 62 67 69 68 68 68 67 67 67 67 67 67 68 69 68 66 65 64 65 65 65 65 64 64 63 63 63 63 62 57 57 57 58 60 60 61 61 61 60 60 60 60
38 50 65 68 69 68 68 67 67 66 67 67 67 67 68 68 66 65 65 64 64 64 64 64 63 63 62 62 62 62 57 56 57 58 59 59 59 60 61 61 61 60 59
37 44 64 67 69 68 67 68 67 66 66 67 67 67 67 68 67 65 65 64 64 64 64 63 62 61 61 61 61 60 57 55 56 57 58 58 58 58 60 60 60 61 60
37 45 53 62 68 67 67 68 67 66 66 66 68 67 68 68 67 66 64 64 64 64 63 62 61 60 60 61 61 61 59 55 55 56 57 57 57 58 58 60 59 59 60
43 43 44 47 58 65 67 67 66 65 65 66 66 68 68 68 67 66 65 65 64 62 62 62 60 61 60 60 61 60 59 55 55 56 56 56 56 57 57 57 57 57 59
43 44 47 48 49 54 61 65 65 65 65 65 65 66 68 68 67 66 65 65 63 62 62 61 61 60 60 60 59 59 59 55 53 55 55 55 55 56 57 57 56 55 56
47 53 53 54 54 54 50 58 64 66 66 65 66 65 66 67 67 66 65 65 64 62 62 61 60 60 59 60 58 56 54 55 53 53 53 53 54 55 56 56 55 54 55
52 53 54 55 57 57 55 51 59 62 63 63 65 64 64 66 66 66 65 65 64 63 62 61 60 59 58 59 59 55 52 51 52 54 52 53 53 53 55 55 54 54 54
50 52 54 55 55 57 59 55 59 60 59 61 64 65 65 65 66 66 65 64 64 63 62 61 61 59 59 57 59 57 53 52 51 50 53 52 52 53 54 54 53 53 54
49 50 52 55 55 58 59 60 60 59 59 60 61 62 63 64 65 65 65 63 63 63 62 61 61 60 59 57 58 57 54 52 51 49 48 51 54 51 54 54 53 53 53
51 50 50 51 54 56 58 59 58 60 60 60 60 61 61 62 63 64 64 63 62 62 61 61 61 60 59 58 58 58 53 51 50 50 49 48 49 51 52 52 53 54 52

GFSSE_sfc_dewp_135.txt.gz
Dewpoint
65 69 72 72 72 72 72 72 72 72 72 73 73 73 73 73 73 73 73 73 73 73 71 71 72 71 71 70 71 70 69 69 69 69 70 70 70 71 70 70 70 68 70
67 70 71 72 72 72 72 72 72 72 73 73 73 73 73 73 73 73 73 73 73 72 70 71 72 72 71 70 71 70 70 70 70 69 70 70 70 70 70 70 70 68 70
68 70 71 71 72 72 72 72 72 73 73 73 73 73 73 73 73 73 73 72 72 72 70 70 71 70 70 71 71 70 70 70 70 70 70 68 68 69 70 70 70 69 69
68 70 70 71 71 72 72 72 72 73 73 73 73 73 73 73 73 72 72 72 72 72 71 70 70 70 71 70 70 70 69 69 68 68 67 67 67 69 69 69 69 68 68
68 69 69 70 71 72 72 72 72 72 72 72 72 73 73 73 72 71 71 70 71 71 71 70 70 70 70 69 69 69 68 68 67 66 65 66 66 67 68 68 68 68 67
68 68 69 69 70 71 72 72 72 72 72 72 72 73 73 73 72 70 70 70 71 70 70 71 70 70 69 68 68 68 67 67 66 65 66 67 66 68 68 68 68 68 67
66 67 68 68 70 71 72 72 72 71 71 71 72 72 72 72 71 69 69 70 70 70 70 70 70 69 68 68 68 66 66 66 65 65 65 65 67 68 68 67 67 67 67
65 67 68 69 69 70 71 71 71 70 70 70 71 72 72 72 70 69 69 68 69 70 69 68 68 68 68 67 66 65 65 65 65 65 65 64 67 66 66 67 66 67 66
65 67 67 68 69 69 69 69 69 69 69 70 70 70 71 70 69 69 68 68 68 69 68 67 67 67 67 67 66 65 64 65 64 65 66 65 67 67 67 66 66 65 65
64 65 66 67 68 68 69 68 68 68 68 69 69 69 69 68 68 67 67 67 67 68 68 67 67 67 67 66 65 64 63 65 64 65 65 65 66 67 67 66 65 65 64
63 64 65 67 66 66 67 69 68 68 68 68 69 68 67 68 68 67 65 65 66 67 67 67 67 66 65 65 65 63 64 64 63 63 63 65 66 66 66 65 64 64 64
63 63 65 66 67 67 68 69 69 68 69 69 69 69 69 66 66 66 65 65 65 66 66 66 66 65 65 64 63 63 63 63 63 63 63 65 66 66 66 65 64 63 63
62 64 64 65 66 67 67 67 68 68 69 68 67 68 68 65 64 63 63 63 64 66 65 65 65 64 63 63 63 62 61 63 62 63 64 65 65 65 66 64 64 63 63
63 63 64 65 65 66 67 66 67 67 67 68 67 68 68 66 64 63 63 63 63 64 64 65 62 61 62 62 62 61 62 62 62 62 63 63 65 65 65 64 63 63 62
63 63 65 65 65 66 66 65 65 67 67 67 66 67 68 67 65 63 62 63 63 64 63 63 63 61 61 61 61 60 60 61 62 62 63 63 63 65 64 63 63 63 62
61 64 66 65 65 66 66 65 65 65 65 65 66 65 65 67 67 65 63 63 63 64 63 62 62 61 61 63 61 61 60 60 61 61 62 62 62 63 64 63 62 62 61
56 63 67 66 65 65 66 65 65 65 65 64 64 65 66 67 67 65 64 63 63 64 63 63 61 61 61 63 61 61 60 59 60 60 60 61 61 61 62 62 63 62 61
47 61 66 67 67 66 65 66 66 66 65 65 65 65 65 67 67 66 64 64 64 64 63 62 61 60 60 60 60 61 59 59 60 60 59 59 59 60 60 60 62 61 61
37 53 63 67 67 67 67 67 67 66 66 66 66 66 66 66 66 66 65 64 64 64 63 63 62 61 59 59 60 60 59 58 59 59 58 58 58 58 58 59 59 60 61
31 38 58 65 67 67 67 67 66 66 66 67 67 67 67 67 66 66 65 64 63 64 63 63 61 60 60 60 60 59 59 59 59 59 58 58 58 58 58 58 58 58 59
38 42 61 65 66 67 67 66 65 65 65 65 67 67 67 67 67 66 66 64 64 63 63 63 61 60 58 60 58 58 58 58 58 58 58 57 57 58 57 57 57 57 58
45 49 61 65 66 67 67 65 63 64 64 65 65 65 66 67 67 66 66 65 64 63 63 62 61 59 58 59 57 56 53 55 57 57 57 57 56 57 57 57 57 56 57
53 54 55 57 61 61 61 62 62 63 63 63 63 63 64 66 66 67 66 65 64 63 62 62 61 60 58 59 58 57 53 52 54 56 56 56 56 56 57 57 56 55 56
53 53 54 57 59 58 56 54 59 61 61 63 64 64 64 63 65 66 65 64 64 63 62 62 62 60 59 58 58 58 54 54 52 51 56 56 56 55 56 56 56 55 55
52 53 53 54 57 59 59 57 57 57 59 59 62 63 64 63 64 65 64 64 63 63 63 62 61 61 60 59 58 57 56 53 53 52 51 53 54 55 55 56 56 55 54
50 50 54 56 56 57 57 58 58 58 59 59 60 63 63 63 62 64 64 64 63 63 63 62 62 61 60 60 59 58 56 54 52 50 50 52 52 54 55 55 55 55 54